Wetterdaten: Donnerstag, 29.03.2018
Datum Zeit Temp. A. Feuchte A. Luftdruck Regen Wind Richtung Richtung Sonnenschein ET UV Solar Taupunkt Windchill Windböen
29.03.2018 00:00 6,4 °C 92 % 1003,1 hPa 0,0 mm 15,7 km/h (3 Bft) W 267 ° 0 min 0,000 mm 0,0 UV-I 0 W/m² 5,2 °C 3,4 °C 22,5 km/h (4 Bft)
29.03.2018 00:01 6,4 °C 91 % 1003,1 hPa 0,0 mm 15,4 km/h (3 Bft) W 265 ° 0 min 0,000 mm 0,0 UV-I 0 W/m² 5,0 °C 3,4 °C 22,5 km/h (4 Bft)
29.03.2018 00:02 6,4 °C 91 % 1003,1 hPa 0,2 mm 21,6 km/h (4 Bft) W-NW 289 ° 0 min 0,000 mm 0,0 UV-I 0 W/m² 5,0 °C 2,7 °C 30,6 km/h (5 Bft)
29.03.2018 00:03 6,4 °C 91 % 1003,0 hPa 0,0 mm 20,5 km/h (4 Bft) W 267 ° 0 min 0,000 mm 0,0 UV-I 0 W/m² 5,0 °C 2,8 °C 30,6 km/h (5 Bft)
29.03.2018 00:04 6,4 °C 91 % 1003,0 hPa 0,0 mm 23,1 km/h (4 Bft) W 275 ° 0 min 0,000 mm 0,0 UV-I 0 W/m² 5,0 °C 2,5 °C 30,6 km/h (5 Bft)
29.03.2018 00:05 6,4 °C 91 % 1003,0 hPa 0,0 mm 17,1 km/h (3 Bft) W 261 ° 0 min 0,000 mm 0,0 UV-I 0 W/m² 5,0 °C 3,2 °C 29,0 km/h (5 Bft)
29.03.2018 00:06 6,4 °C 91 % 1003,1 hPa 0,0 mm 15,4 km/h (3 Bft) W 278 ° 0 min 0,000 mm 0,0 UV-I 0 W/m² 5,0 °C 3,4 °C 24,1 km/h (4 Bft)
29.03.2018 00:07 6,4 °C 91 % 1003,1 hPa 0,0 mm 20,5 km/h (4 Bft) W-NW 295 ° 0 min 0,000 mm 0,0 UV-I 0 W/m² 5,0 °C 2,8 °C 30,6 km/h (5 Bft)
29.03.2018 00:08 6,4 °C 91 % 1003,1 hPa 0,0 mm 22,7 km/h (4 Bft) W-SW 250 ° 0 min 0,000 mm 0,0 UV-I 0 W/m² 5,0 °C 2,5 °C 37,0 km/h (5 Bft)
29.03.2018 00:09 6,4 °C 90 % 1003,1 hPa 0,0 mm 18,1 km/h (3 Bft) W-SW 254 ° 0 min 0,000 mm 0,0 UV-I 0 W/m² 4,9 °C 3,1 °C 29,0 km/h (5 Bft)
29.03.2018 00:10 6,4 °C 90 % 1003,2 hPa 0,0 mm 12,2 km/h (2 Bft) W 263 ° 0 min 0,000 mm 0,0 UV-I 0 W/m² 4,9 °C 3,9 °C 19,3 km/h (3 Bft)
29.03.2018 00:11 6,4 °C 90 % 1003,2 hPa 0,0 mm 12,6 km/h (3 Bft) W 262 ° 0 min 0,000 mm 0,0 UV-I 0 W/m² 4,9 °C 3,8 °C 20,9 km/h (4 Bft)
29.03.2018 00:12 6,4 °C 90 % 1003,1 hPa 0,2 mm 17,4 km/h (3 Bft) W-SW 251 ° 0 min 0,000 mm 0,0 UV-I 0 W/m² 4,9 °C 3,1 °C 22,5 km/h (4 Bft)
29.03.2018 00:13 6,4 °C 90 % 1003,0 hPa 0,0 mm 16,3 km/h (3 Bft) W-SW 254 ° 0 min 0,000 mm 0,0 UV-I 0 W/m² 4,9 °C 3,3 °C 24,1 km/h (4 Bft)
29.03.2018 00:14 6,3 °C 90 % 1003,1 hPa 0,0 mm 17,4 km/h (3 Bft) W-NW 289 ° 0 min 0,000 mm 0,0 UV-I 0 W/m² 4,8 °C 3,0 °C 29,0 km/h (5 Bft)
29.03.2018 00:15 6,3 °C 90 % 1003,1 hPa 0,0 mm 21,2 km/h (4 Bft) W-SW 257 ° 0 min 0,000 mm 0,0 UV-I 0 W/m² 4,8 °C 2,6 °C 30,6 km/h (5 Bft)
29.03.2018 00:16 6,3 °C 90 % 1003,1 hPa 0,0 mm 12,9 km/h (3 Bft) W-NW 284 ° 0 min 0,000 mm 0,0 UV-I 0 W/m² 4,8 °C 3,7 °C 16,1 km/h (3 Bft)
29.03.2018 00:17 6,3 °C 91 % 1003,1 hPa 0,0 mm 13,3 km/h (3 Bft) W-SW 258 ° 0 min 0,000 mm 0,0 UV-I 0 W/m² 4,9 °C 3,6 °C 19,3 km/h (3 Bft)
29.03.2018 00:18 6,3 °C 91 % 1003,1 hPa 0,0 mm 14,6 km/h (3 Bft) W 269 ° 0 min 0,000 mm 0,0 UV-I 0 W/m² 4,9 °C 3,4 °C 24,1 km/h (4 Bft)
29.03.2018 00:19 6,3 °C 91 % 1003,2 hPa 0,0 mm 22,5 km/h (4 Bft) W 271 ° 0 min 0,000 mm 0,0 UV-I 0 W/m² 4,9 °C 2,4 °C 37,0 km/h (5 Bft)
29.03.2018 00:20 6,3 °C 90 % 1003,1 hPa 0,0 mm 12,7 km/h (3 Bft) S-SW 210 ° 0 min 0,000 mm 0,0 UV-I 0 W/m² 4,8 °C 3,7 °C 17,7 km/h (3 Bft)
29.03.2018 00:21 6,3 °C 90 % 1003,1 hPa 0,0 mm 15,8 km/h (3 Bft) W 269 ° 0 min 0,000 mm 0,0 UV-I 0 W/m² 4,8 °C 3,2 °C 25,7 km/h (4 Bft)
29.03.2018 00:22 6,2 °C 90 % 1003,1 hPa 0,0 mm 16,8 km/h (3 Bft) SW 229 ° 0 min 0,000 mm 0,0 UV-I 0 W/m² 4,7 °C 3,0 °C 22,5 km/h (4 Bft)
29.03.2018 00:23 6,2 °C 90 % 1003,1 hPa 0,0 mm 23,7 km/h (4 Bft) W 271 ° 0 min 0,000 mm 0,0 UV-I 0 W/m² 4,7 °C 2,2 °C 35,4 km/h (5 Bft)
29.03.2018 00:24 6,2 °C 90 % 1003,1 hPa 0,2 mm 15,6 km/h (3 Bft) W-SW 253 ° 0 min 0,000 mm 0,0 UV-I 0 W/m² 4,7 °C 3,1 °C 24,1 km/h (4 Bft)
29.03.2018 00:25 6,2 °C 90 % 1003,1 hPa 0,0 mm 16,1 km/h (3 Bft) W 269 ° 0 min 0,000 mm 0,0 UV-I 0 W/m² 4,7 °C 3,1 °C 25,7 km/h (4 Bft)
29.03.2018 00:26 6,2 °C 90 % 1003,0 hPa 0,0 mm 18,7 km/h (3 Bft) W-NW 287 ° 0 min 0,000 mm 0,0 UV-I 0 W/m² 4,7 °C 2,7 °C 32,2 km/h (5 Bft)
29.03.2018 00:27 6,2 °C 90 % 1003,0 hPa 0,0 mm 21,6 km/h (4 Bft) W 270 ° 0 min 0,000 mm 0,0 UV-I 0 W/m² 4,7 °C 2,4 °C 29,0 km/h (5 Bft)
29.03.2018 00:28 6,2 °C 90 % 1003,1 hPa 0,0 mm 14,1 km/h (3 Bft) W 259 ° 0 min 0,000 mm 0,0 UV-I 0 W/m² 4,7 °C 3,4 °C 30,6 km/h (5 Bft)
29.03.2018 00:29 6,1 °C 90 % 1003,1 hPa 0,0 mm 18,8 km/h (3 Bft) W 279 ° 0 min 0,000 mm 0,0 UV-I 0 W/m² 4,6 °C 2,6 °C 29,0 km/h (5 Bft)
29.03.2018 00:30 6,1 °C 90 % 1003,1 hPa 0,0 mm 13,7 km/h (3 Bft) W-NW 284 ° 0 min 0,000 mm 0,0 UV-I 0 W/m² 4,6 °C 3,3 °C 20,9 km/h (4 Bft)
29.03.2018 00:31 6,1 °C 90 % 1003,1 hPa 0,0 mm 18,4 km/h (3 Bft) W 263 ° 0 min 0,000 mm 0,0 UV-I 0 W/m² 4,6 °C 2,6 °C 30,6 km/h (5 Bft)
29.03.2018 00:32 6,1 °C 90 % 1003,1 hPa 0,0 mm 17,0 km/h (3 Bft) W-SW 257 ° 0 min 0,000 mm 0,0 UV-I 0 W/m² 4,6 °C 2,8 °C 20,9 km/h (4 Bft)
29.03.2018 00:33 6,0 °C 90 % 1003,1 hPa 0,0 mm 14,8 km/h (3 Bft) W-SW 255 ° 0 min 0,000 mm 0,0 UV-I 0 W/m² 4,5 °C 3,0 °C 29,0 km/h (5 Bft)
29.03.2018 00:34 6,0 °C 90 % 1003,1 hPa 0,0 mm 16,4 km/h (3 Bft) SW 234 ° 0 min 0,000 mm 0,0 UV-I 0 W/m² 4,5 °C 2,8 °C 22,5 km/h (4 Bft)
29.03.2018 00:35 5,9 °C 90 % 1003,1 hPa 0,2 mm 14,2 km/h (3 Bft) W 269 ° 0 min 0,000 mm 0,0 UV-I 0 W/m² 4,4 °C 3,0 °C 24,1 km/h (4 Bft)
29.03.2018 00:36 5,9 °C 90 % 1003,1 hPa 0,0 mm 15,2 km/h (3 Bft) W 261 ° 0 min 0,000 mm 0,0 UV-I 0 W/m² 4,4 °C 2,8 °C 20,9 km/h (4 Bft)
29.03.2018 00:37 5,9 °C 90 % 1003,2 hPa 0,0 mm 15,0 km/h (3 Bft) W 272 ° 0 min 0,000 mm 0,0 UV-I 0 W/m² 4,4 °C 2,9 °C 20,9 km/h (4 Bft)
29.03.2018 00:38 5,9 °C 90 % 1003,2 hPa 0,0 mm 18,4 km/h (3 Bft) W 260 ° 0 min 0,000 mm 0,0 UV-I 0 W/m² 4,4 °C 2,4 °C 27,4 km/h (4 Bft)
29.03.2018 00:39 5,9 °C 90 % 1003,1 hPa 0,0 mm 15,0 km/h (3 Bft) W 263 ° 0 min 0,000 mm 0,0 UV-I 0 W/m² 4,4 °C 2,9 °C 22,5 km/h (4 Bft)
29.03.2018 00:40 5,9 °C 90 % 1003,2 hPa 0,0 mm 17,4 km/h (3 Bft) W 268 ° 0 min 0,000 mm 0,0 UV-I 0 W/m² 4,4 °C 2,5 °C 25,7 km/h (4 Bft)
29.03.2018 00:41 5,9 °C 90 % 1003,1 hPa 0,0 mm 9,7 km/h (2 Bft) W 273 ° 0 min 0,000 mm 0,0 UV-I 0 W/m² 4,4 °C 3,8 °C 17,7 km/h (3 Bft)
29.03.2018 00:42 5,8 °C 90 % 1003,1 hPa 0,0 mm 9,5 km/h (2 Bft) W 281 ° 0 min 0,000 mm 0,0 UV-I 0 W/m² 4,3 °C 3,7 °C 14,5 km/h (3 Bft)
29.03.2018 00:43 5,8 °C 90 % 1003,1 hPa 0,0 mm 9,9 km/h (2 Bft) W 265 ° 0 min 0,000 mm 0,0 UV-I 0 W/m² 4,3 °C 3,6 °C 14,5 km/h (3 Bft)
29.03.2018 00:44 5,8 °C 90 % 1003,1 hPa 0,0 mm 17,3 km/h (3 Bft) W 263 ° 0 min 0,000 mm 0,0 UV-I 0 W/m² 4,3 °C 2,4 °C 22,5 km/h (4 Bft)
29.03.2018 00:45 5,8 °C 90 % 1003,1 hPa 0,0 mm 13,7 km/h (3 Bft) W-SW 253 ° 0 min 0,000 mm 0,0 UV-I 0 W/m² 4,3 °C 2,9 °C 20,9 km/h (4 Bft)
29.03.2018 00:46 5,8 °C 90 % 1003,1 hPa 0,0 mm 17,7 km/h (3 Bft) W 280 ° 0 min 0,000 mm 0,0 UV-I 0 W/m² 4,3 °C 2,4 °C 29,0 km/h (5 Bft)
29.03.2018 00:47 5,8 °C 90 % 1003,1 hPa 0,2 mm 15,2 km/h (3 Bft) W-SW 250 ° 0 min 0,000 mm 0,0 UV-I 0 W/m² 4,3 °C 2,7 °C 22,5 km/h (4 Bft)
29.03.2018 00:48 5,8 °C 90 % 1003,1 hPa 0,0 mm 15,0 km/h (3 Bft) W 269 ° 0 min 0,000 mm 0,0 UV-I 0 W/m² 4,3 °C 2,7 °C 19,3 km/h (3 Bft)
29.03.2018 00:49 5,7 °C 90 % 1003,2 hPa 0,0 mm 18,0 km/h (3 Bft) S-SW 201 ° 0 min 0,000 mm 0,0 UV-I 0 W/m² 4,2 °C 2,2 °C 24,1 km/h (4 Bft)
29.03.2018 00:50 5,7 °C 90 % 1003,2 hPa 0,0 mm 14,1 km/h (3 Bft) W-SW 242 ° 0 min 0,000 mm 0,0 UV-I 0 W/m² 4,2 °C 2,8 °C 20,9 km/h (4 Bft)
29.03.2018 00:51 5,7 °C 90 % 1003,2 hPa 0,0 mm 11,0 km/h (2 Bft) W-NW 282 ° 0 min 0,000 mm 0,0 UV-I 0 W/m² 4,2 °C 3,3 °C 14,5 km/h (3 Bft)
29.03.2018 00:52 5,7 °C 90 % 1003,2 hPa 0,0 mm 8,0 km/h (2 Bft) W-SW 256 ° 0 min 0,000 mm 0,0 UV-I 0 W/m² 4,2 °C 4,0 °C 20,9 km/h (4 Bft)
29.03.2018 00:53 5,7 °C 90 % 1003,3 hPa 0,0 mm 17,6 km/h (3 Bft) W 262 ° 0 min 0,000 mm 0,0 UV-I 0 W/m² 4,2 °C 2,2 °C 22,5 km/h (4 Bft)
29.03.2018 00:54 5,7 °C 90 % 1003,3 hPa 0,0 mm 10,8 km/h (2 Bft) W-SW 240 ° 0 min 0,000 mm 0,0 UV-I 0 W/m² 4,2 °C 3,3 °C 16,1 km/h (3 Bft)
29.03.2018 00:55 5,7 °C 90 % 1003,3 hPa 0,0 mm 14,8 km/h (3 Bft) W 263 ° 0 min 0,000 mm 0,0 UV-I 0 W/m² 4,2 °C 2,6 °C 22,5 km/h (4 Bft)
29.03.2018 00:56 5,6 °C 90 % 1003,3 hPa 0,0 mm 12,1 km/h (2 Bft) W-SW 251 ° 0 min 0,000 mm 0,0 UV-I 0 W/m² 4,1 °C 3,0 °C 17,7 km/h (3 Bft)
29.03.2018 00:57 5,6 °C 90 % 1003,4 hPa 0,0 mm 10,1 km/h (2 Bft) W-SW 255 ° 0 min 0,000 mm 0,0 UV-I 0 W/m² 4,1 °C 3,4 °C 14,5 km/h (3 Bft)
29.03.2018 00:58 5,6 °C 91 % 1003,4 hPa 0,0 mm 13,5 km/h (3 Bft) W-SW 250 ° 0 min 0,000 mm 0,0 UV-I 0 W/m² 4,2 °C 2,7 °C 17,7 km/h (3 Bft)
29.03.2018 00:59 5,6 °C 91 % 1003,4 hPa 0,0 mm 10,9 km/h (2 Bft) W-NW 284 ° 0 min 0,000 mm 0,0 UV-I 0 W/m² 4,2 °C 3,2 °C 16,1 km/h (3 Bft)
29.03.2018 01:00 5,6 °C 91 % 1003,3 hPa 0,0 mm 10,7 km/h (2 Bft) W 271 ° 0 min 0,025 mm 0,0 UV-I 0 W/m² 4,2 °C 3,2 °C 16,1 km/h (3 Bft)
29.03.2018 01:01 5,6 °C 91 % 1003,4 hPa 0,0 mm 10,5 km/h (2 Bft) SW 231 ° 0 min 0,000 mm 0,0 UV-I 0 W/m² 4,2 °C 3,3 °C 14,5 km/h (3 Bft)
29.03.2018 01:02 5,6 °C 91 % 1003,4 hPa 0,2 mm 12,5 km/h (3 Bft) W 259 ° 0 min 0,000 mm 0,0 UV-I 0 W/m² 4,2 °C 2,9 °C 17,7 km/h (3 Bft)
29.03.2018 01:03 5,6 °C 91 % 1003,4 hPa 0,0 mm 13,7 km/h (3 Bft) W-SW 250 ° 0 min 0,000 mm 0,0 UV-I 0 W/m² 4,2 °C 2,7 °C 19,3 km/h (3 Bft)
29.03.2018 01:04 5,5 °C 91 % 1003,4 hPa 0,0 mm 14,1 km/h (3 Bft) W-SW 255 ° 0 min 0,000 mm 0,0 UV-I 0 W/m² 4,2 °C 2,5 °C 19,3 km/h (3 Bft)
29.03.2018 01:05 5,6 °C 91 % 1003,4 hPa 0,0 mm 10,5 km/h (2 Bft) W-SW 257 ° 0 min 0,000 mm 0,0 UV-I 0 W/m² 4,2 °C 3,3 °C 16,1 km/h (3 Bft)
29.03.2018 01:06 5,5 °C 91 % 1003,4 hPa 0,0 mm 12,0 km/h (2 Bft) W-SW 245 ° 0 min 0,000 mm 0,0 UV-I 0 W/m² 4,2 °C 2,9 °C 22,5 km/h (4 Bft)
29.03.2018 01:07 5,5 °C 91 % 1003,4 hPa 0,0 mm 10,1 km/h (2 Bft) W 265 ° 0 min 0,000 mm 0,0 UV-I 0 W/m² 4,2 °C 3,2 °C 19,3 km/h (3 Bft)
29.03.2018 01:08 5,5 °C 91 % 1003,4 hPa 0,0 mm 7,0 km/h (2 Bft) W 271 ° 0 min 0,000 mm 0,0 UV-I 0 W/m² 4,2 °C 4,0 °C 12,9 km/h (3 Bft)
29.03.2018 01:09 5,5 °C 91 % 1003,4 hPa 0,0 mm 15,6 km/h (3 Bft) W 265 ° 0 min 0,000 mm 0,0 UV-I 0 W/m² 4,2 °C 2,3 °C 20,9 km/h (4 Bft)
29.03.2018 01:10 5,5 °C 91 % 1003,4 hPa 0,0 mm 14,4 km/h (3 Bft) W 263 ° 0 min 0,000 mm 0,0 UV-I 0 W/m² 4,2 °C 2,5 °C 17,7 km/h (3 Bft)
29.03.2018 01:11 5,5 °C 91 % 1003,4 hPa 0,0 mm 11,7 km/h (2 Bft) W-SW 248 ° 0 min 0,000 mm 0,0 UV-I 0 W/m² 4,2 °C 2,9 °C 17,7 km/h (3 Bft)
29.03.2018 01:12 5,5 °C 91 % 1003,4 hPa 0,0 mm 10,1 km/h (2 Bft) W 277 ° 0 min 0,000 mm 0,0 UV-I 0 W/m² 4,2 °C 3,2 °C 16,1 km/h (3 Bft)
29.03.2018 01:13 5,5 °C 91 % 1003,4 hPa 0,0 mm 9,3 km/h (2 Bft) SW 218 ° 0 min 0,000 mm 0,0 UV-I 0 W/m² 4,2 °C 3,4 °C 14,5 km/h (3 Bft)
29.03.2018 01:14 5,5 °C 91 % 1003,4 hPa 0,0 mm 16,4 km/h (3 Bft) W 267 ° 0 min 0,000 mm 0,0 UV-I 0 W/m² 4,2 °C 2,2 °C 20,9 km/h (4 Bft)
29.03.2018 01:15 5,4 °C 91 % 1003,4 hPa 0,0 mm 11,6 km/h (2 Bft) W 271 ° 0 min 0,000 mm 0,0 UV-I 0 W/m² 4,1 °C 2,8 °C 17,7 km/h (3 Bft)
29.03.2018 01:16 5,5 °C 91 % 1003,4 hPa 0,0 mm 13,1 km/h (3 Bft) W 267 ° 0 min 0,000 mm 0,0 UV-I 0 W/m² 4,2 °C 2,7 °C 16,1 km/h (3 Bft)
29.03.2018 01:17 5,5 °C 91 % 1003,5 hPa 0,2 mm 10,2 km/h (2 Bft) W-SW 238 ° 0 min 0,000 mm 0,0 UV-I 0 W/m² 4,2 °C 3,2 °C 17,7 km/h (3 Bft)
29.03.2018 01:18 5,5 °C 91 % 1003,5 hPa 0,0 mm 12,1 km/h (2 Bft) NW 306 ° 0 min 0,000 mm 0,0 UV-I 0 W/m² 4,2 °C 2,8 °C 19,3 km/h (3 Bft)
29.03.2018 01:19 5,5 °C 91 % 1003,4 hPa 0,0 mm 14,1 km/h (3 Bft) W-SW 250 ° 0 min 0,000 mm 0,0 UV-I 0 W/m² 4,2 °C 2,5 °C 19,3 km/h (3 Bft)
29.03.2018 01:20 5,4 °C 91 % 1003,3 hPa 0,0 mm 20,0 km/h (4 Bft) W 277 ° 0 min 0,000 mm 0,0 UV-I 0 W/m² 4,1 °C 1,6 °C 32,2 km/h (5 Bft)
29.03.2018 01:21 5,5 °C 91 % 1003,4 hPa 0,0 mm 16,0 km/h (3 Bft) W 275 ° 0 min 0,000 mm 0,0 UV-I 0 W/m² 4,2 °C 2,2 °C 25,7 km/h (4 Bft)
29.03.2018 01:22 5,5 °C 91 % 1003,4 hPa 0,0 mm 19,5 km/h (3 Bft) W-SW 240 ° 0 min 0,000 mm 0,0 UV-I 0 W/m² 4,2 °C 1,8 °C 27,4 km/h (4 Bft)
29.03.2018 01:23 5,5 °C 91 % 1003,4 hPa 0,0 mm 14,6 km/h (3 Bft) W-SW 251 ° 0 min 0,000 mm 0,0 UV-I 0 W/m² 4,2 °C 2,4 °C 25,7 km/h (4 Bft)
29.03.2018 01:24 5,5 °C 91 % 1003,4 hPa 0,0 mm 14,8 km/h (3 Bft) NW 316 ° 0 min 0,000 mm 0,0 UV-I 0 W/m² 4,2 °C 2,4 °C 22,5 km/h (4 Bft)
29.03.2018 01:25 5,5 °C 91 % 1003,4 hPa 0,0 mm 20,3 km/h (4 Bft) W-NW 284 ° 0 min 0,000 mm 0,0 UV-I 0 W/m² 4,2 °C 1,7 °C 27,4 km/h (4 Bft)
29.03.2018 01:26 5,5 °C 91 % 1003,5 hPa 0,0 mm 19,0 km/h (3 Bft) W-SW 246 ° 0 min 0,000 mm 0,0 UV-I 0 W/m² 4,2 °C 1,8 °C 24,1 km/h (4 Bft)
29.03.2018 01:27 5,5 °C 91 % 1003,5 hPa 0,0 mm 20,3 km/h (4 Bft) W 273 ° 0 min 0,000 mm 0,0 UV-I 0 W/m² 4,2 °C 1,7 °C 30,6 km/h (5 Bft)
29.03.2018 01:28 5,5 °C 90 % 1003,3 hPa 0,0 mm 14,5 km/h (3 Bft) W-SW 251 ° 0 min 0,000 mm 0,0 UV-I 0 W/m² 4,0 °C 2,4 °C 17,7 km/h (3 Bft)
29.03.2018 01:29 5,5 °C 90 % 1003,3 hPa 0,0 mm 16,1 km/h (3 Bft) W-SW 244 ° 0 min 0,000 mm 0,0 UV-I 0 W/m² 4,0 °C 2,2 °C 25,7 km/h (4 Bft)
29.03.2018 01:30 5,5 °C 90 % 1003,4 hPa 0,0 mm 14,7 km/h (3 Bft) W 266 ° 0 min 0,000 mm 0,0 UV-I 0 W/m² 4,0 °C 2,4 °C 20,9 km/h (4 Bft)
29.03.2018 01:31 5,4 °C 90 % 1003,3 hPa 0,0 mm 11,0 km/h (2 Bft) W 262 ° 0 min 0,000 mm 0,0 UV-I 0 W/m² 3,9 °C 2,9 °C 17,7 km/h (3 Bft)
29.03.2018 01:32 5,4 °C 90 % 1003,3 hPa 0,0 mm 17,3 km/h (3 Bft) W 263 ° 0 min 0,000 mm 0,0 UV-I 0 W/m² 3,9 °C 1,9 °C 27,4 km/h (4 Bft)
29.03.2018 01:33 5,4 °C 90 % 1003,2 hPa 0,0 mm 16,8 km/h (3 Bft) W 259 ° 0 min 0,000 mm 0,0 UV-I 0 W/m² 3,9 °C 2,0 °C 24,1 km/h (4 Bft)
29.03.2018 01:34 5,4 °C 90 % 1003,3 hPa 0,2 mm 16,4 km/h (3 Bft) NW 310 ° 0 min 0,000 mm 0,0 UV-I 0 W/m² 3,9 °C 2,0 °C 25,7 km/h (4 Bft)
29.03.2018 01:35 5,4 °C 90 % 1003,3 hPa 0,0 mm 18,8 km/h (3 Bft) W-SW 254 ° 0 min 0,000 mm 0,0 UV-I 0 W/m² 3,9 °C 1,7 °C 24,1 km/h (4 Bft)
29.03.2018 01:36 5,4 °C 90 % 1003,3 hPa 0,0 mm 15,1 km/h (3 Bft) W-SW 256 ° 0 min 0,000 mm 0,0 UV-I 0 W/m² 3,9 °C 2,2 °C 22,5 km/h (4 Bft)
29.03.2018 01:37 5,4 °C 90 % 1003,4 hPa 0,0 mm 14,3 km/h (3 Bft) W-SW 248 ° 0 min 0,000 mm 0,0 UV-I 0 W/m² 3,9 °C 2,4 °C 20,9 km/h (4 Bft)
29.03.2018 01:38 5,4 °C 90 % 1003,4 hPa 0,0 mm 15,9 km/h (3 Bft) W-SW 252 ° 0 min 0,000 mm 0,0 UV-I 0 W/m² 3,9 °C 2,1 °C 22,5 km/h (4 Bft)
29.03.2018 01:39 5,4 °C 90 % 1003,5 hPa 0,0 mm 16,4 km/h (3 Bft) W-SW 257 ° 0 min 0,000 mm 0,0 UV-I 0 W/m² 3,9 °C 2,0 °C 20,9 km/h (4 Bft)
29.03.2018 01:40 5,3 °C 90 % 1003,5 hPa 0,0 mm 10,3 km/h (2 Bft) W 271 ° 0 min 0,000 mm 0,0 UV-I 0 W/m² 3,8 °C 3,0 °C 19,3 km/h (3 Bft)
29.03.2018 01:41 5,3 °C 90 % 1003,5 hPa 0,0 mm 11,6 km/h (2 Bft) W 275 ° 0 min 0,000 mm 0,0 UV-I 0 W/m² 3,8 °C 2,7 °C 17,7 km/h (3 Bft)
29.03.2018 01:42 5,3 °C 90 % 1003,5 hPa 0,0 mm 11,9 km/h (2 Bft) W-SW 238 ° 0 min 0,000 mm 0,0 UV-I 0 W/m² 3,8 °C 2,6 °C 17,7 km/h (3 Bft)
29.03.2018 01:43 5,3 °C 90 % 1003,5 hPa 0,0 mm 8,0 km/h (2 Bft) W-SW 244 ° 0 min 0,000 mm 0,0 UV-I 0 W/m² 3,8 °C 3,5 °C 16,1 km/h (3 Bft)
29.03.2018 01:44 5,4 °C 90 % 1003,4 hPa 0,0 mm 11,8 km/h (2 Bft) W 264 ° 0 min 0,000 mm 0,0 UV-I 0 W/m² 3,9 °C 2,8 °C 16,1 km/h (3 Bft)
29.03.2018 01:45 5,3 °C 90 % 1003,4 hPa 0,0 mm 14,6 km/h (3 Bft) S-SW 202 ° 0 min 0,000 mm 0,0 UV-I 0 W/m² 3,8 °C 2,2 °C 22,5 km/h (4 Bft)
29.03.2018 01:46 5,3 °C 90 % 1003,5 hPa 0,0 mm 9,2 km/h (2 Bft) W 260 ° 0 min 0,000 mm 0,0 UV-I 0 W/m² 3,8 °C 3,2 °C 12,9 km/h (3 Bft)
29.03.2018 01:47 5,3 °C 90 % 1003,5 hPa 0,0 mm 9,0 km/h (2 Bft) W-SW 250 ° 0 min 0,000 mm 0,0 UV-I 0 W/m² 3,8 °C 3,2 °C 12,9 km/h (3 Bft)
29.03.2018 01:48 5,3 °C 90 % 1003,4 hPa 0,0 mm 11,1 km/h (2 Bft) W-SW 256 ° 0 min 0,000 mm 0,0 UV-I 0 W/m² 3,8 °C 2,8 °C 16,1 km/h (3 Bft)
29.03.2018 01:49 5,3 °C 90 % 1003,5 hPa 0,0 mm 12,1 km/h (2 Bft) W-SW 258 ° 0 min 0,000 mm 0,0 UV-I 0 W/m² 3,8 °C 2,6 °C 16,1 km/h (3 Bft)
29.03.2018 01:50 5,3 °C 91 % 1003,6 hPa 0,0 mm 9,7 km/h (2 Bft) W 263 ° 0 min 0,000 mm 0,0 UV-I 0 W/m² 4,0 °C 3,1 °C 16,1 km/h (3 Bft)
29.03.2018 01:51 5,2 °C 91 % 1003,5 hPa 0,0 mm 10,9 km/h (2 Bft) W-SW 251 ° 0 min 0,000 mm 0,0 UV-I 0 W/m² 3,9 °C 2,7 °C 19,3 km/h (3 Bft)
29.03.2018 01:52 5,2 °C 91 % 1003,6 hPa 0,0 mm 10,0 km/h (2 Bft) W-SW 250 ° 0 min 0,000 mm 0,0 UV-I 0 W/m² 3,9 °C 2,9 °C 14,5 km/h (3 Bft)
29.03.2018 01:53 5,2 °C 91 % 1003,5 hPa 0,0 mm 9,3 km/h (2 Bft) W 273 ° 0 min 0,000 mm 0,0 UV-I 0 W/m² 3,9 °C 3,1 °C 16,1 km/h (3 Bft)
29.03.2018 01:54 5,2 °C 91 % 1003,5 hPa 0,0 mm 7,3 km/h (2 Bft) SW 230 ° 0 min 0,000 mm 0,0 UV-I 0 W/m² 3,9 °C 3,6 °C 12,9 km/h (3 Bft)
29.03.2018 01:55 5,2 °C 91 % 1003,6 hPa 0,0 mm 12,5 km/h (3 Bft) W-SW 243 ° 0 min 0,000 mm 0,0 UV-I 0 W/m² 3,9 °C 2,4 °C 19,3 km/h (3 Bft)
29.03.2018 01:56 5,2 °C 91 % 1003,6 hPa 0,0 mm 12,8 km/h (3 Bft) W 260 ° 0 min 0,000 mm 0,0 UV-I 0 W/m² 3,9 °C 2,4 °C 17,7 km/h (3 Bft)
29.03.2018 01:57 5,2 °C 91 % 1003,6 hPa 0,2 mm 7,0 km/h (2 Bft) W-SW 240 ° 0 min 0,000 mm 0,0 UV-I 0 W/m² 3,9 °C 3,6 °C 11,3 km/h (2 Bft)
29.03.2018 01:58 5,2 °C 91 % 1003,5 hPa 0,0 mm 8,4 km/h (2 Bft) W 265 ° 0 min 0,000 mm 0,0 UV-I 0 W/m² 3,9 °C 3,3 °C 19,3 km/h (3 Bft)
29.03.2018 01:59 5,2 °C 91 % 1003,6 hPa 0,0 mm 12,6 km/h (3 Bft) W 265 ° 0 min 0,000 mm 0,0 UV-I 0 W/m² 3,9 °C 2,4 °C 19,3 km/h (3 Bft)
29.03.2018 02:00 5,2 °C 91 % 1003,6 hPa 0,0 mm 21,7 km/h (4 Bft) W-NW 284 ° 0 min 0,026 mm 0,0 UV-I 0 W/m² 3,9 °C 1,1 °C 38,6 km/h (5 Bft)
29.03.2018 02:01 5,2 °C 91 % 1003,6 hPa 0,0 mm 14,1 km/h (3 Bft) W 266 ° 0 min 0,000 mm 0,0 UV-I 0 W/m² 3,9 °C 2,1 °C 20,9 km/h (4 Bft)
29.03.2018 02:02 5,2 °C 91 % 1003,6 hPa 0,0 mm 13,0 km/h (3 Bft) W 261 ° 0 min 0,000 mm 0,0 UV-I 0 W/m² 3,9 °C 2,3 °C 17,7 km/h (3 Bft)
29.03.2018 02:03 5,2 °C 91 % 1003,5 hPa 0,0 mm 14,0 km/h (3 Bft) SW 219 ° 0 min 0,000 mm 0,0 UV-I 0 W/m² 3,9 °C 2,2 °C 20,9 km/h (4 Bft)
29.03.2018 02:04 5,2 °C 91 % 1003,6 hPa 0,0 mm 12,0 km/h (2 Bft) W 276 ° 0 min 0,000 mm 0,0 UV-I 0 W/m² 3,9 °C 2,5 °C 20,9 km/h (4 Bft)
29.03.2018 02:05 5,2 °C 91 % 1003,5 hPa 0,0 mm 16,1 km/h (3 Bft) W 276 ° 0 min 0,000 mm 0,0 UV-I 0 W/m² 3,9 °C 1,8 °C 24,1 km/h (4 Bft)
29.03.2018 02:06 5,2 °C 91 % 1003,5 hPa 0,0 mm 15,4 km/h (3 Bft) W 262 ° 0 min 0,000 mm 0,0 UV-I 0 W/m² 3,9 °C 1,9 °C 17,7 km/h (3 Bft)
29.03.2018 02:07 5,2 °C 91 % 1003,6 hPa 0,0 mm 12,0 km/h (2 Bft) W 278 ° 0 min 0,000 mm 0,0 UV-I 0 W/m² 3,9 °C 2,5 °C 16,1 km/h (3 Bft)
29.03.2018 02:08 5,2 °C 91 % 1003,6 hPa 0,0 mm 15,8 km/h (3 Bft) W-SW 242 ° 0 min 0,000 mm 0,0 UV-I 0 W/m² 3,9 °C 1,9 °C 24,1 km/h (4 Bft)
29.03.2018 02:09 5,2 °C 91 % 1003,5 hPa 0,0 mm 12,9 km/h (3 Bft) W-NW 296 ° 0 min 0,000 mm 0,0 UV-I 0 W/m² 3,9 °C 2,3 °C 20,9 km/h (4 Bft)
29.03.2018 02:10 5,2 °C 91 % 1003,5 hPa 0,0 mm 10,9 km/h (2 Bft) S-SW 202 ° 0 min 0,000 mm 0,0 UV-I 0 W/m² 3,9 °C 2,7 °C 14,5 km/h (3 Bft)
29.03.2018 02:11 5,2 °C 91 % 1003,6 hPa 0,0 mm 10,6 km/h (2 Bft) W 268 ° 0 min 0,000 mm 0,0 UV-I 0 W/m² 3,9 °C 2,8 °C 14,5 km/h (3 Bft)
29.03.2018 02:12 5,2 °C 91 % 1003,5 hPa 0,0 mm 12,5 km/h (3 Bft) W 259 ° 0 min 0,000 mm 0,0 UV-I 0 W/m² 3,9 °C 2,4 °C 19,3 km/h (3 Bft)
29.03.2018 02:13 5,2 °C 91 % 1003,6 hPa 0,0 mm 12,2 km/h (2 Bft) W 261 ° 0 min 0,000 mm 0,0 UV-I 0 W/m² 3,9 °C 2,5 °C 16,1 km/h (3 Bft)
29.03.2018 02:14 5,2 °C 91 % 1003,6 hPa 0,0 mm 13,3 km/h (3 Bft) W-SW 244 ° 0 min 0,000 mm 0,0 UV-I 0 W/m² 3,9 °C 2,3 °C 20,9 km/h (4 Bft)
29.03.2018 02:15 5,2 °C 90 % 1003,6 hPa 0,0 mm 16,4 km/h (3 Bft) W 270 ° 0 min 0,000 mm 0,0 UV-I 0 W/m² 3,7 °C 1,8 °C 27,4 km/h (4 Bft)
29.03.2018 02:16 5,2 °C 91 % 1003,6 hPa 0,0 mm 12,6 km/h (3 Bft) W 281 ° 0 min 0,000 mm 0,0 UV-I 0 W/m² 3,9 °C 2,4 °C 17,7 km/h (3 Bft)
29.03.2018 02:17 5,2 °C 91 % 1003,6 hPa 0,0 mm 12,0 km/h (2 Bft) W-SW 245 ° 0 min 0,000 mm 0,0 UV-I 0 W/m² 3,9 °C 2,5 °C 16,1 km/h (3 Bft)
29.03.2018 02:18 5,2 °C 91 % 1003,6 hPa 0,0 mm 6,5 km/h (2 Bft) SW 217 ° 0 min 0,000 mm 0,0 UV-I 0 W/m² 3,9 °C 3,8 °C 11,3 km/h (2 Bft)
29.03.2018 02:19 5,2 °C 91 % 1003,6 hPa 0,0 mm 7,8 km/h (2 Bft) W-SW 255 ° 0 min 0,000 mm 0,0 UV-I 0 W/m² 3,9 °C 3,4 °C 14,5 km/h (3 Bft)
29.03.2018 02:20 5,2 °C 91 % 1003,6 hPa 0,0 mm 14,4 km/h (3 Bft) W 259 ° 0 min 0,000 mm 0,0 UV-I 0 W/m² 3,9 °C 2,1 °C 24,1 km/h (4 Bft)
29.03.2018 02:21 5,2 °C 91 % 1003,6 hPa 0,0 mm 10,2 km/h (2 Bft) W 261 ° 0 min 0,000 mm 0,0 UV-I 0 W/m² 3,9 °C 2,9 °C 12,9 km/h (3 Bft)
29.03.2018 02:22 5,1 °C 91 % 1003,6 hPa 0,0 mm 10,2 km/h (2 Bft) W 259 ° 0 min 0,000 mm 0,0 UV-I 0 W/m² 3,8 °C 2,7 °C 14,5 km/h (3 Bft)
29.03.2018 02:23 5,2 °C 91 % 1003,7 hPa 0,0 mm 16,4 km/h (3 Bft) W-NW 289 ° 0 min 0,000 mm 0,0 UV-I 0 W/m² 3,9 °C 1,8 °C 22,5 km/h (4 Bft)
29.03.2018 02:24 5,1 °C 91 % 1003,7 hPa 0,0 mm 10,8 km/h (2 Bft) W 279 ° 0 min 0,000 mm 0,0 UV-I 0 W/m² 3,8 °C 2,6 °C 20,9 km/h (4 Bft)
29.03.2018 02:25 5,2 °C 91 % 1003,6 hPa 0,0 mm 6,8 km/h (2 Bft) W 265 ° 0 min 0,000 mm 0,0 UV-I 0 W/m² 3,9 °C 3,7 °C 11,3 km/h (2 Bft)
29.03.2018 02:26 5,1 °C 91 % 1003,7 hPa 0,2 mm 6,4 km/h (2 Bft) W-NW 285 ° 0 min 0,000 mm 0,0 UV-I 0 W/m² 3,8 °C 3,7 °C 9,7 km/h (2 Bft)
29.03.2018 02:27 5,1 °C 91 % 1003,7 hPa 0,0 mm 6,8 km/h (2 Bft) W 275 ° 0 min 0,000 mm 0,0 UV-I 0 W/m² 3,8 °C 3,6 °C 11,3 km/h (2 Bft)
29.03.2018 02:28 5,1 °C 91 % 1003,7 hPa 0,0 mm 11,2 km/h (2 Bft) W 268 ° 0 min 0,000 mm 0,0 UV-I 0 W/m² 3,8 °C 2,5 °C 16,1 km/h (3 Bft)
29.03.2018 02:29 5,1 °C 91 % 1003,7 hPa 0,0 mm 12,6 km/h (3 Bft) W 267 ° 0 min 0,000 mm 0,0 UV-I 0 W/m² 3,8 °C 2,3 °C 19,3 km/h (3 Bft)
29.03.2018 02:30 5,1 °C 91 % 1003,6 hPa 0,0 mm 14,0 km/h (3 Bft) W-SW 244 ° 0 min 0,000 mm 0,0 UV-I 0 W/m² 3,8 °C 2,0 °C 17,7 km/h (3 Bft)
29.03.2018 02:31 5,1 °C 91 % 1003,6 hPa 0,0 mm 12,2 km/h (2 Bft) W-SW 254 ° 0 min 0,000 mm 0,0 UV-I 0 W/m² 3,8 °C 2,3 °C 16,1 km/h (3 Bft)
29.03.2018 02:32 5,1 °C 91 % 1003,7 hPa 0,0 mm 10,5 km/h (2 Bft) W 281 ° 0 min 0,000 mm 0,0 UV-I 0 W/m² 3,8 °C 2,7 °C 17,7 km/h (3 Bft)
29.03.2018 02:33 5,1 °C 91 % 1003,7 hPa 0,0 mm 13,9 km/h (3 Bft) W 264 ° 0 min 0,000 mm 0,0 UV-I 0 W/m² 3,8 °C 2,0 °C 22,5 km/h (4 Bft)
29.03.2018 02:34 5,1 °C 91 % 1003,7 hPa 0,0 mm 16,4 km/h (3 Bft) W 271 ° 0 min 0,000 mm 0,0 UV-I 0 W/m² 3,8 °C 1,7 °C 19,3 km/h (3 Bft)
29.03.2018 02:35 5,1 °C 91 % 1003,6 hPa 0,0 mm 12,7 km/h (3 Bft) W 268 ° 0 min 0,000 mm 0,0 UV-I 0 W/m² 3,8 °C 2,3 °C 16,1 km/h (3 Bft)
29.03.2018 02:36 5,1 °C 91 % 1003,7 hPa 0,0 mm 9,5 km/h (2 Bft) W-SW 254 ° 0 min 0,000 mm 0,0 UV-I 0 W/m² 3,8 °C 2,9 °C 12,9 km/h (3 Bft)
29.03.2018 02:37 5,1 °C 91 % 1003,7 hPa 0,0 mm 8,4 km/h (2 Bft) W-SW 255 ° 0 min 0,000 mm 0,0 UV-I 0 W/m² 3,8 °C 3,1 °C 12,9 km/h (3 Bft)
29.03.2018 02:38 5,1 °C 91 % 1003,7 hPa 0,0 mm 13,2 km/h (3 Bft) W 278 ° 0 min 0,000 mm 0,0 UV-I 0 W/m² 3,8 °C 2,2 °C 17,7 km/h (3 Bft)
29.03.2018 02:39 5,1 °C 91 % 1003,7 hPa 0,0 mm 10,3 km/h (2 Bft) SW 227 ° 0 min 0,000 mm 0,0 UV-I 0 W/m² 3,8 °C 2,7 °C 14,5 km/h (3 Bft)
29.03.2018 02:40 5,1 °C 91 % 1003,7 hPa 0,0 mm 10,9 km/h (2 Bft) W 262 ° 0 min 0,000 mm 0,0 UV-I 0 W/m² 3,8 °C 2,6 °C 17,7 km/h (3 Bft)
29.03.2018 02:41 5,1 °C 91 % 1003,7 hPa 0,0 mm 10,4 km/h (2 Bft) W 259 ° 0 min 0,000 mm 0,0 UV-I 0 W/m² 3,8 °C 2,7 °C 17,7 km/h (3 Bft)
29.03.2018 02:42 5,1 °C 91 % 1003,6 hPa 0,0 mm 6,0 km/h (2 Bft) W 267 ° 0 min 0,000 mm 0,0 UV-I 0 W/m² 3,8 °C 3,8 °C 11,3 km/h (2 Bft)
29.03.2018 02:43 5,1 °C 91 % 1003,7 hPa 0,0 mm 8,7 km/h (2 Bft) W 267 ° 0 min 0,000 mm 0,0 UV-I 0 W/m² 3,8 °C 3,1 °C 14,5 km/h (3 Bft)
29.03.2018 02:44 5,1 °C 91 % 1003,7 hPa 0,0 mm 12,1 km/h (2 Bft) W 265 ° 0 min 0,000 mm 0,0 UV-I 0 W/m² 3,8 °C 2,4 °C 16,1 km/h (3 Bft)
29.03.2018 02:45 5,1 °C 91 % 1003,7 hPa 0,2 mm 7,1 km/h (2 Bft) W 259 ° 0 min 0,000 mm 0,0 UV-I 0 W/m² 3,8 °C 3,5 °C 11,3 km/h (2 Bft)
29.03.2018 02:46 5,1 °C 91 % 1003,8 hPa 0,0 mm 9,1 km/h (2 Bft) W-SW 248 ° 0 min 0,000 mm 0,0 UV-I 0 W/m² 3,8 °C 3,0 °C 14,5 km/h (3 Bft)
29.03.2018 02:47 5,1 °C 91 % 1003,8 hPa 0,0 mm 6,6 km/h (2 Bft) W 273 ° 0 min 0,000 mm 0,0 UV-I 0 W/m² 3,8 °C 3,6 °C 11,3 km/h (2 Bft)
29.03.2018 02:48 5,0 °C 92 % 1003,8 hPa 0,0 mm 11,3 km/h (2 Bft) W 259 ° 0 min 0,000 mm 0,0 UV-I 0 W/m² 3,8 °C 2,4 °C 16,1 km/h (3 Bft)
29.03.2018 02:49 5,0 °C 92 % 1003,8 hPa 0,0 mm 9,4 km/h (2 Bft) W-SW 254 ° 0 min 0,000 mm 0,0 UV-I 0 W/m² 3,8 °C 2,8 °C 12,9 km/h (3 Bft)
29.03.2018 02:50 5,0 °C 92 % 1003,8 hPa 0,0 mm 9,6 km/h (2 Bft) W 271 ° 0 min 0,000 mm 0,0 UV-I 0 W/m² 3,8 °C 2,7 °C 14,5 km/h (3 Bft)
29.03.2018 02:51 5,0 °C 91 % 1003,8 hPa 0,0 mm 8,7 km/h (2 Bft) W 275 ° 0 min 0,000 mm 0,0 UV-I 0 W/m² 3,7 °C 3,0 °C 16,1 km/h (3 Bft)
29.03.2018 02:52 4,9 °C 91 % 1003,8 hPa 0,0 mm 13,5 km/h (3 Bft) W 264 ° 0 min 0,000 mm 0,0 UV-I 0 W/m² 3,6 °C 1,9 °C 16,1 km/h (3 Bft)
29.03.2018 02:53 5,0 °C 92 % 1003,9 hPa 0,0 mm 9,3 km/h (2 Bft) W 273 ° 0 min 0,000 mm 0,0 UV-I 0 W/m² 3,8 °C 2,8 °C 11,3 km/h (2 Bft)
29.03.2018 02:54 4,9 °C 92 % 1003,9 hPa 0,0 mm 10,1 km/h (2 Bft) W-NW 298 ° 0 min 0,000 mm 0,0 UV-I 0 W/m² 3,7 °C 2,5 °C 12,9 km/h (3 Bft)
29.03.2018 02:55 5,0 °C 92 % 1003,9 hPa 0,0 mm 11,3 km/h (2 Bft) W 261 ° 0 min 0,000 mm 0,0 UV-I 0 W/m² 3,8 °C 2,4 °C 17,7 km/h (3 Bft)
29.03.2018 02:56 5,0 °C 92 % 1003,9 hPa 0,0 mm 12,1 km/h (2 Bft) W-SW 243 ° 0 min 0,000 mm 0,0 UV-I 0 W/m² 3,8 °C 2,2 °C 17,7 km/h (3 Bft)
29.03.2018 02:57 5,0 °C 92 % 1003,9 hPa 0,0 mm 10,4 km/h (2 Bft) W-SW 239 ° 0 min 0,000 mm 0,0 UV-I 0 W/m² 3,8 °C 2,6 °C 16,1 km/h (3 Bft)
29.03.2018 02:58 5,0 °C 92 % 1003,9 hPa 0,2 mm 8,6 km/h (2 Bft) W-SW 241 ° 0 min 0,000 mm 0,0 UV-I 0 W/m² 3,8 °C 3,0 °C 12,9 km/h (3 Bft)
29.03.2018 02:59 5,0 °C 92 % 1003,8 hPa 0,0 mm 8,2 km/h (2 Bft) W-SW 241 ° 0 min 0,000 mm 0,0 UV-I 0 W/m² 3,8 °C 3,1 °C 12,9 km/h (3 Bft)
29.03.2018 03:00 5,0 °C 92 % 1003,9 hPa 0,0 mm 4,0 km/h (1 Bft) W-SW 254 ° 0 min 0,000 mm 0,0 UV-I 0 W/m² 3,8 °C 5,0 °C 4,8 km/h (1 Bft)
29.03.2018 03:01 5,0 °C 92 % 1003,8 hPa 0,0 mm 9,5 km/h (2 Bft) W-NW 288 ° 0 min 0,000 mm 0,0 UV-I 0 W/m² 3,8 °C 2,8 °C 12,9 km/h (3 Bft)
29.03.2018 03:02 5,0 °C 92 % 1003,9 hPa 0,0 mm 7,6 km/h (2 Bft) W-SW 254 ° 0 min 0,000 mm 0,0 UV-I 0 W/m² 3,8 °C 3,2 °C 12,9 km/h (3 Bft)
29.03.2018 03:03 5,0 °C 92 % 1003,9 hPa 0,0 mm 7,6 km/h (2 Bft) W-SW 248 ° 0 min 0,000 mm 0,0 UV-I 0 W/m² 3,8 °C 3,2 °C 12,9 km/h (3 Bft)
29.03.2018 03:04 4,9 °C 92 % 1003,9 hPa 0,0 mm 3,4 km/h (1 Bft) W-SW 257 ° 0 min 0,000 mm 0,0 UV-I 0 W/m² 3,7 °C 4,9 °C 4,8 km/h (1 Bft)
29.03.2018 03:05 5,0 °C 92 % 1004,0 hPa 0,0 mm 6,2 km/h (2 Bft) W-SW 254 ° 0 min 0,000 mm 0,0 UV-I 0 W/m² 3,8 °C 3,7 °C 16,1 km/h (3 Bft)
29.03.2018 03:06 4,9 °C 92 % 1004,0 hPa 0,0 mm 8,8 km/h (2 Bft) W 268 ° 0 min 0,000 mm 0,0 UV-I 0 W/m² 3,7 °C 2,8 °C 12,9 km/h (3 Bft)
29.03.2018 03:07 4,9 °C 92 % 1004,0 hPa 0,2 mm 6,9 km/h (2 Bft) W-SW 257 ° 0 min 0,000 mm 0,0 UV-I 0 W/m² 3,7 °C 3,3 °C 11,3 km/h (2 Bft)
29.03.2018 03:08 5,0 °C 92 % 1004,0 hPa 0,0 mm 7,0 km/h (2 Bft) W 281 ° 0 min 0,000 mm 0,0 UV-I 0 W/m² 3,8 °C 3,4 °C 11,3 km/h (2 Bft)
29.03.2018 03:09 4,9 °C 92 % 1004,0 hPa 0,0 mm 4,8 km/h (1 Bft) W 262 ° 0 min 0,000 mm 0,0 UV-I 0 W/m² 3,7 °C 4,0 °C 6,4 km/h (2 Bft)
29.03.2018 03:10 4,9 °C 92 % 1004,0 hPa 0,0 mm 4,5 km/h (1 Bft) W-NW 290 ° 0 min 0,000 mm 0,0 UV-I 0 W/m² 3,7 °C 4,9 °C 6,4 km/h (2 Bft)
29.03.2018 03:11 4,9 °C 92 % 1004,0 hPa 0,0 mm 4,0 km/h (1 Bft) W 279 ° 0 min 0,000 mm 0,0 UV-I 0 W/m² 3,7 °C 4,9 °C 6,4 km/h (2 Bft)
29.03.2018 03:12 4,9 °C 92 % 1004,1 hPa 0,0 mm 4,3 km/h (1 Bft) W-NW 288 ° 0 min 0,000 mm 0,0 UV-I 0 W/m² 3,7 °C 4,9 °C 6,4 km/h (2 Bft)
29.03.2018 03:13 4,9 °C 92 % 1004,1 hPa 0,0 mm 4,2 km/h (1 Bft) W-NW 284 ° 0 min 0,000 mm 0,0 UV-I 0 W/m² 3,7 °C 4,9 °C 6,4 km/h (2 Bft)
29.03.2018 03:14 4,9 °C 92 % 1004,1 hPa 0,0 mm 5,5 km/h (1 Bft) W 274 ° 0 min 0,000 mm 0,0 UV-I 0 W/m² 3,7 °C 3,8 °C 8,0 km/h (2 Bft)
29.03.2018 03:15 4,9 °C 92 % 1004,1 hPa 0,0 mm 6,0 km/h (2 Bft) NW 309 ° 0 min 0,000 mm 0,0 UV-I 0 W/m² 3,7 °C 3,6 °C 11,3 km/h (2 Bft)
29.03.2018 03:16 5,0 °C 92 % 1004,1 hPa 0,2 mm 5,0 km/h (1 Bft) W 266 ° 0 min 0,000 mm 0,0 UV-I 0 W/m² 3,8 °C 4,1 °C 9,7 km/h (2 Bft)
29.03.2018 03:17 4,9 °C 92 % 1004,1 hPa 0,0 mm 5,9 km/h (2 Bft) NW 304 ° 0 min 0,000 mm 0,0 UV-I 0 W/m² 3,7 °C 3,6 °C 11,3 km/h (2 Bft)
29.03.2018 03:18 5,0 °C 92 % 1004,1 hPa 0,0 mm 4,8 km/h (1 Bft) W 277 ° 0 min 0,000 mm 0,0 UV-I 0 W/m² 3,8 °C 4,2 °C 6,4 km/h (2 Bft)
29.03.2018 03:19 5,0 °C 92 % 1004,2 hPa 0,0 mm 4,4 km/h (1 Bft) W 267 ° 0 min 0,000 mm 0,0 UV-I 0 W/m² 3,8 °C 5,0 °C 4,8 km/h (1 Bft)
29.03.2018 03:20 5,0 °C 92 % 1004,2 hPa 0,0 mm 5,2 km/h (1 Bft) W 263 ° 0 min 0,000 mm 0,0 UV-I 0 W/m² 3,8 °C 4,0 °C 9,7 km/h (2 Bft)
29.03.2018 03:21 5,1 °C 92 % 1004,2 hPa 0,0 mm 9,4 km/h (2 Bft) SW 220 ° 0 min 0,000 mm 0,0 UV-I 0 W/m² 3,9 °C 2,9 °C 16,1 km/h (3 Bft)
29.03.2018 03:22 5,0 °C 92 % 1004,2 hPa 0,0 mm 11,5 km/h (2 Bft) W-NW 286 ° 0 min 0,000 mm 0,0 UV-I 0 W/m² 3,8 °C 2,4 °C 16,1 km/h (3 Bft)
29.03.2018 03:23 5,0 °C 92 % 1004,3 hPa 0,2 mm 8,4 km/h (2 Bft) W 274 ° 0 min 0,000 mm 0,0 UV-I 0 W/m² 3,8 °C 3,0 °C 11,3 km/h (2 Bft)
29.03.2018 03:24 5,0 °C 92 % 1004,2 hPa 0,0 mm 7,2 km/h (2 Bft) W 279 ° 0 min 0,000 mm 0,0 UV-I 0 W/m² 3,8 °C 3,4 °C 16,1 km/h (3 Bft)
29.03.2018 03:25 5,0 °C 92 % 1004,2 hPa 0,0 mm 13,6 km/h (3 Bft) W 271 ° 0 min 0,000 mm 0,0 UV-I 0 W/m² 3,8 °C 2,0 °C 17,7 km/h (3 Bft)
29.03.2018 03:26 5,1 °C 92 % 1004,3 hPa 0,0 mm 15,0 km/h (3 Bft) W 275 ° 0 min 0,000 mm 0,0 UV-I 0 W/m² 3,9 °C 1,9 °C 25,7 km/h (4 Bft)
29.03.2018 03:27 5,0 °C 92 % 1004,3 hPa 0,0 mm 22,7 km/h (4 Bft) W 271 ° 0 min 0,000 mm 0,0 UV-I 0 W/m² 3,8 °C 0,8 °C 32,2 km/h (5 Bft)
29.03.2018 03:28 4,9 °C 92 % 1004,3 hPa 0,0 mm 15,5 km/h (3 Bft) W 261 ° 0 min 0,000 mm 0,0 UV-I 0 W/m² 3,7 °C 1,5 °C 27,4 km/h (4 Bft)
29.03.2018 03:29 4,9 °C 92 % 1004,4 hPa 0,0 mm 22,2 km/h (4 Bft) W-SW 258 ° 0 min 0,000 mm 0,0 UV-I 0 W/m² 3,7 °C 0,7 °C 29,0 km/h (5 Bft)
29.03.2018 03:30 4,9 °C 91 % 1004,4 hPa 0,2 mm 15,4 km/h (3 Bft) W-NW 285 ° 0 min 0,000 mm 0,0 UV-I 0 W/m² 3,6 °C 1,6 °C 20,9 km/h (4 Bft)
29.03.2018 03:31 4,9 °C 91 % 1004,5 hPa 0,0 mm 13,4 km/h (3 Bft) W-NW 284 ° 0 min 0,000 mm 0,0 UV-I 0 W/m² 3,6 °C 1,9 °C 20,9 km/h (4 Bft)
29.03.2018 03:32 4,8 °C 91 % 1004,5 hPa 0,0 mm 14,8 km/h (3 Bft) W-NW 282 ° 0 min 0,000 mm 0,0 UV-I 0 W/m² 3,5 °C 1,5 °C 20,9 km/h (4 Bft)
29.03.2018 03:33 4,8 °C 91 % 1004,5 hPa 0,0 mm 13,4 km/h (3 Bft) W-NW 297 ° 0 min 0,000 mm 0,0 UV-I 0 W/m² 3,5 °C 1,8 °C 19,3 km/h (3 Bft)
29.03.2018 03:34 4,7 °C 91 % 1004,6 hPa 0,0 mm 11,9 km/h (2 Bft) W-NW 284 ° 0 min 0,000 mm 0,0 UV-I 0 W/m² 3,4 °C 1,9 °C 19,3 km/h (3 Bft)
29.03.2018 03:35 4,7 °C 91 % 1004,5 hPa 0,0 mm 20,9 km/h (4 Bft) SW 222 ° 0 min 0,000 mm 0,0 UV-I 0 W/m² 3,4 °C 0,6 °C 27,4 km/h (4 Bft)
29.03.2018 03:36 4,6 °C 91 % 1004,6 hPa 0,2 mm 21,8 km/h (4 Bft) W-NW 286 ° 0 min 0,000 mm 0,0 UV-I 0 W/m² 3,3 °C 0,3 °C 29,0 km/h (5 Bft)
29.03.2018 03:37 4,6 °C 91 % 1004,6 hPa 0,0 mm 19,6 km/h (3 Bft) W-SW 249 ° 0 min 0,000 mm 0,0 UV-I 0 W/m² 3,3 °C 0,6 °C 25,7 km/h (4 Bft)
29.03.2018 03:38 4,4 °C 91 % 1004,6 hPa 0,0 mm 23,9 km/h (4 Bft) W 261 ° 0 min 0,000 mm 0,0 UV-I 0 W/m² 3,1 °C -0,1 °C 32,2 km/h (5 Bft)
29.03.2018 03:39 4,3 °C 90 % 1004,7 hPa 0,0 mm 20,1 km/h (4 Bft) W 269 ° 0 min 0,000 mm 0,0 UV-I 0 W/m² 2,8 °C 0,2 °C 33,8 km/h (5 Bft)
29.03.2018 03:40 4,3 °C 90 % 1004,7 hPa 0,0 mm 16,3 km/h (3 Bft) NW 304 ° 0 min 0,000 mm 0,0 UV-I 0 W/m² 2,8 °C 0,7 °C 27,4 km/h (4 Bft)
29.03.2018 03:41 4,3 °C 90 % 1004,6 hPa 0,0 mm 21,1 km/h (4 Bft) W 265 ° 0 min 0,000 mm 0,0 UV-I 0 W/m² 2,8 °C 0,0 °C 29,0 km/h (5 Bft)
29.03.2018 03:42 4,2 °C 90 % 1004,7 hPa 0,0 mm 15,6 km/h (3 Bft) W 265 ° 0 min 0,000 mm 0,0 UV-I 0 W/m² 2,7 °C 0,7 °C 22,5 km/h (4 Bft)
29.03.2018 03:43 4,2 °C 90 % 1004,7 hPa 0,0 mm 17,9 km/h (3 Bft) NW 304 ° 0 min 0,000 mm 0,0 UV-I 0 W/m² 2,7 °C 0,3 °C 24,1 km/h (4 Bft)
29.03.2018 03:44 4,1 °C 90 % 1004,6 hPa 0,2 mm 11,6 km/h (2 Bft) W 281 ° 0 min 0,000 mm 0,0 UV-I 0 W/m² 2,6 °C 1,2 °C 17,7 km/h (3 Bft)
29.03.2018 03:45 4,1 °C 90 % 1004,6 hPa 0,0 mm 15,6 km/h (3 Bft) W 259 ° 0 min 0,000 mm 0,0 UV-I 0 W/m² 2,6 °C 0,5 °C 24,1 km/h (4 Bft)
29.03.2018 03:46 4,0 °C 90 % 1004,6 hPa 0,0 mm 15,8 km/h (3 Bft) W 279 ° 0 min 0,000 mm 0,0 UV-I 0 W/m² 2,5 °C 0,4 °C 22,5 km/h (4 Bft)
29.03.2018 03:47 4,0 °C 90 % 1004,6 hPa 0,0 mm 12,1 km/h (2 Bft) W 265 ° 0 min 0,000 mm 0,0 UV-I 0 W/m² 2,5 °C 1,0 °C 19,3 km/h (3 Bft)
29.03.2018 03:48 3,9 °C 91 % 1004,7 hPa 0,0 mm 16,2 km/h (3 Bft) W-SW 254 ° 0 min 0,000 mm 0,0 UV-I 0 W/m² 2,6 °C 0,2 °C 20,9 km/h (4 Bft)
29.03.2018 03:49 3,9 °C 91 % 1004,7 hPa 0,0 mm 20,4 km/h (4 Bft) W 269 ° 0 min 0,000 mm 0,0 UV-I 0 W/m² 2,6 °C -0,4 °C 27,4 km/h (4 Bft)
29.03.2018 03:50 3,9 °C 91 % 1004,7 hPa 0,0 mm 18,2 km/h (3 Bft) W-SW 238 ° 0 min 0,000 mm 0,0 UV-I 0 W/m² 2,6 °C -0,1 °C 24,1 km/h (4 Bft)
29.03.2018 03:51 3,8 °C 91 % 1004,7 hPa 0,0 mm 19,5 km/h (3 Bft) W-NW 292 ° 0 min 0,000 mm 0,0 UV-I 0 W/m² 2,5 °C -0,4 °C 25,7 km/h (4 Bft)
29.03.2018 03:52 3,8 °C 91 % 1004,7 hPa 0,2 mm 10,2 km/h (2 Bft) SW 230 ° 0 min 0,000 mm 0,0 UV-I 0 W/m² 2,5 °C 1,2 °C 16,1 km/h (3 Bft)
29.03.2018 03:53 3,8 °C 91 % 1004,7 hPa 0,0 mm 14,7 km/h (3 Bft) W-SW 257 ° 0 min 0,000 mm 0,0 UV-I 0 W/m² 2,5 °C 0,3 °C 20,9 km/h (4 Bft)
29.03.2018 03:54 3,8 °C 91 % 1004,7 hPa 0,0 mm 19,5 km/h (3 Bft) W 275 ° 0 min 0,000 mm 0,0 UV-I 0 W/m² 2,5 °C -0,4 °C 29,0 km/h (5 Bft)
29.03.2018 03:55 3,8 °C 91 % 1004,7 hPa 0,0 mm 11,5 km/h (2 Bft) SW 232 ° 0 min 0,000 mm 0,0 UV-I 0 W/m² 2,5 °C 0,9 °C 20,9 km/h (4 Bft)
29.03.2018 03:56 3,7 °C 91 % 1004,7 hPa 0,0 mm 13,9 km/h (3 Bft) W-SW 252 ° 0 min 0,000 mm 0,0 UV-I 0 W/m² 2,4 °C 0,3 °C 19,3 km/h (3 Bft)
29.03.2018 03:57 3,7 °C 91 % 1004,7 hPa 0,0 mm 16,0 km/h (3 Bft) W 269 ° 0 min 0,000 mm 0,0 UV-I 0 W/m² 2,4 °C -0,0 °C 20,9 km/h (4 Bft)
29.03.2018 03:58 3,7 °C 91 % 1004,7 hPa 0,0 mm 16,5 km/h (3 Bft) W 279 ° 0 min 0,000 mm 0,0 UV-I 0 W/m² 2,4 °C -0,1 °C 22,5 km/h (4 Bft)
29.03.2018 03:59 3,6 °C 91 % 1004,8 hPa 0,0 mm 14,1 km/h (3 Bft) W-SW 257 ° 0 min 0,000 mm 0,0 UV-I 0 W/m² 2,3 °C 0,2 °C 24,1 km/h (4 Bft)
29.03.2018 04:00 3,6 °C 91 % 1004,8 hPa 0,0 mm 15,4 km/h (3 Bft) W 271 ° 0 min 0,000 mm 0,0 UV-I 0 W/m² 2,3 °C -0,0 °C 24,1 km/h (4 Bft)
29.03.2018 04:01 3,6 °C 91 % 1004,7 hPa 0,2 mm 12,9 km/h (3 Bft) W 274 ° 0 min 0,000 mm 0,0 UV-I 0 W/m² 2,3 °C 0,4 °C 17,7 km/h (3 Bft)
29.03.2018 04:02 3,6 °C 91 % 1004,7 hPa 0,0 mm 11,3 km/h (2 Bft) W-SW 257 ° 0 min 0,000 mm 0,0 UV-I 0 W/m² 2,3 °C 0,7 °C 17,7 km/h (3 Bft)
29.03.2018 04:03 3,6 °C 91 % 1004,7 hPa 0,0 mm 10,8 km/h (2 Bft) W-SW 239 ° 0 min 0,000 mm 0,0 UV-I 0 W/m² 2,3 °C 0,8 °C 17,7 km/h (3 Bft)
29.03.2018 04:04 3,5 °C 91 % 1004,8 hPa 0,0 mm 12,5 km/h (3 Bft) W-SW 255 ° 0 min 0,000 mm 0,0 UV-I 0 W/m² 2,2 °C 0,3 °C 17,7 km/h (3 Bft)
29.03.2018 04:05 3,5 °C 91 % 1004,7 hPa 0,0 mm 13,7 km/h (3 Bft) W 277 ° 0 min 0,000 mm 0,0 UV-I 0 W/m² 2,2 °C 0,1 °C 20,9 km/h (4 Bft)
29.03.2018 04:06 3,4 °C 91 % 1004,8 hPa 0,0 mm 14,2 km/h (3 Bft) W 263 ° 0 min 0,000 mm 0,0 UV-I 0 W/m² 2,1 °C -0,1 °C 25,7 km/h (4 Bft)
29.03.2018 04:07 3,4 °C 91 % 1004,8 hPa 0,0 mm 14,1 km/h (3 Bft) W 273 ° 0 min 0,000 mm 0,0 UV-I 0 W/m² 2,1 °C -0,1 °C 24,1 km/h (4 Bft)
29.03.2018 04:08 3,4 °C 91 % 1004,8 hPa 0,0 mm 10,5 km/h (2 Bft) W 272 ° 0 min 0,000 mm 0,0 UV-I 0 W/m² 2,1 °C 0,6 °C 14,5 km/h (3 Bft)
29.03.2018 04:09 3,4 °C 91 % 1004,8 hPa 0,2 mm 9,5 km/h (2 Bft) SW 219 ° 0 min 0,000 mm 0,0 UV-I 0 W/m² 2,1 °C 0,9 °C 14,5 km/h (3 Bft)
29.03.2018 04:10 3,4 °C 91 % 1004,8 hPa 0,0 mm 8,6 km/h (2 Bft) W-SW 244 ° 0 min 0,000 mm 0,0 UV-I 0 W/m² 2,1 °C 1,1 °C 19,3 km/h (3 Bft)
29.03.2018 04:11 3,3 °C 91 % 1004,8 hPa 0,0 mm 13,1 km/h (3 Bft) W 271 ° 0 min 0,000 mm 0,0 UV-I 0 W/m² 2,0 °C -0,0 °C 17,7 km/h (3 Bft)
29.03.2018 04:12 3,3 °C 91 % 1004,9 hPa 0,0 mm 16,4 km/h (3 Bft) W 261 ° 0 min 0,000 mm 0,0 UV-I 0 W/m² 2,0 °C -0,6 °C 29,0 km/h (5 Bft)
29.03.2018 04:13 3,3 °C 91 % 1004,8 hPa 0,0 mm 18,6 km/h (3 Bft) W-SW 252 ° 0 min 0,000 mm 0,0 UV-I 0 W/m² 2,0 °C -0,9 °C 25,7 km/h (4 Bft)
29.03.2018 04:14 3,3 °C 91 % 1004,9 hPa 0,0 mm 13,7 km/h (3 Bft) W-SW 256 ° 0 min 0,000 mm 0,0 UV-I 0 W/m² 2,0 °C -0,1 °C 17,7 km/h (3 Bft)
29.03.2018 04:15 3,3 °C 91 % 1004,8 hPa 0,0 mm 8,9 km/h (2 Bft) W 271 ° 0 min 0,000 mm 0,0 UV-I 0 W/m² 2,0 °C 0,9 °C 16,1 km/h (3 Bft)
29.03.2018 04:16 3,2 °C 91 % 1004,8 hPa 0,0 mm 10,3 km/h (2 Bft) W-SW 244 ° 0 min 0,000 mm 0,0 UV-I 0 W/m² 1,9 °C 0,4 °C 14,5 km/h (3 Bft)
29.03.2018 04:17 3,2 °C 91 % 1004,8 hPa 0,0 mm 7,6 km/h (2 Bft) W-SW 243 ° 0 min 0,000 mm 0,0 UV-I 0 W/m² 1,9 °C 1,1 °C 11,3 km/h (2 Bft)
29.03.2018 04:18 3,2 °C 91 % 1004,8 hPa 0,2 mm 8,3 km/h (2 Bft) S-SW 210 ° 0 min 0,000 mm 0,0 UV-I 0 W/m² 1,9 °C 0,9 °C 14,5 km/h (3 Bft)
29.03.2018 04:19 3,2 °C 92 % 1004,9 hPa 0,0 mm 9,3 km/h (2 Bft) SW 235 ° 0 min 0,000 mm 0,0 UV-I 0 W/m² 2,0 °C 0,7 °C 16,1 km/h (3 Bft)
29.03.2018 04:20 3,2 °C 92 % 1004,9 hPa 0,0 mm 14,9 km/h (3 Bft) W-NW 295 ° 0 min 0,000 mm 0,0 UV-I 0 W/m² 2,0 °C -0,5 °C 20,9 km/h (4 Bft)
29.03.2018 04:21 3,2 °C 92 % 1004,8 hPa 0,0 mm 13,5 km/h (3 Bft) W-NW 282 ° 0 min 0,000 mm 0,0 UV-I 0 W/m² 2,0 °C -0,2 °C 16,1 km/h (3 Bft)
29.03.2018 04:22 3,2 °C 92 % 1004,9 hPa 0,0 mm 11,5 km/h (2 Bft) SW 232 ° 0 min 0,000 mm 0,0 UV-I 0 W/m² 2,0 °C 0,2 °C 16,1 km/h (3 Bft)
29.03.2018 04:23 3,2 °C 92 % 1004,9 hPa 0,0 mm 8,3 km/h (2 Bft) W-SW 244 ° 0 min 0,000 mm 0,0 UV-I 0 W/m² 2,0 °C 0,9 °C 12,9 km/h (3 Bft)
29.03.2018 04:24 3,2 °C 92 % 1004,9 hPa 0,0 mm 7,6 km/h (2 Bft) W-SW 256 ° 0 min 0,000 mm 0,0 UV-I 0 W/m² 2,0 °C 1,1 °C 12,9 km/h (3 Bft)
29.03.2018 04:25 3,1 °C 92 % 1004,9 hPa 0,2 mm 9,1 km/h (2 Bft) W-SW 244 ° 0 min 0,000 mm 0,0 UV-I 0 W/m² 1,9 °C 0,6 °C 17,7 km/h (3 Bft)
29.03.2018 04:26 3,2 °C 92 % 1004,9 hPa 0,0 mm 11,0 km/h (2 Bft) SW 234 ° 0 min 0,000 mm 0,0 UV-I 0 W/m² 2,0 °C 0,3 °C 16,1 km/h (3 Bft)
29.03.2018 04:27 3,1 °C 92 % 1004,9 hPa 0,0 mm 9,0 km/h (2 Bft) W 264 ° 0 min 0,000 mm 0,0 UV-I 0 W/m² 1,9 °C 0,6 °C 19,3 km/h (3 Bft)
29.03.2018 04:28 3,1 °C 92 % 1004,9 hPa 0,0 mm 17,1 km/h (3 Bft) W-SW 244 ° 0 min 0,000 mm 0,0 UV-I 0 W/m² 1,9 °C -0,9 °C 22,5 km/h (4 Bft)
29.03.2018 04:29 3,1 °C 92 % 1004,9 hPa 0,0 mm 13,1 km/h (3 Bft) W 265 ° 0 min 0,000 mm 0,0 UV-I 0 W/m² 1,9 °C -0,3 °C 17,7 km/h (3 Bft)
29.03.2018 04:30 3,1 °C 92 % 1004,9 hPa 0,0 mm 11,0 km/h (2 Bft) W 270 ° 0 min 0,000 mm 0,0 UV-I 0 W/m² 1,9 °C 0,2 °C 17,7 km/h (3 Bft)
29.03.2018 04:31 3,1 °C 92 % 1004,9 hPa 0,0 mm 12,1 km/h (2 Bft) W-NW 301 ° 0 min 0,000 mm 0,0 UV-I 0 W/m² 1,9 °C -0,1 °C 20,9 km/h (4 Bft)
29.03.2018 04:32 3,1 °C 92 % 1004,9 hPa 0,0 mm 11,8 km/h (2 Bft) W-NW 282 ° 0 min 0,000 mm 0,0 UV-I 0 W/m² 1,9 °C -0,0 °C 17,7 km/h (3 Bft)
29.03.2018 04:33 3,1 °C 92 % 1004,9 hPa 0,0 mm 7,6 km/h (2 Bft) S-SW 211 ° 0 min 0,000 mm 0,0 UV-I 0 W/m² 1,9 °C 1,0 °C 11,3 km/h (2 Bft)
29.03.2018 04:34 3,1 °C 92 % 1004,9 hPa 0,0 mm 8,2 km/h (2 Bft) W-SW 251 ° 0 min 0,000 mm 0,0 UV-I 0 W/m² 1,9 °C 0,8 °C 11,3 km/h (2 Bft)
29.03.2018 04:35 3,1 °C 92 % 1004,9 hPa 0,2 mm 6,9 km/h (2 Bft) SW 224 ° 0 min 0,000 mm 0,0 UV-I 0 W/m² 1,9 °C 1,2 °C 11,3 km/h (2 Bft)
29.03.2018 04:36 3,1 °C 92 % 1005,0 hPa 0,0 mm 4,4 km/h (1 Bft) W 271 ° 0 min 0,000 mm 0,0 UV-I 0 W/m² 1,9 °C 3,1 °C 6,4 km/h (2 Bft)
29.03.2018 04:37 3,1 °C 92 % 1005,0 hPa 0,0 mm 11,3 km/h (2 Bft) W-SW 258 ° 0 min 0,000 mm 0,0 UV-I 0 W/m² 1,9 °C 0,1 °C 16,1 km/h (3 Bft)
29.03.2018 04:38 3,1 °C 92 % 1004,9 hPa 0,0 mm 10,2 km/h (2 Bft) W-SW 250 ° 0 min 0,000 mm 0,0 UV-I 0 W/m² 1,9 °C 0,3 °C 17,7 km/h (3 Bft)
29.03.2018 04:39 3,1 °C 92 % 1004,9 hPa 0,0 mm 12,2 km/h (2 Bft) W-NW 286 ° 0 min 0,000 mm 0,0 UV-I 0 W/m² 1,9 °C -0,1 °C 20,9 km/h (4 Bft)
29.03.2018 04:40 3,1 °C 92 % 1004,9 hPa 0,0 mm 9,9 km/h (2 Bft) W-SW 256 ° 0 min 0,000 mm 0,0 UV-I 0 W/m² 1,9 °C 0,4 °C 16,1 km/h (3 Bft)
29.03.2018 04:41 3,1 °C 92 % 1005,0 hPa 0,0 mm 9,3 km/h (2 Bft) W-SW 249 ° 0 min 0,000 mm 0,0 UV-I 0 W/m² 1,9 °C 0,6 °C 14,5 km/h (3 Bft)
29.03.2018 04:42 3,1 °C 92 % 1005,0 hPa 0,0 mm 9,1 km/h (2 Bft) W-SW 256 ° 0 min 0,000 mm 0,0 UV-I 0 W/m² 1,9 °C 0,6 °C 12,9 km/h (3 Bft)
29.03.2018 04:43 3,1 °C 92 % 1004,9 hPa 0,0 mm 7,2 km/h (2 Bft) S 186 ° 0 min 0,000 mm 0,0 UV-I 0 W/m² 1,9 °C 1,1 °C 11,3 km/h (2 Bft)
29.03.2018 04:44 3,1 °C 92 % 1005,0 hPa 0,0 mm 8,6 km/h (2 Bft) W 270 ° 0 min 0,000 mm 0,0 UV-I 0 W/m² 1,9 °C 0,7 °C 14,5 km/h (3 Bft)
29.03.2018 04:45 3,1 °C 92 % 1005,0 hPa 0,2 mm 7,1 km/h (2 Bft) W 262 ° 0 min 0,000 mm 0,0 UV-I 0 W/m² 1,9 °C 1,2 °C 11,3 km/h (2 Bft)
29.03.2018 04:46 3,1 °C 92 % 1005,0 hPa 0,0 mm 8,2 km/h (2 Bft) W 271 ° 0 min 0,000 mm 0,0 UV-I 0 W/m² 1,9 °C 0,8 °C 12,9 km/h (3 Bft)
29.03.2018 04:47 3,1 °C 92 % 1005,0 hPa 0,0 mm 5,8 km/h (2 Bft) W 271 ° 0 min 0,000 mm 0,0 UV-I 0 W/m² 1,9 °C 1,6 °C 11,3 km/h (2 Bft)
29.03.2018 04:48 3,1 °C 92 % 1004,9 hPa 0,0 mm 12,4 km/h (3 Bft) W-SW 255 ° 0 min 0,000 mm 0,0 UV-I 0 W/m² 1,9 °C -0,1 °C 16,1 km/h (3 Bft)
29.03.2018 04:49 3,1 °C 92 % 1004,9 hPa 0,0 mm 10,1 km/h (2 Bft) W-SW 243 ° 0 min 0,000 mm 0,0 UV-I 0 W/m² 1,9 °C 0,4 °C 14,5 km/h (3 Bft)
29.03.2018 04:50 3,1 °C 92 % 1004,9 hPa 0,0 mm 10,9 km/h (2 Bft) W 261 ° 0 min 0,000 mm 0,0 UV-I 0 W/m² 1,9 °C 0,2 °C 16,1 km/h (3 Bft)
29.03.2018 04:51 3,1 °C 92 % 1005,0 hPa 0,0 mm 12,1 km/h (2 Bft) SW 227 ° 0 min 0,000 mm 0,0 UV-I 0 W/m² 1,9 °C -0,1 °C 16,1 km/h (3 Bft)
29.03.2018 04:52 3,1 °C 92 % 1005,0 hPa 0,0 mm 8,0 km/h (2 Bft) W 271 ° 0 min 0,000 mm 0,0 UV-I 0 W/m² 1,9 °C 0,9 °C 12,9 km/h (3 Bft)
29.03.2018 04:53 3,1 °C 92 % 1005,0 hPa 0,0 mm 12,1 km/h (2 Bft) W 268 ° 0 min 0,000 mm 0,0 UV-I 0 W/m² 1,9 °C -0,1 °C 14,5 km/h (3 Bft)
29.03.2018 04:54 3,1 °C 92 % 1005,0 hPa 0,0 mm 13,8 km/h (3 Bft) W 266 ° 0 min 0,000 mm 0,0 UV-I 0 W/m² 1,9 °C -0,4 °C 19,3 km/h (3 Bft)
29.03.2018 04:55 3,1 °C 92 % 1005,0 hPa 0,0 mm 12,9 km/h (3 Bft) W-SW 252 ° 0 min 0,000 mm 0,0 UV-I 0 W/m² 1,9 °C -0,2 °C 17,7 km/h (3 Bft)
29.03.2018 04:56 3,1 °C 92 % 1004,9 hPa 0,2 mm 10,2 km/h (2 Bft) W-SW 257 ° 0 min 0,000 mm 0,0 UV-I 0 W/m² 1,9 °C 0,3 °C 16,1 km/h (3 Bft)
29.03.2018 04:57 3,1 °C 92 % 1004,9 hPa 0,0 mm 9,4 km/h (2 Bft) W 265 ° 0 min 0,000 mm 0,0 UV-I 0 W/m² 1,9 °C 0,5 °C 16,1 km/h (3 Bft)
29.03.2018 04:58 3,1 °C 92 % 1005,0 hPa 0,0 mm 6,8 km/h (2 Bft) W-SW 246 ° 0 min 0,000 mm 0,0 UV-I 0 W/m² 1,9 °C 1,3 °C 12,9 km/h (3 Bft)
29.03.2018 04:59 3,1 °C 92 % 1005,0 hPa 0,0 mm 7,5 km/h (2 Bft) W-SW 254 ° 0 min 0,000 mm 0,0 UV-I 0 W/m² 1,9 °C 1,0 °C 11,3 km/h (2 Bft)
29.03.2018 05:00 3,1 °C 92 % 1005,0 hPa 0,0 mm 13,1 km/h (3 Bft) W 266 ° 0 min 0,000 mm 0,0 UV-I 0 W/m² 1,9 °C -0,3 °C 22,5 km/h (4 Bft)
29.03.2018 05:01 3,1 °C 92 % 1005,0 hPa 0,0 mm 11,3 km/h (2 Bft) W-SW 248 ° 0 min 0,000 mm 0,0 UV-I 0 W/m² 1,9 °C 0,1 °C 14,5 km/h (3 Bft)
29.03.2018 05:02 3,1 °C 92 % 1005,0 hPa 0,0 mm 12,9 km/h (3 Bft) W-SW 243 ° 0 min 0,000 mm 0,0 UV-I 0 W/m² 1,9 °C -0,2 °C 19,3 km/h (3 Bft)
29.03.2018 05:03 3,1 °C 92 % 1005,0 hPa 0,0 mm 5,3 km/h (1 Bft) W 269 ° 0 min 0,000 mm 0,0 UV-I 0 W/m² 1,9 °C 1,8 °C 9,7 km/h (2 Bft)
29.03.2018 05:04 3,1 °C 92 % 1005,0 hPa 0,0 mm 7,5 km/h (2 Bft) W-SW 253 ° 0 min 0,000 mm 0,0 UV-I 0 W/m² 1,9 °C 1,0 °C 16,1 km/h (3 Bft)
29.03.2018 05:05 3,1 °C 92 % 1005,0 hPa 0,0 mm 5,8 km/h (2 Bft) W 259 ° 0 min 0,000 mm 0,0 UV-I 0 W/m² 1,9 °C 1,6 °C 16,1 km/h (3 Bft)
29.03.2018 05:06 3,1 °C 92 % 1005,1 hPa 0,2 mm 7,8 km/h (2 Bft) W 273 ° 0 min 0,000 mm 0,0 UV-I 0 W/m² 1,9 °C 1,0 °C 12,9 km/h (3 Bft)
29.03.2018 05:07 3,1 °C 92 % 1005,1 hPa 0,0 mm 7,5 km/h (2 Bft) W-SW 257 ° 0 min 0,000 mm 0,0 UV-I 0 W/m² 1,9 °C 1,0 °C 11,3 km/h (2 Bft)
29.03.2018 05:08 3,1 °C 92 % 1005,2 hPa 0,0 mm 6,5 km/h (2 Bft) SW 227 ° 0 min 0,000 mm 0,0 UV-I 0 W/m² 1,9 °C 1,4 °C 11,3 km/h (2 Bft)
29.03.2018 05:09 3,1 °C 92 % 1005,1 hPa 0,0 mm 7,4 km/h (2 Bft) W 261 ° 0 min 0,000 mm 0,0 UV-I 0 W/m² 1,9 °C 1,1 °C 12,9 km/h (3 Bft)
29.03.2018 05:10 3,1 °C 92 % 1005,2 hPa 0,0 mm 5,9 km/h (2 Bft) W-SW 247 ° 0 min 0,000 mm 0,0 UV-I 0 W/m² 1,9 °C 1,6 °C 11,3 km/h (2 Bft)
29.03.2018 05:11 3,1 °C 92 % 1005,2 hPa 0,0 mm 8,0 km/h (2 Bft) W 269 ° 0 min 0,000 mm 0,0 UV-I 0 W/m² 1,9 °C 0,9 °C 14,5 km/h (3 Bft)
29.03.2018 05:12 3,1 °C 92 % 1005,2 hPa 0,0 mm 7,0 km/h (2 Bft) W 262 ° 0 min 0,000 mm 0,0 UV-I 0 W/m² 1,9 °C 1,2 °C 9,7 km/h (2 Bft)
29.03.2018 05:13 3,1 °C 92 % 1005,2 hPa 0,0 mm 4,3 km/h (1 Bft) W 273 ° 0 min 0,000 mm 0,0 UV-I 0 W/m² 1,9 °C 3,1 °C 11,3 km/h (2 Bft)
29.03.2018 05:14 3,2 °C 92 % 1005,2 hPa 0,0 mm 11,8 km/h (2 Bft) W 275 ° 0 min 0,000 mm 0,0 UV-I 0 W/m² 2,0 °C 0,1 °C 16,1 km/h (3 Bft)
29.03.2018 05:15 3,1 °C 92 % 1005,2 hPa 0,0 mm 9,8 km/h (2 Bft) W-NW 284 ° 0 min 0,000 mm 0,0 UV-I 0 W/m² 1,9 °C 0,4 °C 16,1 km/h (3 Bft)
29.03.2018 05:16 3,1 °C 92 % 1005,2 hPa 0,0 mm 12,1 km/h (2 Bft) W 275 ° 0 min 0,000 mm 0,0 UV-I 0 W/m² 1,9 °C -0,1 °C 17,7 km/h (3 Bft)
29.03.2018 05:17 3,1 °C 92 % 1005,2 hPa 0,0 mm 5,7 km/h (1 Bft) W-SW 250 ° 0 min 0,000 mm 0,0 UV-I 0 W/m² 1,9 °C 1,6 °C 14,5 km/h (3 Bft)
29.03.2018 05:18 3,1 °C 92 % 1005,2 hPa 0,0 mm 11,8 km/h (2 Bft) W 281 ° 0 min 0,000 mm 0,0 UV-I 0 W/m² 1,9 °C -0,0 °C 16,1 km/h (3 Bft)
29.03.2018 05:19 3,1 °C 92 % 1005,2 hPa 0,2 mm 7,4 km/h (2 Bft) W 259 ° 0 min 0,000 mm 0,0 UV-I 0 W/m² 1,9 °C 1,1 °C 11,3 km/h (2 Bft)
29.03.2018 05:20 3,1 °C 92 % 1005,2 hPa 0,0 mm 4,1 km/h (1 Bft) W 260 ° 0 min 0,000 mm 0,0 UV-I 0 W/m² 1,9 °C 3,1 °C 6,4 km/h (2 Bft)
29.03.2018 05:21 3,1 °C 92 % 1005,2 hPa 0,0 mm 9,1 km/h (2 Bft) W-SW 243 ° 0 min 0,000 mm 0,0 UV-I 0 W/m² 1,9 °C 0,6 °C 12,9 km/h (3 Bft)
29.03.2018 05:22 3,1 °C 92 % 1005,2 hPa 0,0 mm 7,5 km/h (2 Bft) W-SW 250 ° 0 min 0,000 mm 0,0 UV-I 0 W/m² 1,9 °C 1,0 °C 9,7 km/h (2 Bft)
29.03.2018 05:23 3,1 °C 92 % 1005,2 hPa 0,0 mm 5,4 km/h (1 Bft) W 263 ° 0 min 0,000 mm 0,0 UV-I 0 W/m² 1,9 °C 1,8 °C 8,0 km/h (2 Bft)
29.03.2018 05:24 3,1 °C 92 % 1005,2 hPa 0,0 mm 4,2 km/h (1 Bft) W 281 ° 0 min 0,000 mm 0,0 UV-I 0 W/m² 1,9 °C 3,1 °C 6,4 km/h (2 Bft)
29.03.2018 05:25 3,1 °C 92 % 1005,2 hPa 0,0 mm 7,4 km/h (2 Bft) W-SW 251 ° 0 min 0,000 mm 0,0 UV-I 0 W/m² 1,9 °C 1,1 °C 12,9 km/h (3 Bft)
29.03.2018 05:26 3,1 °C 92 % 1005,3 hPa 0,0 mm 9,0 km/h (2 Bft) W-SW 258 ° 0 min 0,000 mm 0,0 UV-I 0 W/m² 1,9 °C 0,6 °C 11,3 km/h (2 Bft)
29.03.2018 05:27 3,1 °C 92 % 1005,3 hPa 0,0 mm 6,6 km/h (2 Bft) W 278 ° 0 min 0,000 mm 0,0 UV-I 0 W/m² 1,9 °C 1,3 °C 11,3 km/h (2 Bft)
29.03.2018 05:28 3,1 °C 92 % 1005,3 hPa 0,0 mm 8,2 km/h (2 Bft) SW 223 ° 0 min 0,000 mm 0,0 UV-I 0 W/m² 1,9 °C 0,8 °C 12,9 km/h (3 Bft)
29.03.2018 05:29 3,1 °C 92 % 1005,3 hPa 0,0 mm 4,7 km/h (1 Bft) W 263 ° 0 min 0,000 mm 0,0 UV-I 0 W/m² 1,9 °C 2,1 °C 6,4 km/h (2 Bft)
29.03.2018 05:30 3,1 °C 92 % 1005,3 hPa 0,2 mm 4,5 km/h (1 Bft) W-SW 240 ° 0 min 0,000 mm 0,0 UV-I 0 W/m² 1,9 °C 3,1 °C 8,0 km/h (2 Bft)
29.03.2018 05:31 3,1 °C 92 % 1005,3 hPa 0,0 mm 5,0 km/h (1 Bft) W-NW 293 ° 0 min 0,000 mm 0,0 UV-I 0 W/m² 1,9 °C 1,9 °C 9,7 km/h (2 Bft)
29.03.2018 05:32 3,1 °C 92 % 1005,4 hPa 0,0 mm 5,6 km/h (1 Bft) W-NW 287 ° 0 min 0,000 mm 0,0 UV-I 0 W/m² 1,9 °C 1,7 °C 12,9 km/h (3 Bft)
29.03.2018 05:33 3,1 °C 92 % 1005,3 hPa 0,0 mm 4,5 km/h (1 Bft) W 281 ° 0 min 0,000 mm 0,0 UV-I 0 W/m² 1,9 °C 3,1 °C 9,7 km/h (2 Bft)
29.03.2018 05:34 3,1 °C 93 % 1005,3 hPa 0,0 mm 8,0 km/h (2 Bft) W-SW 251 ° 0 min 0,000 mm 0,0 UV-I 0 W/m² 2,1 °C 0,9 °C 12,9 km/h (3 Bft)
29.03.2018 05:35 3,2 °C 92 % 1005,3 hPa 0,0 mm 7,7 km/h (2 Bft) W-NW 296 ° 0 min 0,000 mm 0,0 UV-I 0 W/m² 2,0 °C 1,1 °C 17,7 km/h (3 Bft)
29.03.2018 05:36 3,1 °C 93 % 1005,3 hPa 0,0 mm 11,7 km/h (2 Bft) NW 311 ° 0 min 0,000 mm 0,0 UV-I 0 W/m² 2,1 °C 0,0 °C 16,1 km/h (3 Bft)
29.03.2018 05:37 3,2 °C 92 % 1005,3 hPa 0,0 mm 6,6 km/h (2 Bft) S-SW 202 ° 0 min 0,000 mm 0,0 UV-I 0 W/m² 2,0 °C 1,4 °C 9,7 km/h (2 Bft)
29.03.2018 05:38 3,2 °C 92 % 1005,4 hPa 0,0 mm 4,2 km/h (1 Bft) W-NW 292 ° 0 min 0,000 mm 0,0 UV-I 0 W/m² 2,0 °C 3,2 °C 8,0 km/h (2 Bft)
29.03.2018 05:39 3,2 °C 92 % 1005,4 hPa 0,0 mm 8,9 km/h (2 Bft) W 259 ° 0 min 0,000 mm 0,0 UV-I 0 W/m² 2,0 °C 0,8 °C 14,5 km/h (3 Bft)
29.03.2018 05:40 3,2 °C 92 % 1005,4 hPa 0,0 mm 9,9 km/h (2 Bft) W-SW 238 ° 0 min 0,000 mm 0,0 UV-I 0 W/m² 2,0 °C 0,5 °C 17,7 km/h (3 Bft)
29.03.2018 05:41 3,2 °C 92 % 1005,4 hPa 0,0 mm 5,4 km/h (1 Bft) SW 234 ° 0 min 0,000 mm 0,0 UV-I 0 W/m² 2,0 °C 1,9 °C 11,3 km/h (2 Bft)
29.03.2018 05:42 3,2 °C 92 % 1005,4 hPa 0,0 mm 3,6 km/h (1 Bft) W 275 ° 0 min 0,000 mm 0,0 UV-I 0 W/m² 2,0 °C 3,2 °C 6,4 km/h (2 Bft)
29.03.2018 05:43 3,2 °C 92 % 1005,4 hPa 0,0 mm 3,2 km/h (1 Bft) W-NW 290 ° 0 min 0,000 mm 0,0 UV-I 0 W/m² 2,0 °C 3,2 °C 4,8 km/h (1 Bft)
29.03.2018 05:44 3,2 °C 92 % 1005,4 hPa 0,0 mm 11,2 km/h (2 Bft) W 261 ° 0 min 0,000 mm 0,0 UV-I 0 W/m² 2,0 °C 0,2 °C 14,5 km/h (3 Bft)
29.03.2018 05:45 3,2 °C 92 % 1005,4 hPa 0,0 mm 9,7 km/h (2 Bft) SW 222 ° 0 min 0,000 mm 0,0 UV-I 0 W/m² 2,0 °C 0,6 °C 16,1 km/h (3 Bft)
29.03.2018 05:46 3,3 °C 92 % 1005,4 hPa 0,2 mm 5,5 km/h (1 Bft) W-SW 248 ° 0 min 0,000 mm 0,0 UV-I 0 W/m² 2,1 °C 2,0 °C 12,9 km/h (3 Bft)
29.03.2018 05:47 3,2 °C 92 % 1005,4 hPa 0,0 mm 13,1 km/h (3 Bft) W-NW 292 ° 0 min 0,000 mm 0,0 UV-I 0 W/m² 2,0 °C -0,1 °C 20,9 km/h (4 Bft)
29.03.2018 05:48 3,3 °C 92 % 1005,4 hPa 0,0 mm 10,6 km/h (2 Bft) W 270 ° 0 min 0,000 mm 0,0 UV-I 0 W/m² 2,1 °C 0,5 °C 17,7 km/h (3 Bft)
29.03.2018 05:49 3,3 °C 92 % 1005,4 hPa 0,0 mm 4,4 km/h (1 Bft) W-SW 244 ° 0 min 0,000 mm 0,0 UV-I 0 W/m² 2,1 °C 3,3 °C 9,7 km/h (2 Bft)
29.03.2018 05:50 3,3 °C 92 % 1005,4 hPa 0,0 mm 6,6 km/h (2 Bft) W 279 ° 0 min 0,000 mm 0,0 UV-I 0 W/m² 2,1 °C 1,6 °C 12,9 km/h (3 Bft)
29.03.2018 05:51 3,3 °C 92 % 1005,5 hPa 0,0 mm 12,7 km/h (3 Bft) W 273 ° 0 min 0,000 mm 0,0 UV-I 0 W/m² 2,1 °C 0,1 °C 19,3 km/h (3 Bft)
29.03.2018 05:52 3,3 °C 92 % 1005,5 hPa 0,0 mm 11,1 km/h (2 Bft) W 271 ° 0 min 0,000 mm 0,0 UV-I 0 W/m² 2,1 °C 0,4 °C 12,9 km/h (3 Bft)
29.03.2018 05:53 3,3 °C 92 % 1005,5 hPa 0,0 mm 9,7 km/h (2 Bft) W 268 ° 0 min 0,000 mm 0,0 UV-I 0 W/m² 2,1 °C 0,7 °C 12,9 km/h (3 Bft)
29.03.2018 05:54 3,3 °C 92 % 1005,6 hPa 0,0 mm 6,6 km/h (2 Bft) W 271 ° 0 min 0,000 mm 0,0 UV-I 0 W/m² 2,1 °C 1,6 °C 11,3 km/h (2 Bft)
29.03.2018 05:55 3,3 °C 92 % 1005,7 hPa 0,0 mm 13,9 km/h (3 Bft) W-SW 250 ° 0 min 0,000 mm 0,0 UV-I 0 W/m² 2,1 °C -0,2 °C 19,3 km/h (3 Bft)
29.03.2018 05:56 3,3 °C 92 % 1005,7 hPa 0,0 mm 12,7 km/h (3 Bft) SW 236 ° 0 min 0,000 mm 0,0 UV-I 0 W/m² 2,1 °C 0,1 °C 24,1 km/h (4 Bft)
29.03.2018 05:57 3,3 °C 92 % 1005,6 hPa 0,0 mm 10,8 km/h (2 Bft) W-SW 258 ° 0 min 0,000 mm 0,0 UV-I 0 W/m² 2,1 °C 0,4 °C 20,9 km/h (4 Bft)
29.03.2018 05:58 3,3 °C 92 % 1005,7 hPa 0,0 mm 15,3 km/h (3 Bft) W 263 ° 0 min 0,000 mm 0,0 UV-I 0 W/m² 2,1 °C -0,4 °C 20,9 km/h (4 Bft)
29.03.2018 05:59 3,3 °C 91 % 1005,7 hPa 0,0 mm 17,2 km/h (3 Bft) W 276 ° 0 min 0,000 mm 0,0 UV-I 0 W/m² 2,0 °C -0,7 °C 22,5 km/h (4 Bft)
29.03.2018 06:00 3,2 °C 91 % 1005,7 hPa 0,0 mm 12,4 km/h (3 Bft) W-SW 238 ° 0 min 0,000 mm 0,0 UV-I 0 W/m² 1,9 °C -0,0 °C 17,7 km/h (3 Bft)
29.03.2018 06:01 3,2 °C 91 % 1005,6 hPa 0,0 mm 8,7 km/h (2 Bft) W-SW 240 ° 0 min 0,000 mm 0,0 UV-I 0 W/m² 1,9 °C 0,8 °C 14,5 km/h (3 Bft)
29.03.2018 06:02 3,2 °C 91 % 1005,7 hPa 0,0 mm 5,4 km/h (1 Bft) W 267 ° 0 min 0,000 mm 0,0 UV-I 0 W/m² 1,9 °C 1,9 °C 11,3 km/h (2 Bft)
29.03.2018 06:03 3,2 °C 91 % 1005,6 hPa 0,2 mm 13,1 km/h (3 Bft) W-NW 283 ° 0 min 0,000 mm 0,0 UV-I 0 W/m² 1,9 °C -0,1 °C 22,5 km/h (4 Bft)
29.03.2018 06:04 3,2 °C 91 % 1005,7 hPa 0,0 mm 10,4 km/h (2 Bft) W 271 ° 0 min 0,000 mm 0,0 UV-I 0 W/m² 1,9 °C 0,4 °C 16,1 km/h (3 Bft)
29.03.2018 06:05 3,2 °C 91 % 1005,6 hPa 0,0 mm 15,4 km/h (3 Bft) W 261 ° 0 min 0,000 mm 0,0 UV-I 0 W/m² 1,9 °C -0,5 °C 24,1 km/h (4 Bft)
29.03.2018 06:06 3,2 °C 91 % 1005,6 hPa 0,0 mm 12,3 km/h (3 Bft) W 275 ° 0 min 0,000 mm 0,0 UV-I 0 W/m² 1,9 °C 0,0 °C 16,1 km/h (3 Bft)
29.03.2018 06:07 3,2 °C 91 % 1005,7 hPa 0,0 mm 11,5 km/h (2 Bft) W-SW 255 ° 0 min 0,000 mm 0,0 UV-I 0 W/m² 1,9 °C 0,2 °C 16,1 km/h (3 Bft)
29.03.2018 06:08 3,2 °C 91 % 1005,7 hPa 0,0 mm 8,9 km/h (2 Bft) W 278 ° 0 min 0,000 mm 0,0 UV-I 0 W/m² 1,9 °C 0,8 °C 14,5 km/h (3 Bft)
29.03.2018 06:09 3,2 °C 91 % 1005,8 hPa 0,0 mm 17,0 km/h (3 Bft) W-SW 250 ° 0 min 0,000 mm 0,0 UV-I 0 W/m² 1,9 °C -0,8 °C 24,1 km/h (4 Bft)
29.03.2018 06:10 3,1 °C 91 % 1005,7 hPa 0,0 mm 8,7 km/h (2 Bft) W 274 ° 0 min 0,000 mm 0,0 UV-I 0 W/m² 1,8 °C 0,7 °C 12,9 km/h (3 Bft)
29.03.2018 06:11 3,2 °C 91 % 1005,8 hPa 0,0 mm 7,2 km/h (2 Bft) W 281 ° 0 min 0,000 mm 0,0 UV-I 0 W/m² 1,9 °C 1,3 °C 11,3 km/h (2 Bft)
29.03.2018 06:12 3,2 °C 91 % 1005,7 hPa 0,0 mm 11,0 km/h (2 Bft) NW 309 ° 0 min 0,000 mm 0,0 UV-I 0 W/m² 1,9 °C 0,3 °C 16,1 km/h (3 Bft)
29.03.2018 06:13 3,2 °C 91 % 1005,7 hPa 0,0 mm 12,2 km/h (2 Bft) W-NW 290 ° 0 min 0,000 mm 0,0 UV-I 0 W/m² 1,9 °C 0,0 °C 19,3 km/h (3 Bft)
29.03.2018 06:14 3,2 °C 91 % 1005,7 hPa 0,0 mm 15,2 km/h (3 Bft) W-NW 291 ° 0 min 0,000 mm 0,0 UV-I 0 W/m² 1,9 °C -0,5 °C 19,3 km/h (3 Bft)
29.03.2018 06:15 3,1 °C 91 % 1005,8 hPa 0,0 mm 8,3 km/h (2 Bft) W 262 ° 0 min 0,000 mm 0,0 UV-I 0 W/m² 1,8 °C 0,8 °C 16,1 km/h (3 Bft)
29.03.2018 06:16 3,1 °C 91 % 1005,7 hPa 0,0 mm 6,4 km/h (2 Bft) W-SW 256 ° 0 min 0,000 mm 0,0 UV-I 0 W/m² 1,8 °C 1,4 °C 12,9 km/h (3 Bft)
29.03.2018 06:17 3,1 °C 91 % 1005,7 hPa 0,0 mm 10,2 km/h (2 Bft) NW 306 ° 0 min 0,000 mm 0,0 UV-I 0 W/m² 1,8 °C 0,3 °C 14,5 km/h (3 Bft)
29.03.2018 06:18 3,1 °C 91 % 1005,7 hPa 0,0 mm 10,3 km/h (2 Bft) W 268 ° 0 min 0,000 mm 0,0 UV-I 0 W/m² 1,8 °C 0,3 °C 16,1 km/h (3 Bft)
29.03.2018 06:19 3,1 °C 91 % 1005,8 hPa 0,0 mm 9,1 km/h (2 Bft) NW 309 ° 0 min 0,000 mm 0,0 UV-I 0 W/m² 1,8 °C 0,6 °C 17,7 km/h (3 Bft)
29.03.2018 06:20 3,1 °C 91 % 1005,7 hPa 0,0 mm 5,1 km/h (1 Bft) W-SW 254 ° 0 min 0,000 mm 0,0 UV-I 0 W/m² 1,8 °C 1,9 °C 11,3 km/h (2 Bft)
29.03.2018 06:21 3,1 °C 91 % 1005,8 hPa 0,0 mm 11,5 km/h (2 Bft) SW 231 ° 0 min 0,000 mm 0,0 UV-I 0 W/m² 1,8 °C 0,1 °C 17,7 km/h (3 Bft)
29.03.2018 06:22 3,1 °C 91 % 1005,8 hPa 0,0 mm 14,1 km/h (3 Bft) W 281 ° 0 min 0,000 mm 0,0 UV-I 0 W/m² 1,8 °C -0,4 °C 19,3 km/h (3 Bft)
29.03.2018 06:23 3,1 °C 91 % 1005,8 hPa 0,0 mm 10,9 km/h (2 Bft) W-NW 287 ° 0 min 0,000 mm 0,0 UV-I 0 W/m² 1,8 °C 0,2 °C 14,5 km/h (3 Bft)
29.03.2018 06:24 3,1 °C 91 % 1005,9 hPa 0,0 mm 9,7 km/h (2 Bft) W 263 ° 0 min 0,000 mm 0,0 UV-I 0 W/m² 1,8 °C 0,5 °C 14,5 km/h (3 Bft)
29.03.2018 06:25 3,1 °C 91 % 1005,9 hPa 0,0 mm 5,0 km/h (1 Bft) W 275 ° 0 min 0,000 mm 0,0 UV-I 0 W/m² 1,8 °C 1,9 °C 12,9 km/h (3 Bft)
29.03.2018 06:26 3,1 °C 91 % 1005,9 hPa 0,0 mm 4,2 km/h (1 Bft) W-SW 246 ° 0 min 0,000 mm 0,0 UV-I 0 W/m² 1,8 °C 3,1 °C 9,7 km/h (2 Bft)
29.03.2018 06:27 3,0 °C 91 % 1005,9 hPa 0,0 mm 5,3 km/h (1 Bft) W 262 ° 0 min 0,000 mm 0,0 UV-I 0 W/m² 1,7 °C 1,7 °C 6,4 km/h (2 Bft)
29.03.2018 06:28 3,0 °C 91 % 1005,8 hPa 0,0 mm 3,2 km/h (1 Bft) W 262 ° 0 min 0,000 mm 0,0 UV-I 0 W/m² 1,7 °C 3,0 °C 4,8 km/h (1 Bft)
29.03.2018 06:29 3,0 °C 91 % 1005,9 hPa 0,0 mm 5,2 km/h (1 Bft) W-NW 290 ° 0 min 0,000 mm 0,0 UV-I 0 W/m² 1,7 °C 1,7 °C 11,3 km/h (2 Bft)
29.03.2018 06:30 3,0 °C 91 % 1005,9 hPa 0,2 mm 11,7 km/h (2 Bft) W 278 ° 0 min 0,000 mm 0,0 UV-I 0 W/m² 1,7 °C -0,1 °C 16,1 km/h (3 Bft)
29.03.2018 06:31 2,9 °C 91 % 1005,9 hPa 0,0 mm 6,4 km/h (2 Bft) SW 229 ° 0 min 0,000 mm 0,0 UV-I 0 W/m² 1,6 °C 1,2 °C 9,7 km/h (2 Bft)
29.03.2018 06:32 2,9 °C 91 % 1005,9 hPa 0,0 mm 5,8 km/h (2 Bft) W 263 ° 0 min 0,000 mm 0,0 UV-I 0 W/m² 1,6 °C 1,4 °C 9,7 km/h (2 Bft)
29.03.2018 06:33 2,9 °C 91 % 1005,9 hPa 0,0 mm 6,2 km/h (2 Bft) W-NW 294 ° 0 min 0,000 mm 0,0 UV-I 0 W/m² 1,6 °C 1,2 °C 9,7 km/h (2 Bft)
29.03.2018 06:34 2,9 °C 91 % 1005,9 hPa 0,0 mm 3,6 km/h (1 Bft) W 269 ° 0 min 0,000 mm 0,0 UV-I 0 W/m² 1,6 °C 2,9 °C 4,8 km/h (1 Bft)
29.03.2018 06:35 2,9 °C 91 % 1005,9 hPa 0,0 mm 6,3 km/h (2 Bft) W-SW 248 ° 0 min 0,000 mm 0,0 UV-I 0 W/m² 1,6 °C 1,2 °C 9,7 km/h (2 Bft)
29.03.2018 06:36 2,9 °C 91 % 1005,9 hPa 0,0 mm 5,3 km/h (1 Bft) W-SW 256 ° 0 min 0,000 mm 0,0 UV-I 0 W/m² 1,6 °C 1,6 °C 9,7 km/h (2 Bft)
29.03.2018 06:37 2,9 °C 91 % 1005,9 hPa 0,0 mm 3,7 km/h (1 Bft) W 261 ° 0 min 0,000 mm 0,0 UV-I 0 W/m² 1,6 °C 2,9 °C 4,8 km/h (1 Bft)
29.03.2018 06:38 2,9 °C 91 % 1005,9 hPa 0,0 mm 4,5 km/h (1 Bft) W-SW 248 ° 0 min 0,000 mm 0,0 UV-I 0 W/m² 1,6 °C 2,9 °C 6,4 km/h (2 Bft)
29.03.2018 06:39 2,9 °C 91 % 1005,9 hPa 0,0 mm 6,4 km/h (2 Bft) W-NW 285 ° 0 min 0,000 mm 0,0 UV-I 0 W/m² 1,6 °C 1,2 °C 9,7 km/h (2 Bft)
29.03.2018 06:40 2,9 °C 91 % 1005,9 hPa 0,0 mm 6,8 km/h (2 Bft) W-NW 284 ° 0 min 0,000 mm 0,0 UV-I 0 W/m² 1,6 °C 1,0 °C 12,9 km/h (3 Bft)
29.03.2018 06:41 2,9 °C 91 % 1005,8 hPa 0,0 mm 3,8 km/h (1 Bft) W-NW 298 ° 0 min 0,000 mm 0,0 UV-I 0 W/m² 1,6 °C 2,9 °C 6,4 km/h (2 Bft)
29.03.2018 06:42 2,8 °C 91 % 1005,8 hPa 0,0 mm 1,3 km/h (1 Bft) W 266 ° 0 min 0,000 mm 0,0 UV-I 0 W/m² 1,5 °C 2,8 °C 4,8 km/h (1 Bft)
29.03.2018 06:43 2,8 °C 91 % 1005,9 hPa 0,0 mm 4,6 km/h (1 Bft) W-SW 250 ° 0 min 0,000 mm 0,0 UV-I 0 W/m² 1,5 °C 1,8 °C 6,4 km/h (2 Bft)
29.03.2018 06:44 2,8 °C 92 % 1005,9 hPa 0,0 mm 2,9 km/h (1 Bft) W 281 ° 0 min 0,000 mm 0,0 UV-I 0 W/m² 1,6 °C 2,8 °C 4,8 km/h (1 Bft)
29.03.2018 06:45 2,8 °C 92 % 1005,9 hPa 0,0 mm 2,3 km/h (1 Bft) W 281 ° 0 min 0,000 mm 0,0 UV-I 0 W/m² 1,6 °C 2,8 °C 3,2 km/h (1 Bft)
29.03.2018 06:46 2,8 °C 92 % 1005,9 hPa 0,0 mm 1,1 km/h (1 Bft) W 281 ° 0 min 0,000 mm 0,0 UV-I 0 W/m² 1,6 °C 2,8 °C 3,2 km/h (1 Bft)
29.03.2018 06:47 2,8 °C 92 % 1006,0 hPa 0,0 mm 3,0 km/h (1 Bft) W 277 ° 0 min 0,000 mm 0,0 UV-I 0 W/m² 1,6 °C 2,8 °C 4,8 km/h (1 Bft)
29.03.2018 06:48 2,8 °C 92 % 1006,0 hPa 0,0 mm 2,3 km/h (1 Bft) W 278 ° 0 min 0,000 mm 0,0 UV-I 0 W/m² 1,6 °C 2,8 °C 4,8 km/h (1 Bft)
29.03.2018 06:49 2,8 °C 92 % 1006,0 hPa 0,0 mm 3,2 km/h (1 Bft) W 262 ° 0 min 0,000 mm 0,0 UV-I 0 W/m² 1,6 °C 2,8 °C 6,4 km/h (2 Bft)
29.03.2018 06:50 2,8 °C 92 % 1006,0 hPa 0,0 mm 3,0 km/h (1 Bft) W 261 ° 0 min 0,000 mm 0,0 UV-I 0 W/m² 1,6 °C 2,8 °C 6,4 km/h (2 Bft)
29.03.2018 06:51 2,8 °C 92 % 1006,0 hPa 0,0 mm 0,5 km/h (0 Bft) W-SW 249 ° 0 min 0,000 mm 0,0 UV-I 0 W/m² 1,6 °C 2,8 °C 3,2 km/h (1 Bft)
29.03.2018 06:52 2,8 °C 92 % 1006,0 hPa 0,2 mm 3,9 km/h (1 Bft) W 263 ° 0 min 0,000 mm 0,0 UV-I 0 W/m² 1,6 °C 2,8 °C 6,4 km/h (2 Bft)
29.03.2018 06:53 2,8 °C 92 % 1006,0 hPa 0,0 mm 2,1 km/h (1 Bft) W 263 ° 0 min 0,000 mm 0,0 UV-I 0 W/m² 1,6 °C 2,8 °C 3,2 km/h (1 Bft)
29.03.2018 06:54 2,8 °C 92 % 1006,0 hPa 0,0 mm 1,6 km/h (1 Bft) SW 232 ° 0 min 0,000 mm 0,0 UV-I 0 W/m² 1,6 °C 2,8 °C 4,8 km/h (1 Bft)
29.03.2018 06:55 2,8 °C 92 % 1005,9 hPa 0,0 mm 5,3 km/h (1 Bft) W-SW 246 ° 0 min 0,000 mm 0,0 UV-I 0 W/m² 1,6 °C 1,5 °C 9,7 km/h (2 Bft)
29.03.2018 06:56 2,7 °C 92 % 1006,0 hPa 0,0 mm 5,5 km/h (1 Bft) W-SW 245 ° 0 min 0,000 mm 0,0 UV-I 0 W/m² 1,5 °C 1,3 °C 9,7 km/h (2 Bft)
29.03.2018 06:57 2,7 °C 92 % 1006,0 hPa 0,0 mm 3,5 km/h (1 Bft) W-SW 252 ° 0 min 0,000 mm 0,0 UV-I 0 W/m² 1,5 °C 2,7 °C 4,8 km/h (1 Bft)
29.03.2018 06:58 2,7 °C 92 % 1006,0 hPa 0,0 mm 3,1 km/h (1 Bft) W-SW 258 ° 0 min 0,000 mm 0,0 UV-I 0 W/m² 1,5 °C 2,7 °C 6,4 km/h (2 Bft)
29.03.2018 06:59 2,7 °C 92 % 1006,0 hPa 0,0 mm 2,3 km/h (1 Bft) W 279 ° 0 min 0,000 mm 0,0 UV-I 0 W/m² 1,5 °C 2,7 °C 4,8 km/h (1 Bft)
29.03.2018 07:00 2,7 °C 92 % 1006,0 hPa 0,0 mm 4,4 km/h (1 Bft) W 276 ° 0 min 0,000 mm 0,0 UV-I 0 W/m² 1,5 °C 2,7 °C 11,3 km/h (2 Bft)
29.03.2018 07:01 2,7 °C 92 % 1006,0 hPa 0,0 mm 5,2 km/h (1 Bft) W-SW 256 ° 0 min 0,000 mm 0,0 UV-I 0 W/m² 1,5 °C 1,4 °C 11,3 km/h (2 Bft)
29.03.2018 07:02 2,7 °C 92 % 1006,1 hPa 0,0 mm 8,6 km/h (2 Bft) W-NW 284 ° 0 min 0,000 mm 0,0 UV-I 0 W/m² 1,5 °C 0,3 °C 12,9 km/h (3 Bft)
29.03.2018 07:03 2,7 °C 92 % 1006,1 hPa 0,0 mm 5,9 km/h (2 Bft) W 281 ° 0 min 0,000 mm 0,0 UV-I 0 W/m² 1,5 °C 1,1 °C 11,3 km/h (2 Bft)
29.03.2018 07:04 2,7 °C 92 % 1006,1 hPa 0,0 mm 5,2 km/h (1 Bft) W-SW 248 ° 0 min 0,000 mm 0,0 UV-I 0 W/m² 1,5 °C 1,4 °C 6,4 km/h (2 Bft)
29.03.2018 07:05 2,7 °C 92 % 1006,1 hPa 0,0 mm 3,4 km/h (1 Bft) S-SW 207 ° 0 min 0,000 mm 0,0 UV-I 0 W/m² 1,5 °C 2,7 °C 6,4 km/h (2 Bft)
29.03.2018 07:06 2,7 °C 92 % 1006,1 hPa 0,0 mm 1,9 km/h (1 Bft) S-SW 207 ° 0 min 0,000 mm 0,0 UV-I 0 W/m² 1,5 °C 2,7 °C 4,8 km/h (1 Bft)
29.03.2018 07:07 2,7 °C 92 % 1006,1 hPa 0,0 mm 3,8 km/h (1 Bft) S-SW 204 ° 0 min 0,000 mm 0,0 UV-I 0 W/m² 1,5 °C 2,7 °C 6,4 km/h (2 Bft)
29.03.2018 07:08 2,7 °C 92 % 1006,1 hPa 0,0 mm 4,0 km/h (1 Bft) W 264 ° 0 min 0,000 mm 0,0 UV-I 0 W/m² 1,5 °C 2,7 °C 6,4 km/h (2 Bft)
29.03.2018 07:09 2,6 °C 92 % 1006,1 hPa 0,0 mm 3,2 km/h (1 Bft) SW 221 ° 0 min 0,000 mm 0,0 UV-I 0 W/m² 1,4 °C 2,6 °C 4,8 km/h (1 Bft)
29.03.2018 07:10 2,7 °C 92 % 1006,0 hPa 0,0 mm 3,8 km/h (1 Bft) W-NW 302 ° 0 min 0,000 mm 0,0 UV-I 0 W/m² 1,5 °C 2,7 °C 6,4 km/h (2 Bft)
29.03.2018 07:11 2,6 °C 92 % 1006,0 hPa 0,0 mm 1,0 km/h (0 Bft) W-NW 301 ° 0 min 0,000 mm 0,0 UV-I 0 W/m² 1,4 °C 2,6 °C 3,2 km/h (1 Bft)
29.03.2018 07:12 2,6 °C 92 % 1006,0 hPa 0,0 mm 1,5 km/h (1 Bft) W-NW 301 ° 0 min 0,000 mm 0,0 UV-I 0 W/m² 1,4 °C 2,6 °C 3,2 km/h (1 Bft)
29.03.2018 07:13 2,6 °C 92 % 1006,0 hPa 0,0 mm 1,0 km/h (0 Bft) W-SW 238 ° 0 min 0,000 mm 0,0 UV-I 0 W/m² 1,4 °C 2,6 °C 3,2 km/h (1 Bft)
29.03.2018 07:14 2,6 °C 92 % 1006,0 hPa 0,2 mm 2,7 km/h (1 Bft) SW 233 ° 0 min 0,000 mm 0,0 UV-I 0 W/m² 1,4 °C 2,6 °C 4,8 km/h (1 Bft)
29.03.2018 07:15 2,6 °C 92 % 1006,0 hPa 0,0 mm 4,8 km/h (1 Bft) S-SW 202 ° 0 min 0,000 mm 0,0 UV-I 0 W/m² 1,4 °C 1,4 °C 9,7 km/h (2 Bft)
29.03.2018 07:16 2,6 °C 92 % 1006,1 hPa 0,0 mm 3,8 km/h (1 Bft) S-SW 202 ° 0 min 0,000 mm 0,0 UV-I 5 W/m² 1,4 °C 2,6 °C 6,4 km/h (2 Bft)
29.03.2018 07:17 2,6 °C 92 % 1006,1 hPa 0,0 mm 2,3 km/h (1 Bft) S-SW 202 ° 0 min 0,000 mm 0,0 UV-I 5 W/m² 1,4 °C 2,6 °C 6,4 km/h (2 Bft)
29.03.2018 07:18 2,6 °C 92 % 1006,1 hPa 0,0 mm 0,0 km/h (0 Bft) S-SW 202 ° 0 min 0,000 mm 0,0 UV-I 5 W/m² 1,4 °C 2,6 °C 0,0 km/h (0 Bft)
29.03.2018 07:19 2,6 °C 92 % 1006,1 hPa 0,0 mm 0,0 km/h (0 Bft) S-SW 202 ° 0 min 0,000 mm 0,0 UV-I 7 W/m² 1,4 °C 2,6 °C 0,0 km/h (0 Bft)
29.03.2018 07:20 2,6 °C 92 % 1006,0 hPa 0,0 mm 0,1 km/h (0 Bft) S-SW 202 ° 0 min 0,000 mm 0,0 UV-I 7 W/m² 1,4 °C 2,6 °C 1,6 km/h (1 Bft)
29.03.2018 07:21 2,6 °C 92 % 1006,0 hPa 0,0 mm 0,7 km/h (0 Bft) S-SW 202 ° 0 min 0,000 mm 0,0 UV-I 7 W/m² 1,4 °C 2,6 °C 1,6 km/h (1 Bft)
29.03.2018 07:22 2,6 °C 92 % 1006,0 hPa 0,0 mm 1,0 km/h (0 Bft) S-SW 202 ° 0 min 0,000 mm 0,0 UV-I 9 W/m² 1,4 °C 2,6 °C 3,2 km/h (1 Bft)
29.03.2018 07:23 2,5 °C 92 % 1006,0 hPa 0,0 mm 0,0 km/h (0 Bft) S-SW 202 ° 0 min 0,000 mm 0,0 UV-I 9 W/m² 1,3 °C 2,5 °C 0,0 km/h (0 Bft)
29.03.2018 07:24 2,4 °C 92 % 1006,0 hPa 0,0 mm 0,1 km/h (0 Bft) S-SW 202 ° 0 min 0,000 mm 0,0 UV-I 9 W/m² 1,2 °C 2,4 °C 1,6 km/h (1 Bft)
29.03.2018 07:25 2,4 °C 92 % 1006,1 hPa 0,0 mm 0,1 km/h (0 Bft) S-SW 202 ° 0 min 0,000 mm 0,0 UV-I 9 W/m² 1,2 °C 2,4 °C 1,6 km/h (1 Bft)
29.03.2018 07:26 2,4 °C 92 % 1006,1 hPa 0,0 mm 0,5 km/h (0 Bft) S-SW 207 ° 0 min 0,000 mm 0,0 UV-I 9 W/m² 1,2 °C 2,4 °C 3,2 km/h (1 Bft)
29.03.2018 07:27 2,4 °C 92 % 1006,0 hPa 0,0 mm 2,7 km/h (1 Bft) W-SW 249 ° 0 min 0,000 mm 0,0 UV-I 9 W/m² 1,2 °C 2,4 °C 4,8 km/h (1 Bft)
29.03.2018 07:28 2,4 °C 92 % 1006,1 hPa 0,0 mm 0,1 km/h (0 Bft) W-SW 249 ° 0 min 0,000 mm 0,0 UV-I 11 W/m² 1,2 °C 2,4 °C 1,6 km/h (1 Bft)
29.03.2018 07:29 2,4 °C 92 % 1006,0 hPa 0,0 mm 1,2 km/h (1 Bft) W-SW 249 ° 0 min 0,000 mm 0,0 UV-I 11 W/m² 1,2 °C 2,4 °C 3,2 km/h (1 Bft)
29.03.2018 07:30 2,4 °C 92 % 1006,0 hPa 0,0 mm 1,1 km/h (1 Bft) W-SW 249 ° 0 min 0,000 mm 0,0 UV-I 11 W/m² 1,2 °C 2,4 °C 3,2 km/h (1 Bft)
29.03.2018 07:31 2,4 °C 92 % 1006,0 hPa 0,0 mm 1,7 km/h (1 Bft) SW 229 ° 0 min 0,000 mm 0,0 UV-I 12 W/m² 1,2 °C 2,4 °C 4,8 km/h (1 Bft)
29.03.2018 07:32 2,4 °C 92 % 1006,0 hPa 0,0 mm 1,9 km/h (1 Bft) SW 225 ° 0 min 0,000 mm 0,0 UV-I 12 W/m² 1,2 °C 2,4 °C 3,2 km/h (1 Bft)
29.03.2018 07:33 2,4 °C 92 % 1006,0 hPa 0,0 mm 0,1 km/h (0 Bft) SW 225 ° 0 min 0,000 mm 0,0 UV-I 16 W/m² 1,2 °C 2,4 °C 1,6 km/h (1 Bft)
29.03.2018 07:34 2,4 °C 92 % 1006,0 hPa 0,0 mm 1,4 km/h (1 Bft) SW 225 ° 0 min 0,000 mm 0,0 UV-I 16 W/m² 1,2 °C 2,4 °C 3,2 km/h (1 Bft)
29.03.2018 07:35 2,4 °C 92 % 1006,0 hPa 0,0 mm 3,4 km/h (1 Bft) NW 309 ° 0 min 0,000 mm 0,0 UV-I 18 W/m² 1,2 °C 2,4 °C 6,4 km/h (2 Bft)
29.03.2018 07:36 2,4 °C 92 % 1006,0 hPa 0,2 mm 1,8 km/h (1 Bft) SW 231 ° 0 min 0,000 mm 0,0 UV-I 19 W/m² 1,2 °C 2,4 °C 3,2 km/h (1 Bft)
29.03.2018 07:37 2,4 °C 92 % 1005,9 hPa 0,0 mm 0,3 km/h (0 Bft) SW 231 ° 0 min 0,000 mm 0,0 UV-I 19 W/m² 1,2 °C 2,4 °C 1,6 km/h (1 Bft)
29.03.2018 07:38 2,4 °C 92 % 1005,9 hPa 0,0 mm 0,0 km/h (0 Bft) SW 231 ° 0 min 0,000 mm 0,0 UV-I 21 W/m² 1,2 °C 2,4 °C 0,0 km/h (0 Bft)
29.03.2018 07:39 2,4 °C 92 % 1005,9 hPa 0,0 mm 0,4 km/h (0 Bft) SW 231 ° 0 min 0,000 mm 0,0 UV-I 21 W/m² 1,2 °C 2,4 °C 1,6 km/h (1 Bft)
29.03.2018 07:40 2,4 °C 92 % 1005,9 hPa 0,0 mm 0,5 km/h (0 Bft) SW 231 ° 0 min 0,000 mm 0,0 UV-I 23 W/m² 1,2 °C 2,4 °C 1,6 km/h (1 Bft)
29.03.2018 07:41 2,4 °C 92 % 1005,9 hPa 0,0 mm 0,7 km/h (0 Bft) SW 231 ° 0 min 0,000 mm 0,0 UV-I 23 W/m² 1,2 °C 2,4 °C 1,6 km/h (1 Bft)
29.03.2018 07:42 2,4 °C 92 % 1005,9 hPa 0,0 mm 0,6 km/h (0 Bft) SW 231 ° 0 min 0,000 mm 0,0 UV-I 25 W/m² 1,2 °C 2,4 °C 3,2 km/h (1 Bft)
29.03.2018 07:43 2,4 °C 92 % 1005,9 hPa 0,0 mm 0,0 km/h (0 Bft) SW 231 ° 0 min 0,000 mm 0,0 UV-I 26 W/m² 1,2 °C 2,4 °C 0,0 km/h (0 Bft)
29.03.2018 07:44 2,4 °C 92 % 1005,9 hPa 0,0 mm 0,0 km/h (0 Bft) SW 231 ° 0 min 0,000 mm 0,0 UV-I 28 W/m² 1,2 °C 2,4 °C 0,0 km/h (0 Bft)
29.03.2018 07:45 2,4 °C 92 % 1005,9 hPa 0,0 mm 0,0 km/h (0 Bft) SW 231 ° 0 min 0,000 mm 0,0 UV-I 28 W/m² 1,2 °C 2,4 °C 0,0 km/h (0 Bft)
29.03.2018 07:46 2,4 °C 93 % 1005,9 hPa 0,0 mm 0,0 km/h (0 Bft) SW 231 ° 0 min 0,000 mm 0,0 UV-I 30 W/m² 1,4 °C 2,4 °C 0,0 km/h (0 Bft)
29.03.2018 07:47 2,4 °C 93 % 1005,9 hPa 0,0 mm 0,0 km/h (0 Bft) SW 231 ° 0 min 0,000 mm 0,0 UV-I 30 W/m² 1,4 °C 2,4 °C 0,0 km/h (0 Bft)
29.03.2018 07:48 2,4 °C 93 % 1005,9 hPa 0,0 mm 0,0 km/h (0 Bft) SW 231 ° 0 min 0,000 mm 0,0 UV-I 28 W/m² 1,4 °C 2,4 °C 0,0 km/h (0 Bft)
29.03.2018 07:49 2,4 °C 93 % 1005,9 hPa 0,0 mm 0,0 km/h (0 Bft) SW 231 ° 0 min 0,000 mm 0,0 UV-I 28 W/m² 1,4 °C 2,4 °C 0,0 km/h (0 Bft)
29.03.2018 07:50 2,4 °C 93 % 1005,9 hPa 0,0 mm 0,0 km/h (0 Bft) SW 231 ° 0 min 0,000 mm 0,0 UV-I 28 W/m² 1,4 °C 2,4 °C 0,0 km/h (0 Bft)
29.03.2018 07:51 2,4 °C 93 % 1005,9 hPa 0,0 mm 0,0 km/h (0 Bft) SW 231 ° 0 min 0,000 mm 0,0 UV-I 28 W/m² 1,4 °C 2,4 °C 0,0 km/h (0 Bft)
29.03.2018 07:52 2,4 °C 93 % 1006,0 hPa 0,0 mm 0,0 km/h (0 Bft) SW 231 ° 0 min 0,000 mm 0,0 UV-I 28 W/m² 1,4 °C 2,4 °C 0,0 km/h (0 Bft)
29.03.2018 07:53 2,4 °C 93 % 1006,0 hPa 0,0 mm 0,4 km/h (0 Bft) SW 231 ° 0 min 0,000 mm 0,0 UV-I 30 W/m² 1,4 °C 2,4 °C 1,6 km/h (1 Bft)
29.03.2018 07:54 2,4 °C 93 % 1006,0 hPa 0,0 mm 0,0 km/h (0 Bft) SW 231 ° 0 min 0,000 mm 0,0 UV-I 30 W/m² 1,4 °C 2,4 °C 0,0 km/h (0 Bft)
29.03.2018 07:55 2,4 °C 93 % 1006,0 hPa 0,0 mm 0,0 km/h (0 Bft) SW 231 ° 0 min 0,000 mm 0,0 UV-I 32 W/m² 1,4 °C 2,4 °C 0,0 km/h (0 Bft)
29.03.2018 07:56 2,4 °C 93 % 1006,0 hPa 0,0 mm 0,0 km/h (0 Bft) SW 231 ° 0 min 0,000 mm 0,0 UV-I 30 W/m² 1,4 °C 2,4 °C 0,0 km/h (0 Bft)
29.03.2018 07:57 2,4 °C 93 % 1006,0 hPa 0,0 mm 0,2 km/h (0 Bft) SW 231 ° 0 min 0,000 mm 0,0 UV-I 28 W/m² 1,4 °C 2,4 °C 1,6 km/h (1 Bft)
29.03.2018 07:58 2,4 °C 93 % 1006,1 hPa 0,0 mm 0,0 km/h (0 Bft) SW 231 ° 0 min 0,000 mm 0,0 UV-I 28 W/m² 1,4 °C 2,4 °C 0,0 km/h (0 Bft)
29.03.2018 07:59 2,4 °C 93 % 1006,0 hPa 0,0 mm 0,0 km/h (0 Bft) SW 231 ° 0 min 0,000 mm 0,0 UV-I 28 W/m² 1,4 °C 2,4 °C 0,0 km/h (0 Bft)
29.03.2018 08:00 2,4 °C 93 % 1006,1 hPa 0,0 mm 0,0 km/h (0 Bft) SW 231 ° 0 min 0,000 mm 0,0 UV-I 28 W/m² 1,4 °C 2,4 °C 0,0 km/h (0 Bft)
29.03.2018 08:01 2,4 °C 93 % 1006,0 hPa 0,0 mm 0,0 km/h (0 Bft) SW 231 ° 0 min 0,000 mm 0,0 UV-I 28 W/m² 1,4 °C 2,4 °C 0,0 km/h (0 Bft)
29.03.2018 08:02 2,4 °C 93 % 1006,1 hPa 0,0 mm 0,0 km/h (0 Bft) SW 231 ° 0 min 0,000 mm 0,0 UV-I 28 W/m² 1,4 °C 2,4 °C 0,0 km/h (0 Bft)
29.03.2018 08:03 2,4 °C 93 % 1006,0 hPa 0,0 mm 0,0 km/h (0 Bft) SW 231 ° 0 min 0,000 mm 0,0 UV-I 32 W/m² 1,4 °C 2,4 °C 0,0 km/h (0 Bft)
29.03.2018 08:04 2,4 °C 93 % 1006,0 hPa 0,0 mm 0,0 km/h (0 Bft) SW 231 ° 0 min 0,000 mm 0,0 UV-I 33 W/m² 1,4 °C 2,4 °C 0,0 km/h (0 Bft)
29.03.2018 08:05 2,5 °C 93 % 1006,1 hPa 0,0 mm 0,0 km/h (0 Bft) SW 231 ° 0 min 0,000 mm 0,0 UV-I 35 W/m² 1,5 °C 2,5 °C 0,0 km/h (0 Bft)
29.03.2018 08:06 2,4 °C 93 % 1006,1 hPa 0,0 mm 0,0 km/h (0 Bft) SW 231 ° 0 min 0,000 mm 0,0 UV-I 37 W/m² 1,4 °C 2,4 °C 0,0 km/h (0 Bft)
29.03.2018 08:07 2,5 °C 93 % 1006,0 hPa 0,0 mm 0,0 km/h (0 Bft) SW 231 ° 0 min 0,000 mm 0,0 UV-I 40 W/m² 1,5 °C 2,5 °C 0,0 km/h (0 Bft)
29.03.2018 08:08 2,5 °C 93 % 1006,1 hPa 0,0 mm 0,0 km/h (0 Bft) SW 231 ° 0 min 0,000 mm 0,0 UV-I 47 W/m² 1,5 °C 2,5 °C 0,0 km/h (0 Bft)
29.03.2018 08:09 2,6 °C 93 % 1006,1 hPa 0,0 mm 0,0 km/h (0 Bft) SW 231 ° 0 min 0,000 mm 0,0 UV-I 49 W/m² 1,6 °C 2,6 °C 0,0 km/h (0 Bft)
29.03.2018 08:10 2,5 °C 93 % 1006,1 hPa 0,0 mm 0,0 km/h (0 Bft) SW 231 ° 0 min 0,000 mm 0,0 UV-I 53 W/m² 1,5 °C 2,5 °C 0,0 km/h (0 Bft)
29.03.2018 08:11 2,4 °C 93 % 1006,0 hPa 0,0 mm 0,0 km/h (0 Bft) SW 231 ° 0 min 0,000 mm 0,0 UV-I 54 W/m² 1,4 °C 2,4 °C 0,0 km/h (0 Bft)
29.03.2018 08:12 2,5 °C 93 % 1006,0 hPa 0,0 mm 0,0 km/h (0 Bft) SW 231 ° 0 min 0,000 mm 0,0 UV-I 56 W/m² 1,5 °C 2,5 °C 0,0 km/h (0 Bft)
29.03.2018 08:13 2,5 °C 93 % 1006,1 hPa 0,0 mm 0,0 km/h (0 Bft) SW 231 ° 0 min 0,000 mm 0,0 UV-I 60 W/m² 1,5 °C 2,5 °C 0,0 km/h (0 Bft)
29.03.2018 08:14 2,5 °C 93 % 1006,0 hPa 0,0 mm 0,0 km/h (0 Bft) SW 231 ° 0 min 0,000 mm 0,0 UV-I 63 W/m² 1,5 °C 2,5 °C 0,0 km/h (0 Bft)
29.03.2018 08:15 2,6 °C 93 % 1006,1 hPa 0,0 mm 0,0 km/h (0 Bft) SW 231 ° 0 min 0,000 mm 0,0 UV-I 63 W/m² 1,6 °C 2,6 °C 0,0 km/h (0 Bft)
29.03.2018 08:16 2,6 °C 93 % 1006,1 hPa 0,0 mm 0,0 km/h (0 Bft) SW 231 ° 0 min 0,000 mm 0,0 UV-I 62 W/m² 1,6 °C 2,6 °C 0,0 km/h (0 Bft)
29.03.2018 08:17 2,6 °C 93 % 1006,1 hPa 0,0 mm 1,3 km/h (1 Bft) SW 231 ° 0 min 0,000 mm 0,0 UV-I 58 W/m² 1,6 °C 2,6 °C 3,2 km/h (1 Bft)
29.03.2018 08:18 2,6 °C 93 % 1006,1 hPa 0,0 mm 0,8 km/h (0 Bft) W 269 ° 0 min 0,000 mm 0,0 UV-I 51 W/m² 1,6 °C 2,6 °C 6,4 km/h (2 Bft)
29.03.2018 08:19 2,7 °C 93 % 1006,1 hPa 0,0 mm 3,9 km/h (1 Bft) W 269 ° 0 min 0,000 mm 0,0 UV-I 44 W/m² 1,7 °C 2,7 °C 9,7 km/h (2 Bft)
29.03.2018 08:20 2,7 °C 93 % 1006,1 hPa 0,0 mm 5,0 km/h (1 Bft) W-SW 254 ° 0 min 0,000 mm 0,0 UV-I 26 W/m² 1,7 °C 1,5 °C 6,4 km/h (2 Bft)
29.03.2018 08:21 2,7 °C 93 % 1006,1 hPa 0,0 mm 3,4 km/h (1 Bft) W 275 ° 0 min 0,000 mm 0,0 UV-I 21 W/m² 1,7 °C 2,7 °C 4,8 km/h (1 Bft)
29.03.2018 08:22 2,7 °C 93 % 1006,2 hPa 0,0 mm 3,8 km/h (1 Bft) W 276 ° 0 min 0,000 mm 0,0 UV-I 18 W/m² 1,7 °C 2,7 °C 4,8 km/h (1 Bft)
29.03.2018 08:23 2,8 °C 93 % 1006,1 hPa 0,0 mm 2,9 km/h (1 Bft) W 276 ° 0 min 0,000 mm 0,0 UV-I 18 W/m² 1,8 °C 2,8 °C 4,8 km/h (1 Bft)
29.03.2018 08:24 2,7 °C 93 % 1006,2 hPa 0,0 mm 0,3 km/h (0 Bft) W 276 ° 0 min 0,000 mm 0,0 UV-I 19 W/m² 1,7 °C 2,7 °C 1,6 km/h (1 Bft)
29.03.2018 08:25 2,7 °C 93 % 1006,2 hPa 0,0 mm 1,2 km/h (1 Bft) W 276 ° 0 min 0,000 mm 0,0 UV-I 23 W/m² 1,7 °C 2,7 °C 3,2 km/h (1 Bft)
29.03.2018 08:26 2,7 °C 93 % 1006,2 hPa 0,0 mm 1,5 km/h (1 Bft) W 276 ° 0 min 0,000 mm 0,0 UV-I 49 W/m² 1,7 °C 2,7 °C 4,8 km/h (1 Bft)
29.03.2018 08:27 2,8 °C 93 % 1006,2 hPa 0,0 mm 3,0 km/h (1 Bft) W 259 ° 0 min 0,000 mm 0,0 UV-I 63 W/m² 1,8 °C 2,8 °C 4,8 km/h (1 Bft)
29.03.2018 08:28 2,8 °C 93 % 1006,2 hPa 0,0 mm 0,8 km/h (0 Bft) W 259 ° 0 min 0,000 mm 0,0 UV-I 70 W/m² 1,8 °C 2,8 °C 1,6 km/h (1 Bft)
29.03.2018 08:29 2,8 °C 93 % 1006,2 hPa 0,0 mm 0,6 km/h (0 Bft) W 260 ° 0 min 0,000 mm 0,0 UV-I 77 W/m² 1,8 °C 2,8 °C 1,6 km/h (1 Bft)
29.03.2018 08:30 2,8 °C 93 % 1006,2 hPa 0,0 mm 2,8 km/h (1 Bft) W 260 ° 0 min 0,000 mm 0,0 UV-I 81 W/m² 1,8 °C 2,8 °C 4,8 km/h (1 Bft)
29.03.2018 08:31 2,8 °C 93 % 1006,2 hPa 0,0 mm 2,4 km/h (1 Bft) W 260 ° 0 min 0,000 mm 0,0 UV-I 79 W/m² 1,8 °C 2,8 °C 4,8 km/h (1 Bft)
29.03.2018 08:32 2,8 °C 93 % 1006,2 hPa 0,0 mm 1,2 km/h (1 Bft) W 259 ° 0 min 0,000 mm 0,0 UV-I 58 W/m² 1,8 °C 2,8 °C 3,2 km/h (1 Bft)
29.03.2018 08:33 2,8 °C 92 % 1006,2 hPa 0,0 mm 0,0 km/h (0 Bft) W 259 ° 0 min 0,000 mm 0,0 UV-I 46 W/m² 1,6 °C 2,8 °C 0,0 km/h (0 Bft)
29.03.2018 08:34 2,8 °C 92 % 1006,2 hPa 0,0 mm 0,0 km/h (0 Bft) W 259 ° 0 min 0,000 mm 0,0 UV-I 37 W/m² 1,6 °C 2,8 °C 0,0 km/h (0 Bft)
29.03.2018 08:35 2,9 °C 92 % 1006,2 hPa 0,0 mm 0,0 km/h (0 Bft) W 260 ° 0 min 0,000 mm 0,0 UV-I 32 W/m² 1,7 °C 2,9 °C 0,0 km/h (0 Bft)
29.03.2018 08:36 2,9 °C 93 % 1006,3 hPa 0,0 mm 0,0 km/h (0 Bft) W 260 ° 0 min 0,000 mm 0,0 UV-I 28 W/m² 1,9 °C 2,9 °C 0,0 km/h (0 Bft)
29.03.2018 08:37 2,9 °C 92 % 1006,3 hPa 0,0 mm 1,5 km/h (1 Bft) W 260 ° 0 min 0,000 mm 0,0 UV-I 26 W/m² 1,7 °C 2,9 °C 3,2 km/h (1 Bft)
29.03.2018 08:38 2,9 °C 92 % 1006,4 hPa 0,0 mm 0,5 km/h (0 Bft) W 259 ° 0 min 0,000 mm 0,0 UV-I 26 W/m² 1,7 °C 2,9 °C 1,6 km/h (1 Bft)
29.03.2018 08:39 2,9 °C 92 % 1006,3 hPa 0,0 mm 3,6 km/h (1 Bft) W 260 ° 0 min 0,000 mm 0,0 UV-I 33 W/m² 1,7 °C 2,9 °C 4,8 km/h (1 Bft)
29.03.2018 08:40 2,9 °C 92 % 1006,4 hPa 0,0 mm 2,9 km/h (1 Bft) W 259 ° 0 min 0,000 mm 0,0 UV-I 42 W/m² 1,7 °C 2,9 °C 3,2 km/h (1 Bft)
29.03.2018 08:41 2,9 °C 92 % 1006,5 hPa 0,0 mm 1,2 km/h (1 Bft) W 259 ° 0 min 0,000 mm 0,0 UV-I 47 W/m² 1,7 °C 2,9 °C 1,6 km/h (1 Bft)
29.03.2018 08:42 2,9 °C 92 % 1006,5 hPa 0,0 mm 1,1 km/h (1 Bft) W 260 ° 0 min 0,000 mm 0,0 UV-I 47 W/m² 1,7 °C 2,9 °C 3,2 km/h (1 Bft)
29.03.2018 08:43 2,9 °C 92 % 1006,5 hPa 0,0 mm 1,1 km/h (1 Bft) W 260 ° 0 min 0,000 mm 0,0 UV-I 47 W/m² 1,7 °C 2,9 °C 3,2 km/h (1 Bft)
29.03.2018 08:44 2,9 °C 92 % 1006,5 hPa 0,0 mm 1,1 km/h (1 Bft) W 260 ° 0 min 0,000 mm 0,0 UV-I 62 W/m² 1,7 °C 2,9 °C 3,2 km/h (1 Bft)
29.03.2018 08:45 2,9 °C 93 % 1006,4 hPa 0,0 mm 2,4 km/h (1 Bft) W 260 ° 0 min 0,000 mm 0,0 UV-I 67 W/m² 1,9 °C 2,9 °C 4,8 km/h (1 Bft)
29.03.2018 08:46 3,0 °C 93 % 1006,5 hPa 0,0 mm 1,9 km/h (1 Bft) W 260 ° 0 min 0,000 mm 0,0 UV-I 70 W/m² 2,0 °C 3,0 °C 3,2 km/h (1 Bft)
29.03.2018 08:47 2,9 °C 93 % 1006,5 hPa 0,0 mm 0,4 km/h (0 Bft) W 260 ° 0 min 0,000 mm 0,0 UV-I 70 W/m² 1,9 °C 2,9 °C 1,6 km/h (1 Bft)
29.03.2018 08:48 2,9 °C 93 % 1006,5 hPa 0,0 mm 0,2 km/h (0 Bft) W 260 ° 0 min 0,000 mm 0,0 UV-I 70 W/m² 1,9 °C 2,9 °C 1,6 km/h (1 Bft)
29.03.2018 08:49 2,9 °C 93 % 1006,5 hPa 0,0 mm 2,1 km/h (1 Bft) W 260 ° 0 min 0,000 mm 0,0 UV-I 76 W/m² 1,9 °C 2,9 °C 3,2 km/h (1 Bft)
29.03.2018 08:50 3,0 °C 92 % 1006,4 hPa 0,0 mm 2,4 km/h (1 Bft) W 260 ° 0 min 0,000 mm 0,5 UV-I 79 W/m² 1,8 °C 3,0 °C 3,2 km/h (1 Bft)
29.03.2018 08:51 2,9 °C 93 % 1006,4 hPa 0,0 mm 2,7 km/h (1 Bft) W 260 ° 0 min 0,000 mm 0,5 UV-I 83 W/m² 1,9 °C 2,9 °C 3,2 km/h (1 Bft)
29.03.2018 08:52 3,0 °C 93 % 1006,5 hPa 0,0 mm 1,7 km/h (1 Bft) W 260 ° 0 min 0,000 mm 0,5 UV-I 81 W/m² 2,0 °C 3,0 °C 3,2 km/h (1 Bft)
29.03.2018 08:53 3,0 °C 93 % 1006,5 hPa 0,0 mm 2,3 km/h (1 Bft) W 260 ° 0 min 0,000 mm 0,5 UV-I 79 W/m² 2,0 °C 3,0 °C 3,2 km/h (1 Bft)
29.03.2018 08:54 3,1 °C 93 % 1006,5 hPa 0,0 mm 1,3 km/h (1 Bft) W 260 ° 0 min 0,000 mm 0,5 UV-I 81 W/m² 2,1 °C 3,1 °C 1,6 km/h (1 Bft)
29.03.2018 08:55 3,1 °C 93 % 1006,5 hPa 0,0 mm 0,1 km/h (0 Bft) W 260 ° 0 min 0,000 mm 0,5 UV-I 86 W/m² 2,1 °C 3,1 °C 1,6 km/h (1 Bft)
29.03.2018 08:56 3,1 °C 93 % 1006,5 hPa 0,0 mm 1,7 km/h (1 Bft) W 260 ° 0 min 0,000 mm 0,6 UV-I 90 W/m² 2,1 °C 3,1 °C 3,2 km/h (1 Bft)
29.03.2018 08:57 3,1 °C 93 % 1006,5 hPa 0,0 mm 1,2 km/h (1 Bft) W 260 ° 0 min 0,000 mm 0,6 UV-I 95 W/m² 2,1 °C 3,1 °C 3,2 km/h (1 Bft)
29.03.2018 08:58 3,1 °C 92 % 1006,5 hPa 0,0 mm 2,3 km/h (1 Bft) W 260 ° 0 min 0,000 mm 0,6 UV-I 98 W/m² 1,9 °C 3,1 °C 3,2 km/h (1 Bft)
29.03.2018 08:59 3,1 °C 92 % 1006,5 hPa 0,0 mm 1,3 km/h (1 Bft) W 260 ° 0 min 0,000 mm 0,6 UV-I 98 W/m² 1,9 °C 3,1 °C 3,2 km/h (1 Bft)
29.03.2018 09:00 3,1 °C 92 % 1006,5 hPa 0,0 mm 2,0 km/h (1 Bft) W 260 ° 0 min 0,000 mm 0,6 UV-I 98 W/m² 1,9 °C 3,1 °C 3,2 km/h (1 Bft)
29.03.2018 09:01 3,1 °C 92 % 1006,5 hPa 0,0 mm 1,5 km/h (1 Bft) W 260 ° 0 min 0,025 mm 0,6 UV-I 98 W/m² 1,9 °C 3,1 °C 3,2 km/h (1 Bft)
29.03.2018 09:02 3,1 °C 92 % 1006,5 hPa 0,0 mm 1,2 km/h (1 Bft) W 260 ° 0 min 0,000 mm 0,7 UV-I 105 W/m² 1,9 °C 3,1 °C 3,2 km/h (1 Bft)
29.03.2018 09:03 3,1 °C 92 % 1006,5 hPa 0,0 mm 0,8 km/h (0 Bft) W 260 ° 0 min 0,000 mm 0,7 UV-I 113 W/m² 1,9 °C 3,1 °C 1,6 km/h (1 Bft)
29.03.2018 09:04 3,2 °C 92 % 1006,5 hPa 0,0 mm 2,3 km/h (1 Bft) W 260 ° 0 min 0,000 mm 0,7 UV-I 118 W/m² 2,0 °C 3,2 °C 3,2 km/h (1 Bft)
29.03.2018 09:05 3,2 °C 92 % 1006,5 hPa 0,0 mm 2,7 km/h (1 Bft) W 260 ° 0 min 0,000 mm 0,7 UV-I 114 W/m² 2,0 °C 3,2 °C 3,2 km/h (1 Bft)
29.03.2018 09:06 3,2 °C 92 % 1006,5 hPa 0,0 mm 1,7 km/h (1 Bft) W 260 ° 0 min 0,000 mm 0,7 UV-I 107 W/m² 2,0 °C 3,2 °C 3,2 km/h (1 Bft)
29.03.2018 09:07 3,2 °C 92 % 1006,5 hPa 0,0 mm 3,6 km/h (1 Bft) W 279 ° 0 min 0,000 mm 0,7 UV-I 97 W/m² 2,0 °C 3,2 °C 4,8 km/h (1 Bft)
29.03.2018 09:08 3,2 °C 92 % 1006,5 hPa 0,0 mm 1,2 km/h (1 Bft) W 279 ° 0 min 0,000 mm 0,7 UV-I 100 W/m² 2,0 °C 3,2 °C 3,2 km/h (1 Bft)
29.03.2018 09:09 3,2 °C 92 % 1006,5 hPa 0,0 mm 3,8 km/h (1 Bft) W-SW 257 ° 0 min 0,000 mm 0,7 UV-I 109 W/m² 2,0 °C 3,2 °C 4,8 km/h (1 Bft)
29.03.2018 09:10 3,3 °C 92 % 1006,5 hPa 0,0 mm 2,3 km/h (1 Bft) W 261 ° 0 min 0,000 mm 0,8 UV-I 114 W/m² 2,1 °C 3,3 °C 4,8 km/h (1 Bft)
29.03.2018 09:11 3,3 °C 92 % 1006,5 hPa 0,0 mm 2,0 km/h (1 Bft) W 261 ° 0 min 0,000 mm 0,8 UV-I 116 W/m² 2,1 °C 3,3 °C 3,2 km/h (1 Bft)
29.03.2018 09:12 3,3 °C 92 % 1006,5 hPa 0,0 mm 2,6 km/h (1 Bft) W 261 ° 0 min 0,000 mm 0,8 UV-I 116 W/m² 2,1 °C 3,3 °C 3,2 km/h (1 Bft)
29.03.2018 09:13 3,3 °C 92 % 1006,5 hPa 0,0 mm 2,3 km/h (1 Bft) W 261 ° 0 min 0,000 mm 0,8 UV-I 116 W/m² 2,1 °C 3,3 °C 4,8 km/h (1 Bft)
29.03.2018 09:14 3,4 °C 92 % 1006,5 hPa 0,0 mm 2,3 km/h (1 Bft) W 261 ° 0 min 0,000 mm 0,8 UV-I 113 W/m² 2,2 °C 3,4 °C 3,2 km/h (1 Bft)
29.03.2018 09:15 3,4 °C 92 % 1006,6 hPa 0,0 mm 2,6 km/h (1 Bft) W-NW 290 ° 0 min 0,000 mm 0,8 UV-I 105 W/m² 2,2 °C 3,4 °C 3,2 km/h (1 Bft)
29.03.2018 09:16 3,3 °C 92 % 1006,6 hPa 0,0 mm 2,3 km/h (1 Bft) W 269 ° 0 min 0,000 mm 0,8 UV-I 102 W/m² 2,1 °C 3,3 °C 3,2 km/h (1 Bft)
29.03.2018 09:17 3,4 °C 92 % 1006,5 hPa 0,0 mm 3,2 km/h (1 Bft) W 260 ° 0 min 0,000 mm 0,8 UV-I 102 W/m² 2,2 °C 3,4 °C 6,4 km/h (2 Bft)
29.03.2018 09:18 3,4 °C 92 % 1006,6 hPa 0,0 mm 4,0 km/h (1 Bft) W 268 ° 0 min 0,000 mm 0,8 UV-I 104 W/m² 2,2 °C 3,4 °C 6,4 km/h (2 Bft)
29.03.2018 09:19 3,4 °C 92 % 1006,6 hPa 0,0 mm 4,4 km/h (1 Bft) W 277 ° 0 min 0,000 mm 0,9 UV-I 125 W/m² 2,2 °C 3,4 °C 6,4 km/h (2 Bft)
29.03.2018 09:20 3,4 °C 92 % 1006,6 hPa 0,0 mm 3,7 km/h (1 Bft) W 271 ° 0 min 0,000 mm 0,9 UV-I 132 W/m² 2,2 °C 3,4 °C 4,8 km/h (1 Bft)
29.03.2018 09:21 3,5 °C 92 % 1006,6 hPa 0,0 mm 3,0 km/h (1 Bft) W 271 ° 0 min 0,000 mm 1,0 UV-I 141 W/m² 2,3 °C 3,5 °C 4,8 km/h (1 Bft)
29.03.2018 09:22 3,6 °C 92 % 1006,6 hPa 0,0 mm 3,1 km/h (1 Bft) W 271 ° 0 min 0,000 mm 1,0 UV-I 153 W/m² 2,4 °C 3,6 °C 4,8 km/h (1 Bft)
29.03.2018 09:23 3,7 °C 92 % 1006,6 hPa 0,0 mm 3,0 km/h (1 Bft) W 260 ° 0 min 0,000 mm 1,0 UV-I 163 W/m² 2,5 °C 3,7 °C 6,4 km/h (2 Bft)
29.03.2018 09:24 3,7 °C 92 % 1006,7 hPa 0,0 mm 3,5 km/h (1 Bft) W 270 ° 0 min 0,000 mm 1,1 UV-I 172 W/m² 2,5 °C 3,7 °C 6,4 km/h (2 Bft)
29.03.2018 09:25 3,7 °C 92 % 1006,6 hPa 0,0 mm 4,8 km/h (1 Bft) W-NW 296 ° 0 min 0,000 mm 1,1 UV-I 185 W/m² 2,5 °C 2,7 °C 11,3 km/h (2 Bft)
29.03.2018 09:26 3,8 °C 91 % 1006,7 hPa 0,0 mm 6,2 km/h (2 Bft) W-NW 296 ° 0 min 0,000 mm 1,0 UV-I 171 W/m² 2,5 °C 2,3 °C 9,7 km/h (2 Bft)
29.03.2018 09:27 3,8 °C 91 % 1006,7 hPa 0,0 mm 3,6 km/h (1 Bft) NW 307 ° 0 min 0,000 mm 1,0 UV-I 162 W/m² 2,5 °C 3,8 °C 6,4 km/h (2 Bft)
29.03.2018 09:28 3,8 °C 91 % 1006,7 hPa 0,0 mm 6,8 km/h (2 Bft) W 267 ° 0 min 0,000 mm 1,0 UV-I 163 W/m² 2,5 °C 2,1 °C 11,3 km/h (2 Bft)
29.03.2018 09:29 3,8 °C 91 % 1006,7 hPa 0,0 mm 9,4 km/h (2 Bft) W-NW 294 ° 0 min 0,000 mm 1,0 UV-I 171 W/m² 2,5 °C 1,4 °C 12,9 km/h (3 Bft)
29.03.2018 09:30 3,8 °C 91 % 1006,7 hPa 0,0 mm 12,1 km/h (2 Bft) W-NW 291 ° 0 min 0,000 mm 1,0 UV-I 179 W/m² 2,5 °C 0,8 °C 16,1 km/h (3 Bft)
29.03.2018 09:31 3,8 °C 91 % 1006,7 hPa 0,0 mm 9,3 km/h (2 Bft) W-NW 289 ° 0 min 0,000 mm 1,0 UV-I 185 W/m² 2,5 °C 1,4 °C 12,9 km/h (3 Bft)
29.03.2018 09:32 3,8 °C 90 % 1006,7 hPa 0,0 mm 5,2 km/h (1 Bft) W 277 ° 0 min 0,000 mm 1,1 UV-I 185 W/m² 2,3 °C 2,6 °C 11,3 km/h (2 Bft)
29.03.2018 09:33 3,8 °C 90 % 1006,7 hPa 0,0 mm 6,6 km/h (2 Bft) NW 308 ° 0 min 0,000 mm 1,1 UV-I 183 W/m² 2,3 °C 2,1 °C 12,9 km/h (3 Bft)
29.03.2018 09:34 3,8 °C 90 % 1006,7 hPa 0,0 mm 6,9 km/h (2 Bft) W 259 ° 0 min 0,000 mm 1,1 UV-I 190 W/m² 2,3 °C 2,0 °C 9,7 km/h (2 Bft)
29.03.2018 09:35 3,8 °C 90 % 1006,7 hPa 0,0 mm 6,4 km/h (2 Bft) W 277 ° 0 min 0,000 mm 1,1 UV-I 190 W/m² 2,3 °C 2,2 °C 11,3 km/h (2 Bft)
29.03.2018 09:36 3,8 °C 90 % 1006,7 hPa 0,0 mm 6,3 km/h (2 Bft) W-SW 256 ° 0 min 0,000 mm 1,1 UV-I 204 W/m² 2,3 °C 2,2 °C 9,7 km/h (2 Bft)
29.03.2018 09:37 3,8 °C 90 % 1006,7 hPa 0,0 mm 5,6 km/h (1 Bft) W-NW 286 ° 0 min 0,000 mm 1,1 UV-I 174 W/m² 2,3 °C 2,5 °C 12,9 km/h (3 Bft)
29.03.2018 09:38 3,9 °C 90 % 1006,7 hPa 0,0 mm 3,0 km/h (1 Bft) W-SW 250 ° 0 min 0,000 mm 1,0 UV-I 156 W/m² 2,4 °C 3,9 °C 6,4 km/h (2 Bft)
29.03.2018 09:39 3,9 °C 90 % 1006,8 hPa 0,0 mm 2,3 km/h (1 Bft) W 272 ° 0 min 0,000 mm 0,9 UV-I 144 W/m² 2,4 °C 3,9 °C 4,8 km/h (1 Bft)
29.03.2018 09:40 4,0 °C 90 % 1006,8 hPa 0,0 mm 8,4 km/h (2 Bft) W-NW 285 ° 0 min 0,000 mm 0,9 UV-I 139 W/m² 2,5 °C 1,9 °C 12,9 km/h (3 Bft)
29.03.2018 09:41 4,0 °C 90 % 1006,8 hPa 0,0 mm 4,4 km/h (1 Bft) W 278 ° 0 min 0,000 mm 0,9 UV-I 132 W/m² 2,5 °C 4,0 °C 6,4 km/h (2 Bft)
29.03.2018 09:42 4,0 °C 90 % 1006,8 hPa 0,0 mm 4,8 km/h (1 Bft) W-NW 290 ° 0 min 0,000 mm 0,9 UV-I 118 W/m² 2,5 °C 3,0 °C 6,4 km/h (2 Bft)
29.03.2018 09:43 4,0 °C 90 % 1006,8 hPa 0,0 mm 5,0 km/h (1 Bft) W 267 ° 0 min 0,000 mm 0,8 UV-I 114 W/m² 2,5 °C 2,9 °C 9,7 km/h (2 Bft)
29.03.2018 09:44 4,0 °C 90 % 1006,8 hPa 0,0 mm 4,4 km/h (1 Bft) W 276 ° 0 min 0,000 mm 0,8 UV-I 111 W/m² 2,5 °C 4,0 °C 6,4 km/h (2 Bft)
29.03.2018 09:45 4,1 °C 90 % 1006,9 hPa 0,0 mm 4,3 km/h (1 Bft) W 276 ° 0 min 0,000 mm 0,8 UV-I 107 W/m² 2,6 °C 4,1 °C 6,4 km/h (2 Bft)
29.03.2018 09:46 4,1 °C 91 % 1006,9 hPa 0,0 mm 4,6 km/h (1 Bft) W-SW 256 ° 0 min 0,000 mm 0,8 UV-I 105 W/m² 2,8 °C 3,2 °C 6,4 km/h (2 Bft)
29.03.2018 09:47 4,2 °C 91 % 1007,0 hPa 0,0 mm 5,5 km/h (1 Bft) W-SW 255 ° 0 min 0,000 mm 0,8 UV-I 105 W/m² 2,9 °C 3,0 °C 6,4 km/h (2 Bft)
29.03.2018 09:48 4,1 °C 91 % 1006,9 hPa 0,0 mm 4,5 km/h (1 Bft) W-SW 257 ° 0 min 0,000 mm 0,8 UV-I 111 W/m² 2,8 °C 4,1 °C 8,0 km/h (2 Bft)
29.03.2018 09:49 4,1 °C 91 % 1006,9 hPa 0,0 mm 6,0 km/h (2 Bft) W 263 ° 0 min 0,000 mm 0,9 UV-I 113 W/m² 2,8 °C 2,7 °C 9,7 km/h (2 Bft)
29.03.2018 09:50 4,1 °C 91 % 1007,0 hPa 0,0 mm 4,3 km/h (1 Bft) W-SW 251 ° 0 min 0,000 mm 0,9 UV-I 116 W/m² 2,8 °C 4,1 °C 4,8 km/h (1 Bft)
29.03.2018 09:51 4,0 °C 90 % 1007,0 hPa 0,0 mm 3,6 km/h (1 Bft) W-SW 253 ° 0 min 0,000 mm 0,9 UV-I 120 W/m² 2,5 °C 4,0 °C 6,4 km/h (2 Bft)
29.03.2018 09:52 4,0 °C 90 % 1007,0 hPa 0,0 mm 5,6 km/h (1 Bft) W-NW 292 ° 0 min 0,000 mm 0,9 UV-I 127 W/m² 2,5 °C 2,7 °C 6,4 km/h (2 Bft)
29.03.2018 09:53 4,0 °C 90 % 1007,0 hPa 0,0 mm 2,7 km/h (1 Bft) NW 311 ° 0 min 0,000 mm 0,9 UV-I 134 W/m² 2,5 °C 4,0 °C 4,8 km/h (1 Bft)
29.03.2018 09:54 4,0 °C 90 % 1007,0 hPa 0,0 mm 5,5 km/h (1 Bft) W-NW 286 ° 0 min 0,000 mm 0,9 UV-I 128 W/m² 2,5 °C 2,8 °C 9,7 km/h (2 Bft)
29.03.2018 09:55 4,1 °C 91 % 1007,0 hPa 0,0 mm 4,4 km/h (1 Bft) W 276 ° 0 min 0,000 mm 0,9 UV-I 121 W/m² 2,8 °C 4,1 °C 4,8 km/h (1 Bft)
29.03.2018 09:56 4,1 °C 91 % 1007,0 hPa 0,0 mm 1,5 km/h (1 Bft) W 276 ° 0 min 0,000 mm 0,9 UV-I 120 W/m² 2,8 °C 4,1 °C 3,2 km/h (1 Bft)
29.03.2018 09:57 4,1 °C 91 % 1007,1 hPa 0,0 mm 1,4 km/h (1 Bft) W 277 ° 0 min 0,000 mm 0,9 UV-I 120 W/m² 2,8 °C 4,1 °C 3,2 km/h (1 Bft)
29.03.2018 09:58 4,1 °C 90 % 1007,0 hPa 0,0 mm 3,0 km/h (1 Bft) W 279 ° 0 min 0,000 mm 0,9 UV-I 120 W/m² 2,6 °C 4,1 °C 4,8 km/h (1 Bft)
29.03.2018 09:59 4,1 °C 90 % 1007,0 hPa 0,0 mm 2,0 km/h (1 Bft) W-NW 283 ° 0 min 0,000 mm 0,9 UV-I 121 W/m² 2,6 °C 4,1 °C 3,2 km/h (1 Bft)
29.03.2018 10:00 4,1 °C 90 % 1007,0 hPa 0,0 mm 3,7 km/h (1 Bft) W-NW 290 ° 0 min 0,051 mm 0,9 UV-I 125 W/m² 2,6 °C 4,1 °C 6,4 km/h (2 Bft)
29.03.2018 10:01 4,1 °C 90 % 1007,0 hPa 0,0 mm 5,3 km/h (1 Bft) NW 309 ° 0 min 0,000 mm 0,9 UV-I 118 W/m² 2,6 °C 2,9 °C 8,0 km/h (2 Bft)
29.03.2018 10:02 4,1 °C 90 % 1007,0 hPa 0,0 mm 5,6 km/h (1 Bft) W-NW 292 ° 0 min 0,000 mm 0,8 UV-I 113 W/m² 2,6 °C 2,8 °C 11,3 km/h (2 Bft)
29.03.2018 10:03 4,1 °C 90 % 1007,0 hPa 0,0 mm 7,8 km/h (2 Bft) W-NW 299 ° 0 min 0,000 mm 0,8 UV-I 111 W/m² 2,6 °C 2,1 °C 11,3 km/h (2 Bft)
29.03.2018 10:04 4,1 °C 90 % 1007,1 hPa 0,0 mm 4,9 km/h (1 Bft) W 273 ° 0 min 0,000 mm 0,8 UV-I 113 W/m² 2,6 °C 3,1 °C 6,4 km/h (2 Bft)
29.03.2018 10:05 4,1 °C 90 % 1007,0 hPa 0,0 mm 4,6 km/h (1 Bft) W-NW 299 ° 0 min 0,000 mm 0,8 UV-I 114 W/m² 2,6 °C 3,2 °C 8,0 km/h (2 Bft)
29.03.2018 10:06 4,1 °C 90 % 1007,0 hPa 0,0 mm 4,0 km/h (1 Bft) W 262 ° 0 min 0,000 mm 0,8 UV-I 109 W/m² 2,6 °C 4,1 °C 6,4 km/h (2 Bft)
29.03.2018 10:07 4,1 °C 90 % 1007,0 hPa 0,0 mm 3,2 km/h (1 Bft) W-SW 257 ° 0 min 0,000 mm 0,8 UV-I 109 W/m² 2,6 °C 4,1 °C 4,8 km/h (1 Bft)
29.03.2018 10:08 4,1 °C 90 % 1007,0 hPa 0,0 mm 0,9 km/h (0 Bft) W-NW 292 ° 0 min 0,000 mm 0,8 UV-I 107 W/m² 2,6 °C 4,1 °C 3,2 km/h (1 Bft)
29.03.2018 10:09 4,1 °C 90 % 1007,0 hPa 0,0 mm 5,0 km/h (1 Bft) W-NW 300 ° 0 min 0,000 mm 0,8 UV-I 107 W/m² 2,6 °C 3,1 °C 8,0 km/h (2 Bft)
29.03.2018 10:10 4,1 °C 90 % 1007,1 hPa 0,0 mm 3,7 km/h (1 Bft) W-NW 294 ° 0 min 0,000 mm 0,8 UV-I 107 W/m² 2,6 °C 4,1 °C 4,8 km/h (1 Bft)
29.03.2018 10:11 4,1 °C 90 % 1007,1 hPa 0,0 mm 4,9 km/h (1 Bft) W-NW 303 ° 0 min 0,000 mm 0,8 UV-I 109 W/m² 2,6 °C 3,1 °C 8,0 km/h (2 Bft)
29.03.2018 10:12 4,1 °C 90 % 1007,0 hPa 0,0 mm 4,6 km/h (1 Bft) W-NW 296 ° 0 min 0,000 mm 0,8 UV-I 111 W/m² 2,6 °C 3,2 °C 6,4 km/h (2 Bft)
29.03.2018 10:13 4,1 °C 90 % 1007,1 hPa 0,0 mm 5,4 km/h (1 Bft) W-NW 292 ° 0 min 0,000 mm 0,9 UV-I 116 W/m² 2,6 °C 2,9 °C 8,0 km/h (2 Bft)
29.03.2018 10:14 4,1 °C 90 % 1007,0 hPa 0,0 mm 6,0 km/h (2 Bft) W-NW 286 ° 0 min 0,000 mm 0,9 UV-I 118 W/m² 2,6 °C 2,7 °C 11,3 km/h (2 Bft)
29.03.2018 10:15 4,1 °C 90 % 1007,0 hPa 0,0 mm 9,7 km/h (2 Bft) W 275 ° 0 min 0,000 mm 0,9 UV-I 118 W/m² 2,6 °C 1,7 °C 14,5 km/h (3 Bft)
29.03.2018 10:16 4,1 °C 90 % 1007,1 hPa 0,0 mm 9,2 km/h (2 Bft) W 265 ° 0 min 0,000 mm 0,9 UV-I 118 W/m² 2,6 °C 1,8 °C 11,3 km/h (2 Bft)
29.03.2018 10:17 4,1 °C 90 % 1007,1 hPa 0,0 mm 6,4 km/h (2 Bft) W 281 ° 0 min 0,000 mm 0,9 UV-I 120 W/m² 2,6 °C 2,6 °C 11,3 km/h (2 Bft)
29.03.2018 10:18 4,1 °C 90 % 1007,1 hPa 0,0 mm 5,7 km/h (1 Bft) W-NW 290 ° 0 min 0,000 mm 0,9 UV-I 123 W/m² 2,6 °C 2,8 °C 9,7 km/h (2 Bft)
29.03.2018 10:19 4,2 °C 90 % 1007,1 hPa 0,0 mm 1,8 km/h (1 Bft) W-SW 249 ° 0 min 0,000 mm 0,9 UV-I 118 W/m² 2,7 °C 4,2 °C 3,2 km/h (1 Bft)
29.03.2018 10:20 4,2 °C 90 % 1007,1 hPa 0,0 mm 6,7 km/h (2 Bft) W 259 ° 0 min 0,000 mm 0,8 UV-I 113 W/m² 2,7 °C 2,6 °C 9,7 km/h (2 Bft)
29.03.2018 10:21 4,2 °C 90 % 1007,1 hPa 0,0 mm 6,3 km/h (2 Bft) W 280 ° 0 min 0,000 mm 0,8 UV-I 111 W/m² 2,7 °C 2,7 °C 9,7 km/h (2 Bft)
29.03.2018 10:22 4,2 °C 90 % 1007,1 hPa 0,0 mm 3,5 km/h (1 Bft) W 259 ° 0 min 0,000 mm 0,8 UV-I 113 W/m² 2,7 °C 4,2 °C 6,4 km/h (2 Bft)
29.03.2018 10:23 4,2 °C 90 % 1007,2 hPa 0,0 mm 5,5 km/h (1 Bft) W 265 ° 0 min 0,000 mm 0,8 UV-I 109 W/m² 2,7 °C 3,0 °C 8,0 km/h (2 Bft)
29.03.2018 10:24 4,2 °C 90 % 1007,2 hPa 0,0 mm 7,0 km/h (2 Bft) W-NW 282 ° 0 min 0,000 mm 0,8 UV-I 109 W/m² 2,7 °C 2,5 °C 9,7 km/h (2 Bft)
29.03.2018 10:25 4,2 °C 90 % 1007,2 hPa 0,0 mm 8,7 km/h (2 Bft) W 271 ° 0 min 0,000 mm 0,8 UV-I 113 W/m² 2,7 °C 2,0 °C 11,3 km/h (2 Bft)
29.03.2018 10:26 4,2 °C 90 % 1007,2 hPa 0,0 mm 12,0 km/h (2 Bft) W 266 ° 0 min 0,000 mm 0,9 UV-I 116 W/m² 2,7 °C 1,3 °C 14,5 km/h (3 Bft)
29.03.2018 10:27 4,2 °C 90 % 1007,2 hPa 0,0 mm 8,3 km/h (2 Bft) W-NW 287 ° 0 min 0,000 mm 0,9 UV-I 120 W/m² 2,7 °C 2,1 °C 11,3 km/h (2 Bft)
29.03.2018 10:28 4,1 °C 89 % 1007,2 hPa 0,0 mm 7,7 km/h (2 Bft) W-NW 297 ° 0 min 0,000 mm 0,9 UV-I 120 W/m² 2,5 °C 2,2 °C 12,9 km/h (3 Bft)
29.03.2018 10:29 4,2 °C 90 % 1007,2 hPa 0,0 mm 10,1 km/h (2 Bft) W 265 ° 0 min 0,000 mm 0,9 UV-I 125 W/m² 2,7 °C 1,7 °C 12,9 km/h (3 Bft)
29.03.2018 10:30 4,2 °C 90 % 1007,2 hPa 0,0 mm 10,2 km/h (2 Bft) NW 304 ° 0 min 0,000 mm 0,9 UV-I 125 W/m² 2,7 °C 1,7 °C 12,9 km/h (3 Bft)
29.03.2018 10:31 4,2 °C 89 % 1007,2 hPa 0,0 mm 9,3 km/h (2 Bft) W-NW 292 ° 0 min 0,000 mm 0,9 UV-I 125 W/m² 2,6 °C 1,9 °C 12,9 km/h (3 Bft)
29.03.2018 10:32 4,2 °C 90 % 1007,3 hPa 0,0 mm 6,7 km/h (2 Bft) W 270 ° 0 min 0,000 mm 0,9 UV-I 125 W/m² 2,7 °C 2,6 °C 11,3 km/h (2 Bft)
29.03.2018 10:33 4,2 °C 90 % 1007,3 hPa 0,0 mm 9,6 km/h (2 Bft) W-NW 298 ° 0 min 0,000 mm 0,9 UV-I 125 W/m² 2,7 °C 1,8 °C 12,9 km/h (3 Bft)
29.03.2018 10:34 4,2 °C 90 % 1007,3 hPa 0,0 mm 5,1 km/h (1 Bft) W-SW 248 ° 0 min 0,000 mm 0,9 UV-I 123 W/m² 2,7 °C 3,1 °C 11,3 km/h (2 Bft)
29.03.2018 10:35 4,2 °C 90 % 1007,2 hPa 0,0 mm 4,0 km/h (1 Bft) W 275 ° 0 min 0,000 mm 1,0 UV-I 127 W/m² 2,7 °C 4,2 °C 8,0 km/h (2 Bft)
29.03.2018 10:36 4,2 °C 90 % 1007,2 hPa 0,0 mm 5,1 km/h (1 Bft) W 273 ° 0 min 0,000 mm 1,0 UV-I 132 W/m² 2,7 °C 3,1 °C 11,3 km/h (2 Bft)
29.03.2018 10:37 4,2 °C 90 % 1007,2 hPa 0,0 mm 10,5 km/h (2 Bft) W 277 ° 0 min 0,000 mm 1,0 UV-I 132 W/m² 2,7 °C 1,6 °C 16,1 km/h (3 Bft)
29.03.2018 10:38 4,2 °C 90 % 1007,2 hPa 0,0 mm 8,4 km/h (2 Bft) W-NW 302 ° 0 min 0,000 mm 1,0 UV-I 130 W/m² 2,7 °C 2,1 °C 11,3 km/h (2 Bft)
29.03.2018 10:39 4,2 °C 89 % 1007,2 hPa 0,0 mm 6,0 km/h (2 Bft) W 279 ° 0 min 0,000 mm 1,0 UV-I 130 W/m² 2,6 °C 2,8 °C 9,7 km/h (2 Bft)
29.03.2018 10:40 4,2 °C 89 % 1007,3 hPa 0,0 mm 9,9 km/h (2 Bft) W 259 ° 0 min 0,000 mm 0,9 UV-I 123 W/m² 2,6 °C 1,7 °C 12,9 km/h (3 Bft)
29.03.2018 10:41 4,2 °C 89 % 1007,3 hPa 0,0 mm 9,9 km/h (2 Bft) W-NW 290 ° 0 min 0,000 mm 0,9 UV-I 116 W/m² 2,6 °C 1,7 °C 12,9 km/h (3 Bft)
29.03.2018 10:42 4,2 °C 89 % 1007,3 hPa 0,0 mm 8,0 km/h (2 Bft) W-SW 258 ° 0 min 0,000 mm 1,0 UV-I 121 W/m² 2,6 °C 2,2 °C 14,5 km/h (3 Bft)
29.03.2018 10:43 4,2 °C 89 % 1007,3 hPa 0,0 mm 8,9 km/h (2 Bft) W-SW 254 ° 0 min 0,000 mm 1,0 UV-I 128 W/m² 2,6 °C 2,0 °C 11,3 km/h (2 Bft)
29.03.2018 10:44 4,2 °C 89 % 1007,3 hPa 0,0 mm 8,6 km/h (2 Bft) NW 317 ° 0 min 0,000 mm 1,0 UV-I 132 W/m² 2,6 °C 2,0 °C 12,9 km/h (3 Bft)
29.03.2018 10:45 4,2 °C 89 % 1007,3 hPa 0,0 mm 5,0 km/h (1 Bft) W-SW 256 ° 0 min 0,000 mm 1,0 UV-I 137 W/m² 2,6 °C 3,2 °C 9,7 km/h (2 Bft)
29.03.2018 10:46 4,2 °C 89 % 1007,2 hPa 0,0 mm 6,1 km/h (2 Bft) W 274 ° 0 min 0,000 mm 1,0 UV-I 137 W/m² 2,6 °C 2,8 °C 9,7 km/h (2 Bft)
29.03.2018 10:47 4,2 °C 90 % 1007,2 hPa 0,0 mm 4,7 km/h (1 Bft) W-NW 290 ° 0 min 0,000 mm 1,1 UV-I 146 W/m² 2,7 °C 3,3 °C 6,4 km/h (2 Bft)
29.03.2018 10:48 4,2 °C 90 % 1007,2 hPa 0,0 mm 9,7 km/h (2 Bft) W-NW 300 ° 0 min 0,000 mm 1,1 UV-I 146 W/m² 2,7 °C 1,8 °C 14,5 km/h (3 Bft)
29.03.2018 10:49 4,2 °C 89 % 1007,2 hPa 0,0 mm 7,6 km/h (2 Bft) W-NW 302 ° 0 min 0,000 mm 1,1 UV-I 153 W/m² 2,6 °C 2,3 °C 11,3 km/h (2 Bft)
29.03.2018 10:50 4,2 °C 89 % 1007,3 hPa 0,0 mm 8,7 km/h (2 Bft) W-NW 288 ° 0 min 0,000 mm 1,2 UV-I 156 W/m² 2,6 °C 2,0 °C 12,9 km/h (3 Bft)
29.03.2018 10:51 4,2 °C 89 % 1007,3 hPa 0,0 mm 7,9 km/h (2 Bft) W-NW 295 ° 0 min 0,000 mm 1,2 UV-I 162 W/m² 2,6 °C 2,2 °C 16,1 km/h (3 Bft)
29.03.2018 10:52 4,3 °C 89 % 1007,3 hPa 0,0 mm 8,5 km/h (2 Bft) W-NW 290 ° 0 min 0,000 mm 1,2 UV-I 169 W/m² 2,7 °C 2,2 °C 11,3 km/h (2 Bft)
29.03.2018 10:53 4,3 °C 89 % 1007,3 hPa 0,0 mm 7,9 km/h (2 Bft) W-NW 286 ° 0 min 0,000 mm 1,3 UV-I 176 W/m² 2,7 °C 2,3 °C 11,3 km/h (2 Bft)
29.03.2018 10:54 4,3 °C 89 % 1007,3 hPa 0,0 mm 7,9 km/h (2 Bft) W-NW 282 ° 0 min 0,000 mm 1,3 UV-I 179 W/m² 2,7 °C 2,3 °C 11,3 km/h (2 Bft)
29.03.2018 10:55 4,3 °C 89 % 1007,3 hPa 0,0 mm 7,8 km/h (2 Bft) W-SW 256 ° 0 min 0,000 mm 1,3 UV-I 178 W/m² 2,7 °C 2,4 °C 11,3 km/h (2 Bft)
29.03.2018 10:56 4,3 °C 89 % 1007,3 hPa 0,0 mm 6,6 km/h (2 Bft) W-NW 295 ° 0 min 0,000 mm 1,3 UV-I 178 W/m² 2,7 °C 2,7 °C 9,7 km/h (2 Bft)
29.03.2018 10:57 4,3 °C 89 % 1007,3 hPa 0,0 mm 7,2 km/h (2 Bft) NW 309 ° 0 min 0,000 mm 1,3 UV-I 178 W/m² 2,7 °C 2,5 °C 11,3 km/h (2 Bft)
29.03.2018 10:58 4,3 °C 89 % 1007,3 hPa 0,0 mm 6,8 km/h (2 Bft) W 281 ° 0 min 0,000 mm 1,3 UV-I 163 W/m² 2,7 °C 2,7 °C 12,9 km/h (3 Bft)
29.03.2018 10:59 4,4 °C 89 % 1007,3 hPa 0,0 mm 9,1 km/h (2 Bft) W-NW 283 ° 0 min 0,000 mm 1,2 UV-I 171 W/m² 2,7 °C 2,2 °C 12,9 km/h (3 Bft)
29.03.2018 11:00 4,4 °C 89 % 1007,3 hPa 0,0 mm 10,8 km/h (2 Bft) W-SW 257 ° 0 min 0,000 mm 1,3 UV-I 178 W/m² 2,7 °C 1,8 °C 16,1 km/h (3 Bft)
29.03.2018 11:01 4,4 °C 89 % 1007,2 hPa 0,0 mm 6,3 km/h (2 Bft) W 264 ° 0 min 0,051 mm 1,3 UV-I 181 W/m² 2,7 °C 2,9 °C 12,9 km/h (3 Bft)
29.03.2018 11:02 4,4 °C 87 % 1007,3 hPa 0,0 mm 6,6 km/h (2 Bft) W-NW 296 ° 0 min 0,000 mm 1,3 UV-I 181 W/m² 2,4 °C 2,8 °C 11,3 km/h (2 Bft)
29.03.2018 11:03 4,4 °C 87 % 1007,3 hPa 0,0 mm 5,4 km/h (1 Bft) W-NW 302 ° 0 min 0,000 mm 1,4 UV-I 181 W/m² 2,4 °C 3,2 °C 8,0 km/h (2 Bft)
29.03.2018 11:04 4,4 °C 88 % 1007,2 hPa 0,0 mm 7,1 km/h (2 Bft) W-NW 295 ° 0 min 0,000 mm 1,4 UV-I 181 W/m² 2,6 °C 2,7 °C 11,3 km/h (2 Bft)
29.03.2018 11:05 4,4 °C 88 % 1007,2 hPa 0,0 mm 8,9 km/h (2 Bft) W-NW 282 ° 0 min 0,000 mm 1,4 UV-I 183 W/m² 2,6 °C 2,2 °C 11,3 km/h (2 Bft)
29.03.2018 11:06 4,5 °C 88 % 1007,2 hPa 0,0 mm 4,7 km/h (1 Bft) W-NW 284 ° 0 min 0,000 mm 1,4 UV-I 183 W/m² 2,7 °C 3,6 °C 8,0 km/h (2 Bft)
29.03.2018 11:07 4,5 °C 87 % 1007,2 hPa 0,0 mm 10,7 km/h (2 Bft) W 271 ° 0 min 0,000 mm 1,5 UV-I 190 W/m² 2,5 °C 1,9 °C 14,5 km/h (3 Bft)
29.03.2018 11:08 4,4 °C 87 % 1007,2 hPa 0,0 mm 7,8 km/h (2 Bft) W 262 ° 0 min 0,000 mm 1,5 UV-I 197 W/m² 2,4 °C 2,5 °C 12,9 km/h (3 Bft)
29.03.2018 11:09 4,4 °C 87 % 1007,2 hPa 0,0 mm 10,1 km/h (2 Bft) W-NW 290 ° 0 min 0,000 mm 1,5 UV-I 197 W/m² 2,4 °C 1,9 °C 14,5 km/h (3 Bft)
29.03.2018 11:10 4,4 °C 86 % 1007,2 hPa 0,0 mm 10,1 km/h (2 Bft) W-SW 251 ° 0 min 0,000 mm 1,5 UV-I 204 W/m² 2,3 °C 1,9 °C 16,1 km/h (3 Bft)
29.03.2018 11:11 4,5 °C 87 % 1007,2 hPa 0,0 mm 10,4 km/h (2 Bft) W 263 ° 0 min 0,000 mm 1,6 UV-I 206 W/m² 2,5 °C 2,0 °C 16,1 km/h (3 Bft)
29.03.2018 11:12 4,5 °C 87 % 1007,2 hPa 0,0 mm 9,6 km/h (2 Bft) W 281 ° 0 min 0,000 mm 1,6 UV-I 207 W/m² 2,5 °C 2,2 °C 14,5 km/h (3 Bft)
29.03.2018 11:13 4,5 °C 87 % 1007,2 hPa 0,0 mm 8,0 km/h (2 Bft) W 271 ° 0 min 0,000 mm 1,6 UV-I 211 W/m² 2,5 °C 2,5 °C 11,3 km/h (2 Bft)
29.03.2018 11:14 4,5 °C 87 % 1007,2 hPa 0,0 mm 5,6 km/h (1 Bft) NW 304 ° 0 min 0,000 mm 1,6 UV-I 213 W/m² 2,5 °C 3,3 °C 11,3 km/h (2 Bft)
29.03.2018 11:15 4,5 °C 87 % 1007,2 hPa 0,0 mm 4,3 km/h (1 Bft) W 263 ° 0 min 0,000 mm 1,6 UV-I 220 W/m² 2,5 °C 4,5 °C 6,4 km/h (2 Bft)
29.03.2018 11:16 4,5 °C 86 % 1007,2 hPa 0,0 mm 4,4 km/h (1 Bft) W 275 ° 0 min 0,000 mm 1,7 UV-I 236 W/m² 2,4 °C 4,5 °C 4,8 km/h (1 Bft)
29.03.2018 11:17 4,6 °C 88 % 1007,3 hPa 0,0 mm 8,7 km/h (2 Bft) W-NW 290 ° 0 min 0,000 mm 1,7 UV-I 237 W/m² 2,8 °C 2,5 °C 14,5 km/h (3 Bft)
29.03.2018 11:18 4,6 °C 87 % 1007,2 hPa 0,0 mm 6,4 km/h (2 Bft) W 267 ° 0 min 0,000 mm 1,8 UV-I 241 W/m² 2,6 °C 3,1 °C 11,3 km/h (2 Bft)
29.03.2018 11:19 4,6 °C 87 % 1007,2 hPa 0,0 mm 7,5 km/h (2 Bft) W 270 ° 0 min 0,000 mm 1,7 UV-I 236 W/m² 2,6 °C 2,8 °C 11,3 km/h (2 Bft)
29.03.2018 11:20 4,7 °C 88 % 1007,2 hPa 0,0 mm 5,5 km/h (1 Bft) W-NW 296 ° 0 min 0,000 mm 1,6 UV-I 223 W/m² 2,9 °C 3,6 °C 9,7 km/h (2 Bft)
29.03.2018 11:21 4,7 °C 87 % 1007,2 hPa 0,0 mm 7,7 km/h (2 Bft) W 261 ° 0 min 0,000 mm 1,6 UV-I 214 W/m² 2,7 °C 2,9 °C 12,9 km/h (3 Bft)
29.03.2018 11:22 4,7 °C 87 % 1007,2 hPa 0,0 mm 11,9 km/h (2 Bft) W-SW 253 ° 0 min 0,000 mm 1,5 UV-I 193 W/m² 2,7 °C 1,9 °C 16,1 km/h (3 Bft)
29.03.2018 11:23 4,7 °C 87 % 1007,2 hPa 0,0 mm 10,3 km/h (2 Bft) W-SW 254 ° 0 min 0,000 mm 1,4 UV-I 188 W/m² 2,7 °C 2,2 °C 12,9 km/h (3 Bft)
29.03.2018 11:24 4,7 °C 87 % 1007,2 hPa 0,0 mm 8,2 km/h (2 Bft) W-NW 302 ° 0 min 0,000 mm 1,4 UV-I 188 W/m² 2,7 °C 2,7 °C 11,3 km/h (2 Bft)
29.03.2018 11:25 4,7 °C 87 % 1007,2 hPa 0,0 mm 4,0 km/h (1 Bft) W-NW 287 ° 0 min 0,000 mm 1,4 UV-I 179 W/m² 2,7 °C 4,7 °C 6,4 km/h (2 Bft)
29.03.2018 11:26 4,7 °C 88 % 1007,2 hPa 0,0 mm 8,8 km/h (2 Bft) W 281 ° 0 min 0,000 mm 1,3 UV-I 178 W/m² 2,9 °C 2,6 °C 16,1 km/h (3 Bft)
29.03.2018 11:27 4,7 °C 86 % 1007,2 hPa 0,0 mm 8,9 km/h (2 Bft) W 275 ° 0 min 0,000 mm 1,3 UV-I 176 W/m² 2,6 °C 2,6 °C 12,9 km/h (3 Bft)
29.03.2018 11:28 4,7 °C 86 % 1007,2 hPa 0,0 mm 10,4 km/h (2 Bft) W-SW 252 ° 0 min 0,000 mm 1,3 UV-I 174 W/m² 2,6 °C 2,2 °C 12,9 km/h (3 Bft)
29.03.2018 11:29 4,7 °C 86 % 1007,2 hPa 0,0 mm 10,1 km/h (2 Bft) W 279 ° 0 min 0,000 mm 1,3 UV-I 174 W/m² 2,6 °C 2,3 °C 14,5 km/h (3 Bft)
29.03.2018 11:30 4,7 °C 86 % 1007,2 hPa 0,0 mm 8,0 km/h (2 Bft) W 264 ° 0 min 0,000 mm 1,3 UV-I 172 W/m² 2,6 °C 2,8 °C 12,9 km/h (3 Bft)
29.03.2018 11:31 4,7 °C 86 % 1007,2 hPa 0,0 mm 12,5 km/h (3 Bft) W 263 ° 0 min 0,000 mm 1,3 UV-I 171 W/m² 2,6 °C 1,8 °C 16,1 km/h (3 Bft)
29.03.2018 11:32 4,6 °C 85 % 1007,2 hPa 0,0 mm 13,0 km/h (3 Bft) W 279 ° 0 min 0,000 mm 1,3 UV-I 172 W/m² 2,3 °C 1,6 °C 16,1 km/h (3 Bft)
29.03.2018 11:33 4,6 °C 86 % 1007,2 hPa 0,0 mm 6,4 km/h (2 Bft) W-SW 252 ° 0 min 0,000 mm 1,3 UV-I 178 W/m² 2,5 °C 3,1 °C 11,3 km/h (2 Bft)
29.03.2018 11:34 4,6 °C 86 % 1007,1 hPa 0,0 mm 5,9 km/h (2 Bft) W 269 ° 0 min 0,000 mm 1,3 UV-I 181 W/m² 2,5 °C 3,3 °C 11,3 km/h (2 Bft)
29.03.2018 11:35 4,7 °C 87 % 1007,1 hPa 0,0 mm 3,8 km/h (1 Bft) W 281 ° 0 min 0,000 mm 1,4 UV-I 186 W/m² 2,7 °C 4,7 °C 9,7 km/h (2 Bft)
29.03.2018 11:36 4,8 °C 87 % 1007,1 hPa 0,0 mm 5,1 km/h (1 Bft) W-NW 283 ° 0 min 0,000 mm 1,4 UV-I 192 W/m² 2,8 °C 3,8 °C 9,7 km/h (2 Bft)
29.03.2018 11:37 4,8 °C 86 % 1007,1 hPa 0,0 mm 5,3 km/h (1 Bft) W 279 ° 0 min 0,000 mm 1,5 UV-I 192 W/m² 2,7 °C 3,7 °C 8,0 km/h (2 Bft)
29.03.2018 11:38 4,9 °C 87 % 1007,1 hPa 0,0 mm 5,7 km/h (1 Bft) W 269 ° 0 min 0,000 mm 1,5 UV-I 204 W/m² 2,9 °C 3,7 °C 9,7 km/h (2 Bft)
29.03.2018 11:39 4,8 °C 86 % 1007,2 hPa 0,0 mm 10,7 km/h (2 Bft) W-SW 257 ° 0 min 0,000 mm 1,6 UV-I 213 W/m² 2,7 °C 2,3 °C 17,7 km/h (3 Bft)
29.03.2018 11:40 4,8 °C 86 % 1007,2 hPa 0,0 mm 11,2 km/h (2 Bft) W 273 ° 0 min 0,000 mm 1,6 UV-I 225 W/m² 2,7 °C 2,2 °C 14,5 km/h (3 Bft)
29.03.2018 11:41 4,8 °C 86 % 1007,2 hPa 0,0 mm 10,0 km/h (2 Bft) W 269 ° 0 min 0,000 mm 1,7 UV-I 229 W/m² 2,7 °C 2,4 °C 12,9 km/h (3 Bft)
29.03.2018 11:42 4,9 °C 85 % 1007,1 hPa 0,0 mm 7,6 km/h (2 Bft) W-NW 286 ° 0 min 0,000 mm 1,7 UV-I 229 W/m² 2,6 °C 3,1 °C 11,3 km/h (2 Bft)
29.03.2018 11:43 4,9 °C 86 % 1007,1 hPa 0,0 mm 8,0 km/h (2 Bft) W-NW 288 ° 0 min 0,000 mm 1,7 UV-I 237 W/m² 2,8 °C 3,0 °C 12,9 km/h (3 Bft)
29.03.2018 11:44 4,9 °C 85 % 1007,1 hPa 0,0 mm 4,6 km/h (1 Bft) W 261 ° 0 min 0,000 mm 1,8 UV-I 239 W/m² 2,6 °C 4,1 °C 6,4 km/h (2 Bft)
29.03.2018 11:45 5,1 °C 86 % 1007,1 hPa 0,0 mm 5,6 km/h (1 Bft) W-SW 258 ° 0 min 0,000 mm 1,8 UV-I 232 W/m² 3,0 °C 4,0 °C 6,4 km/h (2 Bft)
29.03.2018 11:46 5,1 °C 86 % 1007,1 hPa 0,0 mm 7,6 km/h (2 Bft) W 265 ° 0 min 0,000 mm 1,7 UV-I 221 W/m² 3,0 °C 3,4 °C 11,3 km/h (2 Bft)
29.03.2018 11:47 5,1 °C 85 % 1007,1 hPa 0,0 mm 5,6 km/h (1 Bft) W-NW 295 ° 0 min 0,000 mm 1,6 UV-I 209 W/m² 2,8 °C 4,0 °C 8,0 km/h (2 Bft)
29.03.2018 11:48 5,1 °C 83 % 1007,1 hPa 0,0 mm 9,5 km/h (2 Bft) W 269 ° 0 min 0,000 mm 1,6 UV-I 204 W/m² 2,5 °C 2,9 °C 12,9 km/h (3 Bft)
29.03.2018 11:49 5,2 °C 84 % 1007,2 hPa 0,0 mm 6,5 km/h (2 Bft) W 269 ° 0 min 0,000 mm 1,6 UV-I 206 W/m² 2,7 °C 3,8 °C 11,3 km/h (2 Bft)
29.03.2018 11:50 5,2 °C 85 % 1007,1 hPa 0,0 mm 6,4 km/h (2 Bft) SW 235 ° 0 min 0,000 mm 1,7 UV-I 213 W/m² 2,9 °C 3,8 °C 11,3 km/h (2 Bft)
29.03.2018 11:51 5,2 °C 84 % 1007,2 hPa 0,0 mm 7,3 km/h (2 Bft) W-SW 242 ° 0 min 0,000 mm 1,7 UV-I 236 W/m² 2,7 °C 3,6 °C 11,3 km/h (2 Bft)
29.03.2018 11:52 5,2 °C 83 % 1007,2 hPa 0,0 mm 11,4 km/h (2 Bft) W 270 ° 0 min 0,000 mm 1,9 UV-I 257 W/m² 2,6 °C 2,6 °C 14,5 km/h (3 Bft)
29.03.2018 11:53 5,2 °C 85 % 1007,2 hPa 0,0 mm 5,8 km/h (2 Bft) W-NW 293 ° 0 min 0,000 mm 2,0 UV-I 279 W/m² 2,9 °C 4,0 °C 9,7 km/h (2 Bft)
29.03.2018 11:54 5,2 °C 83 % 1007,3 hPa 0,0 mm 3,7 km/h (1 Bft) SW 232 ° 1 min 0,000 mm 2,1 UV-I 295 W/m² 2,6 °C 5,2 °C 6,4 km/h (2 Bft)
29.03.2018 11:55 5,2 °C 82 % 1007,2 hPa 0,0 mm 6,1 km/h (2 Bft) W 275 ° 1 min 0,000 mm 2,1 UV-I 302 W/m² 2,4 °C 3,9 °C 11,3 km/h (2 Bft)
29.03.2018 11:56 5,3 °C 84 % 1007,2 hPa 0,0 mm 10,4 km/h (2 Bft) W-NW 298 ° 1 min 0,000 mm 2,1 UV-I 302 W/m² 2,8 °C 2,9 °C 16,1 km/h (3 Bft)
29.03.2018 11:57 5,3 °C 81 % 1007,3 hPa 0,0 mm 10,9 km/h (2 Bft) W-NW 296 ° 1 min 0,000 mm 2,1 UV-I 292 W/m² 2,3 °C 2,8 °C 14,5 km/h (3 Bft)
29.03.2018 11:58 5,3 °C 81 % 1007,2 hPa 0,0 mm 9,1 km/h (2 Bft) W 269 ° 0 min 0,000 mm 2,0 UV-I 279 W/m² 2,3 °C 3,2 °C 14,5 km/h (3 Bft)
29.03.2018 11:59 5,3 °C 81 % 1007,3 hPa 0,0 mm 9,5 km/h (2 Bft) W-NW 283 ° 0 min 0,000 mm 2,0 UV-I 274 W/m² 2,3 °C 3,1 °C 12,9 km/h (3 Bft)
29.03.2018 12:00 5,4 °C 82 % 1007,2 hPa 0,0 mm 5,1 km/h (1 Bft) W-NW 292 ° 0 min 0,101 mm 2,0 UV-I 274 W/m² 2,6 °C 4,5 °C 9,7 km/h (2 Bft)
29.03.2018 12:01 5,4 °C 82 % 1007,2 hPa 0,0 mm 6,8 km/h (2 Bft) W 279 ° 0 min 0,000 mm 2,1 UV-I 287 W/m² 2,6 °C 3,9 °C 9,7 km/h (2 Bft)
29.03.2018 12:02 5,4 °C 81 % 1007,1 hPa 0,0 mm 7,5 km/h (2 Bft) SW 234 ° 0 min 0,000 mm 2,1 UV-I 288 W/m² 2,4 °C 3,7 °C 11,3 km/h (2 Bft)
29.03.2018 12:03 5,4 °C 80 % 1007,1 hPa 0,0 mm 8,4 km/h (2 Bft) W 265 ° 0 min 0,000 mm 2,1 UV-I 285 W/m² 2,2 °C 3,5 °C 9,7 km/h (2 Bft)
29.03.2018 12:04 5,4 °C 80 % 1007,1 hPa 0,0 mm 8,1 km/h (2 Bft) W-SW 246 ° 0 min 0,000 mm 2,1 UV-I 288 W/m² 2,2 °C 3,6 °C 11,3 km/h (2 Bft)
29.03.2018 12:05 5,5 °C 81 % 1007,2 hPa 0,0 mm 5,8 km/h (2 Bft) W 275 ° 1 min 0,000 mm 2,2 UV-I 294 W/m² 2,5 °C 4,4 °C 9,7 km/h (2 Bft)
29.03.2018 12:06 5,6 °C 81 % 1007,1 hPa 0,0 mm 4,9 km/h (1 Bft) W-NW 290 ° 1 min 0,000 mm 2,2 UV-I 297 W/m² 2,6 °C 4,8 °C 8,0 km/h (2 Bft)
29.03.2018 12:07 5,7 °C 81 % 1007,1 hPa 0,0 mm 7,9 km/h (2 Bft) W-NW 283 ° 1 min 0,000 mm 2,2 UV-I 304 W/m² 2,7 °C 4,0 °C 11,3 km/h (2 Bft)
29.03.2018 12:08 5,7 °C 81 % 1007,1 hPa 0,0 mm 4,8 km/h (1 Bft) W-NW 294 ° 1 min 0,000 mm 2,3 UV-I 318 W/m² 2,7 °C 5,0 °C 6,4 km/h (2 Bft)
29.03.2018 12:09 5,7 °C 80 % 1007,1 hPa 0,0 mm 9,0 km/h (2 Bft) W-NW 294 ° 1 min 0,000 mm 2,4 UV-I 338 W/m² 2,5 °C 3,7 °C 17,7 km/h (3 Bft)
29.03.2018 12:10 5,7 °C 78 % 1007,1 hPa 0,0 mm 11,0 km/h (2 Bft) W-NW 284 ° 1 min 0,000 mm 2,4 UV-I 339 W/m² 2,2 °C 3,3 °C 17,7 km/h (3 Bft)
29.03.2018 12:11 5,7 °C 78 % 1007,1 hPa 0,0 mm 8,6 km/h (2 Bft) W-NW 284 ° 1 min 0,000 mm 2,4 UV-I 346 W/m² 2,2 °C 3,8 °C 12,9 km/h (3 Bft)
29.03.2018 12:12 5,8 °C 79 % 1007,0 hPa 0,0 mm 6,8 km/h (2 Bft) SW 215 ° 1 min 0,000 mm 2,5 UV-I 355 W/m² 2,4 °C 4,4 °C 11,3 km/h (2 Bft)
29.03.2018 12:13 5,8 °C 76 % 1007,1 hPa 0,0 mm 8,4 km/h (2 Bft) SW 219 ° 1 min 0,000 mm 2,5 UV-I 353 W/m² 1,9 °C 4,0 °C 11,3 km/h (2 Bft)
29.03.2018 12:14 5,8 °C 77 % 1007,0 hPa 0,0 mm 5,8 km/h (2 Bft) SW 215 ° 1 min 0,000 mm 2,6 UV-I 371 W/m² 2,1 °C 4,7 °C 8,0 km/h (2 Bft)
29.03.2018 12:15 5,8 °C 77 % 1007,1 hPa 0,0 mm 4,9 km/h (1 Bft) W-NW 295 ° 1 min 0,000 mm 2,7 UV-I 388 W/m² 2,1 °C 5,0 °C 8,0 km/h (2 Bft)
29.03.2018 12:16 5,7 °C 77 % 1007,0 hPa 0,0 mm 3,7 km/h (1 Bft) W-NW 302 ° 1 min 0,000 mm 2,8 UV-I 408 W/m² 2,0 °C 5,7 °C 6,4 km/h (2 Bft)
29.03.2018 12:17 5,8 °C 78 % 1007,0 hPa 0,0 mm 5,7 km/h (1 Bft) W 269 ° 1 min 0,000 mm 2,9 UV-I 485 W/m² 2,3 °C 4,7 °C 9,7 km/h (2 Bft)
29.03.2018 12:18 5,9 °C 77 % 1007,0 hPa 0,0 mm 7,0 km/h (2 Bft) SW 228 ° 1 min 0,000 mm 3,2 UV-I 485 W/m² 2,2 °C 4,5 °C 12,9 km/h (3 Bft)
29.03.2018 12:19 5,9 °C 75 % 1007,0 hPa 0,0 mm 2,9 km/h (1 Bft) W-SW 237 ° 1 min 0,000 mm 3,4 UV-I 485 W/m² 1,8 °C 5,9 °C 4,8 km/h (1 Bft)
29.03.2018 12:20 5,9 °C 77 % 1007,0 hPa 0,0 mm 6,6 km/h (2 Bft) W 259 ° 1 min 0,000 mm 2,8 UV-I 413 W/m² 2,2 °C 4,6 °C 11,3 km/h (2 Bft)
29.03.2018 12:21 6,2 °C 80 % 1007,0 hPa 0,0 mm 6,7 km/h (2 Bft) W 262 ° 1 min 0,000 mm 2,8 UV-I 490 W/m² 3,0 °C 4,9 °C 9,7 km/h (2 Bft)
29.03.2018 12:22 6,2 °C 77 % 1007,0 hPa 0,0 mm 6,0 km/h (2 Bft) S-SW 209 ° 1 min 0,000 mm 3,1 UV-I 462 W/m² 2,5 °C 5,1 °C 8,0 km/h (2 Bft)
29.03.2018 12:23 6,2 °C 75 % 1007,0 hPa 0,0 mm 3,2 km/h (1 Bft) W-SW 257 ° 1 min 0,000 mm 3,5 UV-I 548 W/m² 2,1 °C 6,2 °C 11,3 km/h (2 Bft)
29.03.2018 12:24 6,3 °C 79 % 1007,0 hPa 0,0 mm 6,2 km/h (2 Bft) W-SW 243 ° 1 min 0,000 mm 3,3 UV-I 531 W/m² 2,9 °C 5,2 °C 9,7 km/h (2 Bft)
29.03.2018 12:25 6,4 °C 77 % 1007,0 hPa 0,0 mm 7,5 km/h (2 Bft) W-SW 243 ° 1 min 0,000 mm 4,2 UV-I 543 W/m² 2,7 °C 4,9 °C 12,9 km/h (3 Bft)
29.03.2018 12:26 6,7 °C 81 % 1007,0 hPa 0,0 mm 7,1 km/h (2 Bft) W 266 ° 1 min 0,000 mm 3,2 UV-I 606 W/m² 3,7 °C 5,4 °C 12,9 km/h (3 Bft)
29.03.2018 12:27 6,8 °C 79 % 1007,0 hPa 0,0 mm 5,0 km/h (1 Bft) W-SW 249 ° 1 min 0,000 mm 4,0 UV-I 606 W/m² 3,4 °C 6,1 °C 9,7 km/h (2 Bft)
29.03.2018 12:28 6,8 °C 74 % 1007,0 hPa 0,0 mm 8,1 km/h (2 Bft) W 277 ° 1 min 0,000 mm 3,9 UV-I 666 W/m² 2,5 °C 5,2 °C 12,9 km/h (3 Bft)
29.03.2018 12:29 6,7 °C 73 % 1007,0 hPa 0,0 mm 8,7 km/h (2 Bft) NW 305 ° 1 min 0,000 mm 3,5 UV-I 666 W/m² 2,2 °C 5,0 °C 17,7 km/h (3 Bft)
29.03.2018 12:30 6,7 °C 74 % 1007,0 hPa 0,0 mm 9,5 km/h (2 Bft) NW 311 ° 1 min 0,000 mm 3,5 UV-I 489 W/m² 2,4 °C 4,8 °C 17,7 km/h (3 Bft)
29.03.2018 12:31 6,7 °C 73 % 1006,9 hPa 0,0 mm 5,1 km/h (1 Bft) W 271 ° 1 min 0,000 mm 4,4 UV-I 489 W/m² 2,2 °C 6,0 °C 11,3 km/h (2 Bft)
29.03.2018 12:32 6,8 °C 75 % 1006,9 hPa 0,0 mm 7,1 km/h (2 Bft) W-NW 283 ° 1 min 0,000 mm 4,4 UV-I 788 W/m² 2,7 °C 5,5 °C 12,9 km/h (3 Bft)
29.03.2018 12:33 6,9 °C 74 % 1007,0 hPa 0,0 mm 7,7 km/h (2 Bft) SW 226 ° 1 min 0,000 mm 4,2 UV-I 670 W/m² 2,6 °C 5,4 °C 12,9 km/h (3 Bft)
29.03.2018 12:34 6,9 °C 71 % 1007,0 hPa 0,0 mm 6,5 km/h (2 Bft) W 274 ° 1 min 0,000 mm 3,5 UV-I 578 W/m² 2,0 °C 5,8 °C 12,9 km/h (3 Bft)
29.03.2018 12:35 7,1 °C 73 % 1006,9 hPa 0,0 mm 6,2 km/h (2 Bft) W 267 ° 1 min 0,000 mm 3,4 UV-I 545 W/m² 2,6 °C 6,1 °C 11,3 km/h (2 Bft)
29.03.2018 12:36 7,1 °C 74 % 1006,9 hPa 0,0 mm 3,2 km/h (1 Bft) W-SW 246 ° 1 min 0,000 mm 3,2 UV-I 545 W/m² 2,8 °C 7,1 °C 11,3 km/h (2 Bft)
29.03.2018 12:37 7,1 °C 74 % 1006,8 hPa 0,0 mm 9,7 km/h (2 Bft) W 268 ° 1 min 0,000 mm 3,1 UV-I 471 W/m² 2,8 °C 5,2 °C 12,9 km/h (3 Bft)
29.03.2018 12:38 7,1 °C 73 % 1006,8 hPa 0,0 mm 9,5 km/h (2 Bft) W-NW 295 ° 1 min 0,000 mm 2,8 UV-I 390 W/m² 2,6 °C 5,3 °C 14,5 km/h (3 Bft)
29.03.2018 12:39 7,0 °C 73 % 1006,8 hPa 0,0 mm 9,5 km/h (2 Bft) S-SW 199 ° 1 min 0,000 mm 2,8 UV-I 357 W/m² 2,5 °C 5,1 °C 17,7 km/h (3 Bft)
29.03.2018 12:40 6,9 °C 68 % 1006,9 hPa 0,0 mm 9,4 km/h (2 Bft) SW 221 ° 1 min 0,000 mm 2,5 UV-I 341 W/m² 1,4 °C 5,1 °C 16,1 km/h (3 Bft)
29.03.2018 12:41 6,7 °C 67 % 1006,8 hPa 0,0 mm 8,2 km/h (2 Bft) S-SW 204 ° 1 min 0,000 mm 2,6 UV-I 360 W/m² 1,0 °C 5,1 °C 11,3 km/h (2 Bft)
29.03.2018 12:42 6,7 °C 67 % 1006,8 hPa 0,0 mm 8,2 km/h (2 Bft) W 267 ° 1 min 0,000 mm 2,6 UV-I 355 W/m² 1,0 °C 5,1 °C 16,1 km/h (3 Bft)
29.03.2018 12:43 6,7 °C 71 % 1006,8 hPa 0,0 mm 11,1 km/h (2 Bft) W-NW 295 ° 1 min 0,000 mm 2,6 UV-I 359 W/m² 1,8 °C 4,5 °C 12,9 km/h (3 Bft)
29.03.2018 12:44 6,7 °C 73 % 1006,8 hPa 0,0 mm 13,2 km/h (3 Bft) W 264 ° 1 min 0,000 mm 2,6 UV-I 359 W/m² 2,2 °C 4,1 °C 19,3 km/h (3 Bft)
29.03.2018 12:45 6,8 °C 71 % 1006,8 hPa 0,0 mm 10,4 km/h (2 Bft) W 263 ° 1 min 0,000 mm 2,6 UV-I 367 W/m² 1,9 °C 4,7 °C 14,5 km/h (3 Bft)
29.03.2018 12:46 6,7 °C 70 % 1006,8 hPa 0,0 mm 12,9 km/h (3 Bft) W-NW 298 ° 1 min 0,000 mm 2,4 UV-I 329 W/m² 1,6 °C 4,2 °C 19,3 km/h (3 Bft)
29.03.2018 12:47 6,7 °C 65 % 1006,8 hPa 0,0 mm 11,9 km/h (2 Bft) NW 321 ° 1 min 0,000 mm 2,4 UV-I 318 W/m² 0,6 °C 4,3 °C 19,3 km/h (3 Bft)
29.03.2018 12:48 6,7 °C 69 % 1006,8 hPa 0,0 mm 9,3 km/h (2 Bft) W 266 ° 1 min 0,000 mm 2,5 UV-I 309 W/m² 1,4 °C 4,8 °C 17,7 km/h (3 Bft)
29.03.2018 12:49 6,7 °C 68 % 1006,8 hPa 0,0 mm 6,4 km/h (2 Bft) W-SW 257 ° 1 min 0,000 mm 2,2 UV-I 294 W/m² 1,2 °C 5,6 °C 9,7 km/h (2 Bft)
29.03.2018 12:50 6,7 °C 66 % 1006,8 hPa 0,0 mm 11,0 km/h (2 Bft) W-SW 250 ° 1 min 0,000 mm 2,2 UV-I 309 W/m² 0,8 °C 4,5 °C 14,5 km/h (3 Bft)
29.03.2018 12:51 6,6 °C 66 % 1006,8 hPa 0,0 mm 9,7 km/h (2 Bft) W-SW 255 ° 1 min 0,000 mm 2,4 UV-I 332 W/m² 0,7 °C 4,6 °C 14,5 km/h (3 Bft)
29.03.2018 12:52 6,6 °C 67 % 1006,7 hPa 0,0 mm 11,7 km/h (2 Bft) W-SW 243 ° 1 min 0,000 mm 2,8 UV-I 425 W/m² 0,9 °C 4,2 °C 17,7 km/h (3 Bft)
29.03.2018 12:53 6,7 °C 68 % 1006,7 hPa 0,0 mm 7,9 km/h (2 Bft) W 272 ° 1 min 0,000 mm 2,6 UV-I 353 W/m² 1,2 °C 5,2 °C 14,5 km/h (3 Bft)
29.03.2018 12:54 6,7 °C 70 % 1006,8 hPa 0,0 mm 10,8 km/h (2 Bft) W 263 ° 1 min 0,000 mm 2,6 UV-I 353 W/m² 1,6 °C 4,5 °C 14,5 km/h (3 Bft)
29.03.2018 12:55 6,8 °C 68 % 1006,8 hPa 0,0 mm 10,7 km/h (2 Bft) NW 314 ° 1 min 0,000 mm 2,5 UV-I 327 W/m² 1,3 °C 4,7 °C 12,9 km/h (3 Bft)
29.03.2018 12:56 6,8 °C 66 % 1006,8 hPa 0,0 mm 8,2 km/h (2 Bft) W 281 ° 1 min 0,000 mm 3,2 UV-I 339 W/m² 0,9 °C 5,2 °C 14,5 km/h (3 Bft)
29.03.2018 12:57 6,7 °C 68 % 1006,8 hPa 0,0 mm 10,0 km/h (2 Bft) W 267 ° 1 min 0,000 mm 3,2 UV-I 338 W/m² 1,2 °C 4,7 °C 12,9 km/h (3 Bft)
29.03.2018 12:58 6,7 °C 68 % 1006,7 hPa 0,0 mm 6,6 km/h (2 Bft) W-NW 287 ° 1 min 0,000 mm 2,8 UV-I 383 W/m² 1,2 °C 5,5 °C 9,7 km/h (2 Bft)
29.03.2018 12:59 6,6 °C 66 % 1006,7 hPa 0,0 mm 8,2 km/h (2 Bft) W 262 ° 1 min 0,000 mm 3,5 UV-I 383 W/m² 0,7 °C 5,0 °C 11,3 km/h (2 Bft)
29.03.2018 13:00 6,7 °C 69 % 1006,7 hPa 0,0 mm 7,5 km/h (2 Bft) W 269 ° 1 min 0,000 mm 3,5 UV-I 563 W/m² 1,4 °C 5,3 °C 12,9 km/h (3 Bft)
29.03.2018 13:01 6,8 °C 68 % 1006,6 hPa 0,0 mm 7,0 km/h (2 Bft) W 260 ° 1 min 0,204 mm 4,0 UV-I 580 W/m² 1,3 °C 5,5 °C 9,7 km/h (2 Bft)
29.03.2018 13:02 7,1 °C 71 % 1006,7 hPa 0,0 mm 8,9 km/h (2 Bft) W 267 ° 1 min 0,000 mm 3,9 UV-I 580 W/m² 2,2 °C 5,4 °C 12,9 km/h (3 Bft)
29.03.2018 13:03 7,1 °C 65 % 1006,6 hPa 0,0 mm 10,0 km/h (2 Bft) W-NW 292 ° 1 min 0,000 mm 5,0 UV-I 580 W/m² 1,0 °C 5,2 °C 12,9 km/h (3 Bft)
29.03.2018 13:04 7,1 °C 66 % 1006,6 hPa 0,0 mm 6,1 km/h (2 Bft) W-SW 253 ° 1 min 0,000 mm 5,0 UV-I 900 W/m² 1,2 °C 6,1 °C 9,7 km/h (2 Bft)
29.03.2018 13:05 7,2 °C 64 % 1006,6 hPa 0,0 mm 7,4 km/h (2 Bft) W 268 ° 1 min 0,000 mm 3,1 UV-I 900 W/m² 0,9 °C 5,9 °C 11,3 km/h (2 Bft)
29.03.2018 13:06 7,2 °C 65 % 1006,7 hPa 0,0 mm 5,1 km/h (1 Bft) W-SW 253 ° 1 min 0,000 mm 3,1 UV-I 424 W/m² 1,1 °C 6,5 °C 8,0 km/h (2 Bft)
29.03.2018 13:07 7,2 °C 66 % 1006,7 hPa 0,0 mm 7,1 km/h (2 Bft) W-SW 254 ° 1 min 0,000 mm 3,1 UV-I 424 W/m² 1,3 °C 5,9 °C 9,7 km/h (2 Bft)
29.03.2018 13:08 7,2 °C 65 % 1006,7 hPa 0,0 mm 6,9 km/h (2 Bft) W-NW 284 ° 1 min 0,000 mm 4,1 UV-I 424 W/m² 1,1 °C 6,0 °C 11,3 km/h (2 Bft)
29.03.2018 13:09 7,2 °C 65 % 1006,6 hPa 0,0 mm 9,5 km/h (2 Bft) W-SW 254 ° 1 min 0,000 mm 3,8 UV-I 424 W/m² 1,1 °C 5,4 °C 11,3 km/h (2 Bft)
29.03.2018 13:10 7,3 °C 67 % 1006,6 hPa 0,0 mm 11,9 km/h (2 Bft) W 268 ° 1 min 0,000 mm 5,3 UV-I 424 W/m² 1,6 °C 5,1 °C 14,5 km/h (3 Bft)
29.03.2018 13:11 7,4 °C 65 % 1006,6 hPa 0,0 mm 12,7 km/h (3 Bft) W 267 ° 1 min 0,000 mm 4,3 UV-I 798 W/m² 1,3 °C 5,1 °C 16,1 km/h (3 Bft)
29.03.2018 13:12 7,5 °C 63 % 1006,6 hPa 0,0 mm 13,1 km/h (3 Bft) W 266 ° 1 min 0,000 mm 5,4 UV-I 798 W/m² 0,9 °C 5,1 °C 16,1 km/h (3 Bft)
29.03.2018 13:13 7,7 °C 64 % 1006,6 hPa 0,0 mm 3,7 km/h (1 Bft) SW 232 ° 1 min 0,000 mm 5,3 UV-I 909 W/m² 1,3 °C 7,7 °C 4,8 km/h (1 Bft)
29.03.2018 13:14 7,8 °C 61 % 1006,5 hPa 0,0 mm 4,6 km/h (1 Bft) W 280 ° 1 min 0,000 mm 5,4 UV-I 947 W/m² 0,8 °C 7,4 °C 6,4 km/h (2 Bft)
29.03.2018 13:15 8,1 °C 65 % 1006,5 hPa 0,0 mm 8,6 km/h (2 Bft) NW 307 ° 1 min 0,000 mm 5,4 UV-I 997 W/m² 1,9 °C 6,6 °C 17,7 km/h (3 Bft)
29.03.2018 13:16 8,3 °C 61 % 1006,5 hPa 0,0 mm 5,9 km/h (2 Bft) W-SW 249 ° 1 min 0,000 mm 5,2 UV-I 997 W/m² 1,2 °C 7,5 °C 9,7 km/h (2 Bft)
29.03.2018 13:17 8,4 °C 66 % 1006,6 hPa 0,0 mm 11,0 km/h (2 Bft) W 272 ° 1 min 0,000 mm 5,2 UV-I 907 W/m² 2,4 °C 6,5 °C 17,7 km/h (3 Bft)
29.03.2018 13:18 8,6 °C 61 % 1006,5 hPa 0,0 mm 10,7 km/h (2 Bft) W-SW 250 ° 1 min 0,000 mm 4,7 UV-I 896 W/m² 1,5 °C 6,8 °C 14,5 km/h (3 Bft)
29.03.2018 13:19 8,4 °C 54 % 1006,5 hPa 0,0 mm 9,3 km/h (2 Bft) W 259 ° 1 min 0,000 mm 4,6 UV-I 896 W/m² -0,4 °C 6,9 °C 17,7 km/h (3 Bft)
29.03.2018 13:20 8,2 °C 58 % 1006,6 hPa 0,0 mm 11,5 km/h (2 Bft) W 268 ° 1 min 0,000 mm 4,0 UV-I 629 W/m² 0,4 °C 6,2 °C 16,1 km/h (3 Bft)
29.03.2018 13:21 7,8 °C 55 % 1006,5 hPa 0,0 mm 9,2 km/h (2 Bft) W 265 ° 1 min 0,000 mm 3,2 UV-I 629 W/m² -0,7 °C 6,2 °C 11,3 km/h (2 Bft)
29.03.2018 13:22 7,7 °C 56 % 1006,5 hPa 0,0 mm 6,0 km/h (2 Bft) W-NW 290 ° 1 min 0,000 mm 3,4 UV-I 443 W/m² -0,5 °C 6,8 °C 9,7 km/h (2 Bft)
29.03.2018 13:23 7,5 °C 59 % 1006,5 hPa 0,0 mm 5,8 km/h (2 Bft) W-NW 282 ° 1 min 0,000 mm 3,5 UV-I 490 W/m² 0,0 °C 6,7 °C 12,9 km/h (3 Bft)
29.03.2018 13:24 7,4 °C 58 % 1006,5 hPa 0,0 mm 7,3 km/h (2 Bft) W 279 ° 1 min 0,000 mm 3,2 UV-I 422 W/m² -0,3 °C 6,1 °C 11,3 km/h (2 Bft)
29.03.2018 13:25 7,4 °C 60 % 1006,4 hPa 0,0 mm 5,0 km/h (1 Bft) W-NW 282 ° 1 min 0,000 mm 3,1 UV-I 378 W/m² 0,2 °C 6,8 °C 9,7 km/h (2 Bft)
29.03.2018 13:26 7,4 °C 60 % 1006,4 hPa 0,0 mm 7,0 km/h (2 Bft) NW 317 ° 1 min 0,000 mm 3,0 UV-I 383 W/m² 0,2 °C 6,2 °C 9,7 km/h (2 Bft)
29.03.2018 13:27 7,4 °C 61 % 1006,4 hPa 0,0 mm 6,4 km/h (2 Bft) NW 306 ° 1 min 0,000 mm 3,0 UV-I 362 W/m² 0,4 °C 6,4 °C 11,3 km/h (2 Bft)
29.03.2018 13:28 7,4 °C 59 % 1006,4 hPa 0,0 mm 5,3 km/h (1 Bft) W-NW 290 ° 1 min 0,000 mm 2,8 UV-I 336 W/m² -0,1 °C 6,7 °C 6,4 km/h (2 Bft)
29.03.2018 13:29 7,3 °C 59 % 1006,4 hPa 0,0 mm 5,1 km/h (1 Bft) W 265 ° 1 min 0,000 mm 2,8 UV-I 323 W/m² -0,2 °C 6,7 °C 9,7 km/h (2 Bft)
29.03.2018 13:30 7,3 °C 60 % 1006,4 hPa 0,0 mm 12,3 km/h (3 Bft) W-SW 246 ° 1 min 0,000 mm 2,8 UV-I 325 W/m² 0,1 °C 5,0 °C 17,7 km/h (3 Bft)
29.03.2018 13:31 7,2 °C 58 % 1006,4 hPa 0,0 mm 10,1 km/h (2 Bft) W 278 ° 1 min 0,000 mm 2,8 UV-I 325 W/m² -0,5 °C 5,3 °C 14,5 km/h (3 Bft)
29.03.2018 13:32 7,2 °C 57 % 1006,4 hPa 0,0 mm 4,4 km/h (1 Bft) W-SW 255 ° 1 min 0,000 mm 2,7 UV-I 306 W/m² -0,7 °C 7,2 °C 11,3 km/h (2 Bft)
29.03.2018 13:33 7,2 °C 58 % 1006,3 hPa 0,0 mm 4,8 km/h (1 Bft) W 266 ° 1 min 0,000 mm 2,7 UV-I 295 W/m² -0,5 °C 6,7 °C 9,7 km/h (2 Bft)
29.03.2018 13:34 7,2 °C 60 % 1006,3 hPa 0,0 mm 6,0 km/h (2 Bft) W-SW 238 ° 0 min 0,000 mm 2,6 UV-I 288 W/m² -0,0 °C 6,3 °C 9,7 km/h (2 Bft)
29.03.2018 13:35 7,3 °C 60 % 1006,2 hPa 0,0 mm 6,6 km/h (2 Bft) W 275 ° 0 min 0,000 mm 2,6 UV-I 283 W/m² 0,1 °C 6,2 °C 14,5 km/h (3 Bft)
29.03.2018 13:36 7,3 °C 57 % 1006,3 hPa 0,0 mm 7,8 km/h (2 Bft) W 269 ° 0 min 0,000 mm 2,6 UV-I 283 W/m² -0,6 °C 5,9 °C 11,3 km/h (2 Bft)
29.03.2018 13:37 7,3 °C 56 % 1006,2 hPa 0,0 mm 4,1 km/h (1 Bft) W-NW 302 ° 1 min 0,000 mm 2,6 UV-I 301 W/m² -0,9 °C 7,3 °C 6,4 km/h (2 Bft)
29.03.2018 13:38 7,3 °C 56 % 1006,2 hPa 0,0 mm 9,3 km/h (2 Bft) W-SW 246 ° 1 min 0,000 mm 2,7 UV-I 322 W/m² -0,9 °C 5,5 °C 14,5 km/h (3 Bft)
29.03.2018 13:39 7,3 °C 60 % 1006,2 hPa 0,0 mm 6,0 km/h (2 Bft) W-SW 256 ° 1 min 0,000 mm 2,6 UV-I 306 W/m² 0,1 °C 6,4 °C 9,7 km/h (2 Bft)
29.03.2018 13:40 7,3 °C 54 % 1006,2 hPa 0,0 mm 6,4 km/h (2 Bft) SW 233 ° 1 min 0,000 mm 2,7 UV-I 325 W/m² -1,4 °C 6,3 °C 9,7 km/h (2 Bft)
29.03.2018 13:41 7,3 °C 56 % 1006,2 hPa 0,0 mm 5,1 km/h (1 Bft) W-NW 288 ° 1 min 0,000 mm 2,6 UV-I 318 W/m² -0,9 °C 6,7 °C 8,0 km/h (2 Bft)
29.03.2018 13:42 7,4 °C 55 % 1006,2 hPa 0,0 mm 4,8 km/h (1 Bft) W-NW 290 ° 1 min 0,000 mm 2,5 UV-I 297 W/m² -1,0 °C 6,9 °C 6,4 km/h (2 Bft)
29.03.2018 13:43 7,4 °C 54 % 1006,2 hPa 0,0 mm 1,9 km/h (1 Bft) W 271 ° 1 min 0,000 mm 2,5 UV-I 304 W/m² -1,3 °C 7,4 °C 4,8 km/h (1 Bft)
29.03.2018 13:44 7,6 °C 58 % 1006,2 hPa 0,0 mm 5,2 km/h (1 Bft) W-SW 255 ° 1 min 0,000 mm 2,4 UV-I 308 W/m² -0,1 °C 7,0 °C 6,4 km/h (2 Bft)
29.03.2018 13:45 7,5 °C 54 % 1006,2 hPa 0,0 mm 3,6 km/h (1 Bft) W 271 ° 1 min 0,000 mm 2,4 UV-I 308 W/m² -1,2 °C 7,5 °C 6,4 km/h (2 Bft)
29.03.2018 13:46 7,4 °C 56 % 1006,2 hPa 0,0 mm 5,8 km/h (2 Bft) W 267 ° 1 min 0,000 mm 2,4 UV-I 308 W/m² -0,8 °C 6,5 °C 9,7 km/h (2 Bft)
29.03.2018 13:47 7,4 °C 54 % 1006,2 hPa 0,0 mm 5,0 km/h (1 Bft) W-SW 257 ° 1 min 0,000 mm 2,4 UV-I 311 W/m² -1,3 °C 6,8 °C 8,0 km/h (2 Bft)
29.03.2018 13:48 7,4 °C 53 % 1006,2 hPa 0,0 mm 3,2 km/h (1 Bft) W 272 ° 1 min 0,000 mm 2,4 UV-I 325 W/m² -1,5 °C 7,4 °C 6,4 km/h (2 Bft)
29.03.2018 13:49 7,4 °C 53 % 1006,2 hPa 0,0 mm 6,8 km/h (2 Bft) W 265 ° 1 min 0,000 mm 2,4 UV-I 320 W/m² -1,5 °C 6,3 °C 11,3 km/h (2 Bft)
29.03.2018 13:50 7,4 °C 52 % 1006,1 hPa 0,0 mm 9,1 km/h (2 Bft) NW 306 ° 1 min 0,000 mm 2,4 UV-I 308 W/m² -1,8 °C 5,7 °C 12,9 km/h (3 Bft)
29.03.2018 13:51 7,4 °C 52 % 1006,1 hPa 0,0 mm 7,4 km/h (2 Bft) W 269 ° 1 min 0,000 mm 2,3 UV-I 294 W/m² -1,8 °C 6,1 °C 11,3 km/h (2 Bft)
29.03.2018 13:52 7,5 °C 55 % 1006,2 hPa 0,0 mm 5,6 km/h (1 Bft) SW 234 ° 0 min 0,000 mm 2,2 UV-I 285 W/m² -0,9 °C 6,7 °C 8,0 km/h (2 Bft)
29.03.2018 13:53 7,6 °C 53 % 1006,2 hPa 0,0 mm 7,2 km/h (2 Bft) W-SW 240 ° 0 min 0,000 mm 2,1 UV-I 278 W/m² -1,4 °C 6,4 °C 9,7 km/h (2 Bft)
29.03.2018 13:54 7,6 °C 52 % 1006,1 hPa 0,0 mm 4,0 km/h (1 Bft) W 269 ° 0 min 0,000 mm 2,1 UV-I 274 W/m² -1,6 °C 7,6 °C 4,8 km/h (1 Bft)
29.03.2018 13:55 7,6 °C 53 % 1006,1 hPa 0,0 mm 4,4 km/h (1 Bft) W-NW 289 ° 0 min 0,000 mm 2,1 UV-I 279 W/m² -1,4 °C 7,6 °C 6,4 km/h (2 Bft)
29.03.2018 13:56 7,6 °C 53 % 1006,1 hPa 0,0 mm 5,1 km/h (1 Bft) W-SW 253 ° 1 min 0,000 mm 2,2 UV-I 290 W/m² -1,4 °C 7,0 °C 9,7 km/h (2 Bft)
29.03.2018 13:57 7,6 °C 51 % 1006,1 hPa 0,0 mm 3,4 km/h (1 Bft) W 275 ° 1 min 0,000 mm 2,3 UV-I 311 W/m² -1,9 °C 7,6 °C 4,8 km/h (1 Bft)
29.03.2018 13:58 7,6 °C 51 % 1006,1 hPa 0,0 mm 4,0 km/h (1 Bft) W 267 ° 1 min 0,000 mm 2,4 UV-I 325 W/m² -1,9 °C 7,6 °C 4,8 km/h (1 Bft)
29.03.2018 13:59 7,6 °C 53 % 1006,0 hPa 0,0 mm 4,6 km/h (1 Bft) S-SW 199 ° 1 min 0,000 mm 2,5 UV-I 334 W/m² -1,4 °C 7,2 °C 6,4 km/h (2 Bft)
29.03.2018 14:00 7,5 °C 52 % 1006,0 hPa 0,0 mm 8,1 km/h (2 Bft) S-SW 192 ° 1 min 0,228 mm 2,6 UV-I 338 W/m² -1,7 °C 6,0 °C 11,3 km/h (2 Bft)
29.03.2018 14:01 7,4 °C 51 % 1005,9 hPa 0,0 mm 4,8 km/h (1 Bft) S 187 ° 1 min 0,000 mm 2,6 UV-I 338 W/m² -2,1 °C 6,9 °C 8,0 km/h (2 Bft)
29.03.2018 14:02 7,4 °C 52 % 1005,9 hPa 0,0 mm 6,6 km/h (2 Bft) W-SW 255 ° 1 min 0,000 mm 2,6 UV-I 332 W/m² -1,8 °C 6,3 °C 9,7 km/h (2 Bft)
29.03.2018 14:03 7,4 °C 52 % 1005,9 hPa 0,0 mm 7,0 km/h (2 Bft) W-NW 298 ° 1 min 0,000 mm 2,6 UV-I 332 W/m² -1,8 °C 6,2 °C 9,7 km/h (2 Bft)
29.03.2018 14:04 7,5 °C 52 % 1005,8 hPa 0,0 mm 6,6 km/h (2 Bft) W 279 ° 1 min 0,000 mm 2,6 UV-I 334 W/m² -1,7 °C 6,4 °C 9,7 km/h (2 Bft)
29.03.2018 14:05 7,5 °C 51 % 1005,8 hPa 0,0 mm 3,2 km/h (1 Bft) W 280 ° 1 min 0,000 mm 2,7 UV-I 343 W/m² -2,0 °C 7,5 °C 4,8 km/h (1 Bft)
29.03.2018 14:06 7,6 °C 53 % 1005,9 hPa 0,0 mm 3,3 km/h (1 Bft) W-SW 245 ° 1 min 0,000 mm 2,6 UV-I 332 W/m² -1,4 °C 7,6 °C 6,4 km/h (2 Bft)
29.03.2018 14:07 7,6 °C 51 % 1005,9 hPa 0,0 mm 6,0 km/h (2 Bft) W-SW 246 ° 1 min 0,000 mm 2,5 UV-I 309 W/m² -1,9 °C 6,7 °C 8,0 km/h (2 Bft)
29.03.2018 14:08 7,7 °C 50 % 1005,9 hPa 0,0 mm 6,7 km/h (2 Bft) W 264 ° 1 min 0,000 mm 2,4 UV-I 302 W/m² -2,1 °C 6,6 °C 11,3 km/h (2 Bft)
29.03.2018 14:09 7,7 °C 53 % 1005,9 hPa 0,0 mm 10,0 km/h (2 Bft) W-SW 241 ° 1 min 0,000 mm 2,4 UV-I 308 W/m² -1,3 °C 5,9 °C 12,9 km/h (3 Bft)
29.03.2018 14:10 7,8 °C 50 % 1005,9 hPa 0,0 mm 11,7 km/h (2 Bft) W-NW 285 ° 1 min 0,000 mm 2,5 UV-I 320 W/m² -2,0 °C 5,7 °C 17,7 km/h (3 Bft)
29.03.2018 14:11 7,7 °C 47 % 1005,9 hPa 0,0 mm 9,2 km/h (2 Bft) W-NW 286 ° 1 min 0,000 mm 2,6 UV-I 338 W/m² -2,9 °C 6,0 °C 11,3 km/h (2 Bft)
29.03.2018 14:12 7,7 °C 48 % 1005,9 hPa 0,0 mm 5,0 km/h (1 Bft) W-NW 291 ° 1 min 0,000 mm 4,4 UV-I 459 W/m² -2,6 °C 7,1 °C 6,4 km/h (2 Bft)
29.03.2018 14:13 7,7 °C 48 % 1005,9 hPa 0,0 mm 4,8 km/h (1 Bft) W-NW 284 ° 1 min 0,000 mm 3,6 UV-I 487 W/m² -2,6 °C 7,2 °C 9,7 km/h (2 Bft)
29.03.2018 14:14 7,8 °C 48 % 1005,9 hPa 0,0 mm 4,4 km/h (1 Bft) W 266 ° 1 min 0,000 mm 3,7 UV-I 573 W/m² -2,5 °C 7,8 °C 6,4 km/h (2 Bft)
29.03.2018 14:15 7,8 °C 48 % 1005,9 hPa 0,0 mm 6,6 km/h (2 Bft) NW 309 ° 1 min 0,000 mm 4,7 UV-I 573 W/m² -2,5 °C 6,8 °C 11,3 km/h (2 Bft)
29.03.2018 14:16 7,9 °C 48 % 1005,9 hPa 0,0 mm 4,4 km/h (1 Bft) NW 318 ° 1 min 0,000 mm 4,6 UV-I 573 W/m² -2,4 °C 7,9 °C 9,7 km/h (2 Bft)
29.03.2018 14:17 8,1 °C 49 % 1005,9 hPa 0,0 mm 5,1 km/h (1 Bft) W 277 ° 1 min 0,000 mm 3,3 UV-I 446 W/m² -2,0 °C 7,6 °C 9,7 km/h (2 Bft)
29.03.2018 14:18 8,2 °C 49 % 1005,9 hPa 0,0 mm 2,3 km/h (1 Bft) W 277 ° 1 min 0,000 mm 3,3 UV-I 541 W/m² -1,9 °C 8,2 °C 3,2 km/h (1 Bft)
29.03.2018 14:19 8,1 °C 47 % 1006,0 hPa 0,0 mm 3,1 km/h (1 Bft) W 265 ° 1 min 0,000 mm 4,7 UV-I 541 W/m² -2,5 °C 8,1 °C 4,8 km/h (1 Bft)
29.03.2018 14:20 8,2 °C 47 % 1006,0 hPa 0,0 mm 4,7 km/h (1 Bft) W-NW 293 ° 1 min 0,000 mm 4,5 UV-I 541 W/m² -2,4 °C 7,8 °C 9,7 km/h (2 Bft)
29.03.2018 14:21 8,3 °C 51 % 1005,9 hPa 0,0 mm 7,1 km/h (2 Bft) W-NW 300 ° 1 min 0,000 mm 3,8 UV-I 541 W/m² -1,2 °C 7,2 °C 9,7 km/h (2 Bft)
29.03.2018 14:22 8,3 °C 47 % 1006,0 hPa 0,0 mm 8,2 km/h (2 Bft) NW 311 ° 1 min 0,000 mm 3,0 UV-I 424 W/m² -2,3 °C 7,0 °C 11,3 km/h (2 Bft)
29.03.2018 14:23 8,3 °C 49 % 1006,0 hPa 0,0 mm 4,9 km/h (1 Bft) NW 311 ° 1 min 0,000 mm 3,1 UV-I 443 W/m² -1,8 °C 7,9 °C 9,7 km/h (2 Bft)
29.03.2018 14:24 8,3 °C 53 % 1005,9 hPa 0,0 mm 5,9 km/h (2 Bft) NW 319 ° 1 min 0,000 mm 2,4 UV-I 443 W/m² -0,7 °C 7,5 °C 8,0 km/h (2 Bft)
29.03.2018 14:25 8,3 °C 48 % 1005,9 hPa 0,0 mm 7,2 km/h (2 Bft) NW 319 ° 0 min 0,000 mm 2,3 UV-I 264 W/m² -2,1 °C 7,2 °C 12,9 km/h (3 Bft)
29.03.2018 14:26 8,2 °C 47 % 1006,0 hPa 0,0 mm 6,1 km/h (2 Bft) NW 314 ° 0 min 0,000 mm 2,3 UV-I 255 W/m² -2,4 °C 7,4 °C 8,0 km/h (2 Bft)
29.03.2018 14:27 8,1 °C 44 % 1006,0 hPa 0,0 mm 5,2 km/h (1 Bft) NW 315 ° 0 min 0,000 mm 2,3 UV-I 251 W/m² -3,4 °C 7,5 °C 6,4 km/h (2 Bft)
29.03.2018 14:28 7,9 °C 46 % 1005,9 hPa 0,0 mm 4,2 km/h (1 Bft) SW 236 ° 0 min 0,000 mm 2,2 UV-I 250 W/m² -3,0 °C 7,9 °C 6,4 km/h (2 Bft)
29.03.2018 14:29 7,8 °C 49 % 1005,9 hPa 0,0 mm 4,2 km/h (1 Bft) W 263 ° 0 min 0,000 mm 2,1 UV-I 229 W/m² -2,2 °C 7,8 °C 6,4 km/h (2 Bft)
29.03.2018 14:30 7,8 °C 49 % 1005,9 hPa 0,0 mm 5,8 km/h (2 Bft) W 269 ° 0 min 0,000 mm 2,0 UV-I 234 W/m² -2,2 °C 7,0 °C 9,7 km/h (2 Bft)
29.03.2018 14:31 7,8 °C 48 % 1005,9 hPa 0,0 mm 2,9 km/h (1 Bft) W 269 ° 0 min 0,000 mm 2,1 UV-I 248 W/m² -2,5 °C 7,8 °C 3,2 km/h (1 Bft)
29.03.2018 14:32 7,8 °C 48 % 1005,9 hPa 0,0 mm 3,4 km/h (1 Bft) W 280 ° 0 min 0,000 mm 2,1 UV-I 264 W/m² -2,5 °C 7,8 °C 4,8 km/h (1 Bft)
29.03.2018 14:33 7,8 °C 50 % 1005,9 hPa 0,0 mm 5,8 km/h (2 Bft) W 279 ° 0 min 0,000 mm 2,2 UV-I 276 W/m² -2,0 °C 7,0 °C 9,7 km/h (2 Bft)
29.03.2018 14:34 7,8 °C 48 % 1005,9 hPa 0,0 mm 9,3 km/h (2 Bft) W-NW 289 ° 1 min 0,000 mm 2,2 UV-I 290 W/m² -2,5 °C 6,1 °C 12,9 km/h (3 Bft)
29.03.2018 14:35 7,8 °C 50 % 1005,9 hPa 0,0 mm 9,1 km/h (2 Bft) W 277 ° 1 min 0,000 mm 2,2 UV-I 290 W/m² -2,0 °C 6,2 °C 12,9 km/h (3 Bft)
29.03.2018 14:36 7,8 °C 46 % 1005,9 hPa 0,0 mm 7,4 km/h (2 Bft) W-NW 302 ° 1 min 0,000 mm 2,2 UV-I 290 W/m² -3,1 °C 6,6 °C 11,3 km/h (2 Bft)
29.03.2018 14:37 7,8 °C 48 % 1005,9 hPa 0,0 mm 4,3 km/h (1 Bft) W-NW 294 ° 1 min 0,000 mm 2,2 UV-I 301 W/m² -2,5 °C 7,8 °C 6,4 km/h (2 Bft)
29.03.2018 14:38 7,8 °C 46 % 1006,0 hPa 0,0 mm 4,6 km/h (1 Bft) W 265 ° 1 min 0,000 mm 2,2 UV-I 295 W/m² -3,1 °C 7,4 °C 9,7 km/h (2 Bft)
29.03.2018 14:39 7,7 °C 44 % 1006,0 hPa 0,0 mm 7,5 km/h (2 Bft) W 272 ° 1 min 0,000 mm 2,2 UV-I 302 W/m² -3,8 °C 6,4 °C 11,3 km/h (2 Bft)
29.03.2018 14:40 7,7 °C 46 % 1006,0 hPa 0,0 mm 5,1 km/h (1 Bft) W 269 ° 1 min 0,000 mm 2,2 UV-I 304 W/m² -3,2 °C 7,1 °C 8,0 km/h (2 Bft)
29.03.2018 14:41 7,8 °C 49 % 1006,0 hPa 0,0 mm 5,0 km/h (1 Bft) W-NW 301 ° 1 min 0,000 mm 2,2 UV-I 301 W/m² -2,2 °C 7,3 °C 6,4 km/h (2 Bft)
29.03.2018 14:42 7,8 °C 48 % 1006,0 hPa 0,0 mm 7,9 km/h (2 Bft) W-NW 301 ° 1 min 0,000 mm 2,1 UV-I 297 W/m² -2,5 °C 6,4 °C 11,3 km/h (2 Bft)
29.03.2018 14:43 7,8 °C 48 % 1006,0 hPa 0,0 mm 11,2 km/h (2 Bft) W 264 ° 1 min 0,000 mm 2,2 UV-I 308 W/m² -2,5 °C 5,8 °C 14,5 km/h (3 Bft)
29.03.2018 14:44 7,8 °C 47 % 1006,0 hPa 0,0 mm 7,7 km/h (2 Bft) W-NW 289 ° 1 min 0,000 mm 2,2 UV-I 308 W/m² -2,8 °C 6,5 °C 12,9 km/h (3 Bft)
29.03.2018 14:45 7,8 °C 46 % 1005,9 hPa 0,0 mm 3,9 km/h (1 Bft) NW 307 ° 1 min 0,000 mm 2,2 UV-I 290 W/m² -3,1 °C 7,8 °C 6,4 km/h (2 Bft)
29.03.2018 14:46 7,8 °C 48 % 1006,0 hPa 0,0 mm 7,8 km/h (2 Bft) NW 314 ° 0 min 0,000 mm 1,9 UV-I 255 W/m² -2,5 °C 6,5 °C 16,1 km/h (3 Bft)
29.03.2018 14:47 7,8 °C 47 % 1006,0 hPa 0,0 mm 7,1 km/h (2 Bft) NW 309 ° 0 min 0,000 mm 1,7 UV-I 199 W/m² -2,8 °C 6,6 °C 12,9 km/h (3 Bft)
29.03.2018 14:48 7,8 °C 45 % 1006,0 hPa 0,0 mm 4,7 km/h (1 Bft) NW 319 ° 0 min 0,000 mm 1,3 UV-I 169 W/m² -3,4 °C 7,4 °C 6,4 km/h (2 Bft)
29.03.2018 14:49 7,8 °C 48 % 1006,0 hPa 0,0 mm 4,5 km/h (1 Bft) W-NW 291 ° 0 min 0,000 mm 1,2 UV-I 141 W/m² -2,5 °C 7,8 °C 8,0 km/h (2 Bft)
29.03.2018 14:50 7,7 °C 45 % 1006,0 hPa 0,0 mm 3,5 km/h (1 Bft) NW 306 ° 0 min 0,000 mm 1,1 UV-I 125 W/m² -3,5 °C 7,7 °C 6,4 km/h (2 Bft)
29.03.2018 14:51 7,6 °C 47 % 1006,0 hPa 0,0 mm 5,2 km/h (1 Bft) N-NW 332 ° 0 min 0,000 mm 1,1 UV-I 123 W/m² -3,0 °C 7,0 °C 6,4 km/h (2 Bft)
29.03.2018 14:52 7,6 °C 50 % 1006,0 hPa 0,0 mm 9,5 km/h (2 Bft) W-NW 286 ° 0 min 0,000 mm 1,2 UV-I 141 W/m² -2,1 °C 5,9 °C 12,9 km/h (3 Bft)
29.03.2018 14:53 7,6 °C 47 % 1005,9 hPa 0,0 mm 5,4 km/h (1 Bft) W 273 ° 0 min 0,000 mm 1,4 UV-I 227 W/m² -3,0 °C 6,9 °C 6,4 km/h (2 Bft)
29.03.2018 14:54 7,5 °C 45 % 1005,9 hPa 0,0 mm 4,5 km/h (1 Bft) NW 319 ° 0 min 0,000 mm 1,8 UV-I 251 W/m² -3,6 °C 7,5 °C 6,4 km/h (2 Bft)
29.03.2018 14:55 7,6 °C 50 % 1005,9 hPa 0,0 mm 4,2 km/h (1 Bft) NW 319 ° 0 min 0,000 mm 1,8 UV-I 258 W/m² -2,1 °C 7,6 °C 6,4 km/h (2 Bft)
29.03.2018 14:56 7,6 °C 49 % 1005,9 hPa 0,0 mm 4,2 km/h (1 Bft) NW 304 ° 0 min 0,000 mm 1,7 UV-I 248 W/m² -2,4 °C 7,6 °C 8,0 km/h (2 Bft)
29.03.2018 14:57 7,7 °C 49 % 1005,9 hPa 0,0 mm 4,9 km/h (1 Bft) NW 323 ° 0 min 0,000 mm 1,7 UV-I 230 W/m² -2,3 °C 7,2 °C 8,0 km/h (2 Bft)
29.03.2018 14:58 7,7 °C 47 % 1005,9 hPa 0,0 mm 5,4 km/h (1 Bft) W-NW 303 ° 0 min 0,000 mm 1,6 UV-I 207 W/m² -2,9 °C 7,0 °C 8,0 km/h (2 Bft)
29.03.2018 14:59 7,6 °C 46 % 1005,9 hPa 0,0 mm 2,1 km/h (1 Bft) W-NW 303 ° 0 min 0,000 mm 1,5 UV-I 207 W/m² -3,3 °C 7,6 °C 3,2 km/h (1 Bft)
29.03.2018 15:00 7,6 °C 48 % 1005,9 hPa 0,0 mm 2,7 km/h (1 Bft) N-NW 342 ° 0 min 0,178 mm 1,5 UV-I 204 W/m² -2,7 °C 7,6 °C 6,4 km/h (2 Bft)
29.03.2018 15:01 7,6 °C 48 % 1006,0 hPa 0,0 mm 6,8 km/h (2 Bft) NW 321 ° 0 min 0,000 mm 1,5 UV-I 199 W/m² -2,7 °C 6,5 °C 9,7 km/h (2 Bft)
29.03.2018 15:02 7,6 °C 49 % 1006,0 hPa 0,0 mm 8,2 km/h (2 Bft) NW 315 ° 0 min 0,000 mm 1,5 UV-I 192 W/m² -2,4 °C 6,1 °C 11,3 km/h (2 Bft)
29.03.2018 15:03 7,6 °C 47 % 1006,0 hPa 0,0 mm 5,3 km/h (1 Bft) NW 319 ° 0 min 0,000 mm 1,5 UV-I 188 W/m² -3,0 °C 6,9 °C 8,0 km/h (2 Bft)
29.03.2018 15:04 7,6 °C 49 % 1006,0 hPa 0,0 mm 4,4 km/h (1 Bft) NW 319 ° 0 min 0,000 mm 1,4 UV-I 185 W/m² -2,4 °C 7,6 °C 6,4 km/h (2 Bft)
29.03.2018 15:05 7,6 °C 50 % 1006,0 hPa 0,0 mm 5,7 km/h (1 Bft) W-NW 300 ° 0 min 0,000 mm 1,4 UV-I 181 W/m² -2,1 °C 6,8 °C 8,0 km/h (2 Bft)
29.03.2018 15:06 7,6 °C 51 % 1006,0 hPa 0,0 mm 6,0 km/h (2 Bft) NW 306 ° 0 min 0,000 mm 1,3 UV-I 176 W/m² -1,9 °C 6,7 °C 9,7 km/h (2 Bft)
29.03.2018 15:07 7,7 °C 51 % 1006,0 hPa 0,0 mm 4,7 km/h (1 Bft) NW 317 ° 0 min 0,000 mm 1,3 UV-I 171 W/m² -1,8 °C 7,3 °C 8,0 km/h (2 Bft)
29.03.2018 15:08 7,6 °C 51 % 1006,0 hPa 0,0 mm 4,2 km/h (1 Bft) NW 320 ° 0 min 0,000 mm 1,3 UV-I 169 W/m² -1,9 °C 7,6 °C 8,0 km/h (2 Bft)
29.03.2018 15:09 7,6 °C 50 % 1006,0 hPa 0,0 mm 6,4 km/h (2 Bft) NW 311 ° 0 min 0,000 mm 1,3 UV-I 171 W/m² -2,1 °C 6,6 °C 8,0 km/h (2 Bft)
29.03.2018 15:10 7,6 °C 51 % 1006,0 hPa 0,0 mm 5,0 km/h (1 Bft) NW 310 ° 0 min 0,000 mm 1,3 UV-I 183 W/m² -1,9 °C 7,0 °C 8,0 km/h (2 Bft)
29.03.2018 15:11 7,6 °C 51 % 1006,0 hPa 0,0 mm 8,0 km/h (2 Bft) W 277 ° 0 min 0,000 mm 1,3 UV-I 190 W/m² -1,9 °C 6,2 °C 12,9 km/h (3 Bft)
29.03.2018 15:12 7,6 °C 53 % 1005,9 hPa 0,0 mm 10,3 km/h (2 Bft) N-NW 327 ° 0 min 0,000 mm 1,4 UV-I 190 W/m² -1,4 °C 5,7 °C 16,1 km/h (3 Bft)
29.03.2018 15:13 7,6 °C 50 % 1005,9 hPa 0,0 mm 8,0 km/h (2 Bft) NW 313 ° 0 min 0,000 mm 1,4 UV-I 186 W/m² -2,1 °C 6,2 °C 14,5 km/h (3 Bft)
29.03.2018 15:14 7,6 °C 51 % 1006,0 hPa 0,0 mm 8,1 km/h (2 Bft) NW 320 ° 0 min 0,000 mm 1,3 UV-I 186 W/m² -1,9 °C 6,2 °C 14,5 km/h (3 Bft)
29.03.2018 15:15 7,5 °C 51 % 1005,9 hPa 0,0 mm 7,0 km/h (2 Bft) NW 309 ° 0 min 0,000 mm 1,3 UV-I 172 W/m² -2,0 °C 6,3 °C 11,3 km/h (2 Bft)
29.03.2018 15:16 7,5 °C 51 % 1005,9 hPa 0,0 mm 6,7 km/h (2 Bft) NW 323 ° 0 min 0,000 mm 1,3 UV-I 158 W/m² -2,0 °C 6,4 °C 9,7 km/h (2 Bft)
29.03.2018 15:17 7,5 °C 52 % 1005,9 hPa 0,0 mm 7,9 km/h (2 Bft) NW 315 ° 0 min 0,000 mm 1,2 UV-I 158 W/m² -1,7 °C 6,1 °C 12,9 km/h (3 Bft)
29.03.2018 15:18 7,4 °C 52 % 1005,9 hPa 0,0 mm 7,0 km/h (2 Bft) NW 304 ° 0 min 0,000 mm 1,3 UV-I 163 W/m² -1,8 °C 6,2 °C 11,3 km/h (2 Bft)
29.03.2018 15:19 7,4 °C 52 % 1005,9 hPa 0,0 mm 2,3 km/h (1 Bft) NW 304 ° 0 min 0,000 mm 1,3 UV-I 176 W/m² -1,8 °C 7,4 °C 3,2 km/h (1 Bft)
29.03.2018 15:20 7,4 °C 49 % 1005,9 hPa 0,0 mm 6,2 km/h (2 Bft) NW 319 ° 0 min 0,000 mm 1,4 UV-I 192 W/m² -2,6 °C 6,4 °C 12,9 km/h (3 Bft)
29.03.2018 15:21 7,4 °C 50 % 1005,8 hPa 0,0 mm 6,2 km/h (2 Bft) NW 313 ° 0 min 0,000 mm 1,5 UV-I 204 W/m² -2,3 °C 6,4 °C 9,7 km/h (2 Bft)
29.03.2018 15:22 7,3 °C 50 % 1005,8 hPa 0,0 mm 2,3 km/h (1 Bft) NW 314 ° 0 min 0,000 mm 1,5 UV-I 199 W/m² -2,4 °C 7,3 °C 4,8 km/h (1 Bft)
29.03.2018 15:23 7,4 °C 52 % 1005,8 hPa 0,0 mm 5,2 km/h (1 Bft) N-NW 331 ° 0 min 0,000 mm 1,5 UV-I 199 W/m² -1,8 °C 6,7 °C 8,0 km/h (2 Bft)
29.03.2018 15:24 7,4 °C 53 % 1005,8 hPa 0,0 mm 8,3 km/h (2 Bft) NW 313 ° 0 min 0,000 mm 1,4 UV-I 195 W/m² -1,5 °C 5,9 °C 12,9 km/h (3 Bft)
29.03.2018 15:25 7,4 °C 52 % 1005,8 hPa 0,0 mm 5,7 km/h (1 Bft) N 355 ° 0 min 0,000 mm 1,4 UV-I 192 W/m² -1,8 °C 6,6 °C 8,0 km/h (2 Bft)
29.03.2018 15:26 7,4 °C 51 % 1005,8 hPa 0,0 mm 6,0 km/h (2 Bft) N-NW 338 ° 0 min 0,000 mm 1,4 UV-I 195 W/m² -2,1 °C 6,5 °C 9,7 km/h (2 Bft)
29.03.2018 15:27 7,4 °C 51 % 1005,7 hPa 0,0 mm 4,6 km/h (1 Bft) NW 311 ° 0 min 0,000 mm 1,4 UV-I 199 W/m² -2,1 °C 7,0 °C 8,0 km/h (2 Bft)
29.03.2018 15:28 7,4 °C 52 % 1005,7 hPa 0,0 mm 6,9 km/h (2 Bft) NW 320 ° 0 min 0,000 mm 1,4 UV-I 160 W/m² -1,8 °C 6,2 °C 8,0 km/h (2 Bft)
29.03.2018 15:29 7,4 °C 52 % 1005,7 hPa 0,0 mm 5,4 km/h (1 Bft) NW 305 ° 0 min 0,000 mm 1,1 UV-I 130 W/m² -1,8 °C 6,7 °C 9,7 km/h (2 Bft)
29.03.2018 15:30 7,4 °C 52 % 1005,7 hPa 0,0 mm 3,6 km/h (1 Bft) NW 309 ° 0 min 0,000 mm 1,1 UV-I 104 W/m² -1,8 °C 7,4 °C 6,4 km/h (2 Bft)
29.03.2018 15:31 7,3 °C 53 % 1005,8 hPa 0,0 mm 4,5 km/h (1 Bft) NW 320 ° 0 min 0,000 mm 0,8 UV-I 84 W/m² -1,6 °C 7,3 °C 8,0 km/h (2 Bft)
29.03.2018 15:32 7,3 °C 54 % 1005,8 hPa 0,0 mm 5,6 km/h (1 Bft) W 279 ° 0 min 0,000 mm 0,7 UV-I 74 W/m² -1,4 °C 6,5 °C 11,3 km/h (2 Bft)
29.03.2018 15:33 7,2 °C 53 % 1005,8 hPa 0,0 mm 7,3 km/h (2 Bft) W-NW 296 ° 0 min 0,000 mm 0,7 UV-I 69 W/m² -1,7 °C 5,9 °C 12,9 km/h (3 Bft)
29.03.2018 15:34 7,2 °C 54 % 1005,9 hPa 0,0 mm 5,3 km/h (1 Bft) W-NW 302 ° 0 min 0,000 mm 0,6 UV-I 63 W/m² -1,5 °C 6,5 °C 8,0 km/h (2 Bft)
29.03.2018 15:35 7,1 °C 52 % 1005,9 hPa 0,0 mm 5,0 km/h (1 Bft) W-NW 284 ° 0 min 0,000 mm 0,5 UV-I 63 W/m² -2,1 °C 6,5 °C 8,0 km/h (2 Bft)
29.03.2018 15:36 6,9 °C 53 % 1005,9 hPa 0,0 mm 3,5 km/h (1 Bft) W-NW 284 ° 0 min 0,000 mm 0,5 UV-I 56 W/m² -2,0 °C 6,9 °C 4,8 km/h (1 Bft)
29.03.2018 15:37 6,9 °C 53 % 1005,9 hPa 0,0 mm 4,1 km/h (1 Bft) W-NW 296 ° 0 min 0,000 mm 0,0 UV-I 54 W/m² -2,0 °C 6,9 °C 6,4 km/h (2 Bft)
29.03.2018 15:38 6,8 °C 52 % 1006,0 hPa 0,0 mm 4,5 km/h (1 Bft) W-NW 296 ° 0 min 0,000 mm 0,0 UV-I 53 W/m² -2,4 °C 6,8 °C 4,8 km/h (1 Bft)
29.03.2018 15:39 6,8 °C 54 % 1006,0 hPa 0,0 mm 3,2 km/h (1 Bft) W-NW 298 ° 0 min 0,000 mm 0,0 UV-I 53 W/m² -1,8 °C 6,8 °C 6,4 km/h (2 Bft)
29.03.2018 15:40 6,8 °C 55 % 1005,9 hPa 0,0 mm 4,6 km/h (1 Bft) NW 306 ° 0 min 0,000 mm 0,0 UV-I 54 W/m² -1,6 °C 6,3 °C 4,8 km/h (1 Bft)
29.03.2018 15:41 6,7 °C 55 % 1005,9 hPa 0,0 mm 3,3 km/h (1 Bft) NW 306 ° 0 min 0,000 mm 0,0 UV-I 54 W/m² -1,7 °C 6,7 °C 4,8 km/h (1 Bft)
29.03.2018 15:42 6,7 °C 57 % 1005,9 hPa 0,0 mm 3,0 km/h (1 Bft) NW 306 ° 0 min 0,000 mm 0,0 UV-I 53 W/m² -1,2 °C 6,7 °C 6,4 km/h (2 Bft)
29.03.2018 15:43 6,7 °C 57 % 1005,9 hPa 0,0 mm 2,6 km/h (1 Bft) NW 306 ° 0 min 0,000 mm 0,0 UV-I 51 W/m² -1,2 °C 6,7 °C 4,8 km/h (1 Bft)
29.03.2018 15:44 6,7 °C 56 % 1005,8 hPa 0,0 mm 1,1 km/h (1 Bft) NW 306 ° 0 min 0,000 mm 0,0 UV-I 49 W/m² -1,4 °C 6,7 °C 3,2 km/h (1 Bft)
29.03.2018 15:45 6,6 °C 57 % 1005,8 hPa 0,0 mm 2,6 km/h (1 Bft) NW 307 ° 0 min 0,000 mm 0,0 UV-I 47 W/m² -1,3 °C 6,6 °C 3,2 km/h (1 Bft)
29.03.2018 15:46 6,6 °C 57 % 1005,9 hPa 0,0 mm 2,2 km/h (1 Bft) NW 308 ° 0 min 0,000 mm 0,0 UV-I 46 W/m² -1,3 °C 6,6 °C 4,8 km/h (1 Bft)
29.03.2018 15:47 6,6 °C 58 % 1005,8 hPa 0,0 mm 3,0 km/h (1 Bft) NW 308 ° 0 min 0,000 mm 0,0 UV-I 44 W/m² -1,1 °C 6,6 °C 4,8 km/h (1 Bft)
29.03.2018 15:48 6,6 °C 58 % 1005,9 hPa 0,0 mm 1,9 km/h (1 Bft) NW 308 ° 0 min 0,000 mm 0,0 UV-I 42 W/m² -1,1 °C 6,6 °C 4,8 km/h (1 Bft)
29.03.2018 15:49 6,6 °C 57 % 1005,8 hPa 0,0 mm 3,6 km/h (1 Bft) NW 308 ° 0 min 0,000 mm 0,0 UV-I 39 W/m² -1,3 °C 6,6 °C 6,4 km/h (2 Bft)
29.03.2018 15:50 6,5 °C 58 % 1005,9 hPa 0,0 mm 3,8 km/h (1 Bft) W-NW 300 ° 0 min 0,000 mm 0,0 UV-I 37 W/m² -1,2 °C 6,5 °C 4,8 km/h (1 Bft)
29.03.2018 15:51 6,5 °C 58 % 1006,0 hPa 0,0 mm 3,9 km/h (1 Bft) NW 304 ° 0 min 0,000 mm 0,0 UV-I 35 W/m² -1,2 °C 6,5 °C 6,4 km/h (2 Bft)
29.03.2018 15:52 6,4 °C 59 % 1006,0 hPa 0,0 mm 3,8 km/h (1 Bft) W-NW 284 ° 0 min 0,000 mm 0,0 UV-I 33 W/m² -1,0 °C 6,4 °C 6,4 km/h (2 Bft)
29.03.2018 15:53 6,4 °C 58 % 1006,0 hPa 0,0 mm 3,4 km/h (1 Bft) NW 304 ° 0 min 0,000 mm 0,0 UV-I 33 W/m² -1,2 °C 6,4 °C 6,4 km/h (2 Bft)
29.03.2018 15:54 6,4 °C 58 % 1006,1 hPa 0,0 mm 6,1 km/h (2 Bft) W-NW 300 ° 0 min 0,000 mm 0,0 UV-I 33 W/m² -1,2 °C 5,3 °C 11,3 km/h (2 Bft)
29.03.2018 15:55 6,3 °C 59 % 1006,1 hPa 0,0 mm 6,1 km/h (2 Bft) W-NW 302 ° 0 min 0,000 mm 0,0 UV-I 32 W/m² -1,1 °C 5,2 °C 8,0 km/h (2 Bft)
29.03.2018 15:56 6,3 °C 59 % 1006,2 hPa 0,0 mm 4,5 km/h (1 Bft) W-NW 286 ° 0 min 0,000 mm 0,0 UV-I 30 W/m² -1,1 °C 6,3 °C 8,0 km/h (2 Bft)
29.03.2018 15:57 6,3 °C 58 % 1006,2 hPa 0,0 mm 4,2 km/h (1 Bft) W-NW 289 ° 0 min 0,000 mm 0,0 UV-I 28 W/m² -1,3 °C 6,3 °C 9,7 km/h (2 Bft)
29.03.2018 15:58 6,2 °C 58 % 1006,2 hPa 0,0 mm 6,8 km/h (2 Bft) W-NW 300 ° 0 min 0,000 mm 0,0 UV-I 26 W/m² -1,4 °C 4,9 °C 9,7 km/h (2 Bft)
29.03.2018 15:59 6,2 °C 60 % 1006,2 hPa 0,0 mm 3,5 km/h (1 Bft) W-NW 298 ° 0 min 0,000 mm 0,0 UV-I 26 W/m² -1,0 °C 6,2 °C 8,0 km/h (2 Bft)
29.03.2018 16:00 6,2 °C 60 % 1006,2 hPa 0,0 mm 3,2 km/h (1 Bft) NW 313 ° 0 min 0,000 mm 0,0 UV-I 26 W/m² -1,0 °C 6,2 °C 4,8 km/h (1 Bft)
29.03.2018 16:01 6,1 °C 60 % 1006,2 hPa 0,0 mm 5,9 km/h (2 Bft) W-NW 292 ° 0 min 0,076 mm 0,0 UV-I 28 W/m² -1,1 °C 5,0 °C 8,0 km/h (2 Bft)
29.03.2018 16:02 6,1 °C 60 % 1006,3 hPa 0,0 mm 4,5 km/h (1 Bft) NW 307 ° 0 min 0,000 mm 0,0 UV-I 30 W/m² -1,1 °C 6,1 °C 6,4 km/h (2 Bft)
29.03.2018 16:03 6,1 °C 59 % 1006,3 hPa 0,0 mm 3,2 km/h (1 Bft) W 263 ° 0 min 0,000 mm 0,0 UV-I 39 W/m² -1,3 °C 6,1 °C 6,4 km/h (2 Bft)
29.03.2018 16:04 6,1 °C 59 % 1006,3 hPa 0,0 mm 7,6 km/h (2 Bft) W-NW 283 ° 0 min 0,000 mm 0,0 UV-I 42 W/m² -1,3 °C 4,5 °C 12,9 km/h (3 Bft)
29.03.2018 16:05 6,1 °C 60 % 1006,3 hPa 0,0 mm 5,2 km/h (1 Bft) NW 309 ° 0 min 0,000 mm 0,0 UV-I 47 W/m² -1,1 °C 5,3 °C 8,0 km/h (2 Bft)
29.03.2018 16:06 6,1 °C 62 % 1006,4 hPa 0,0 mm 5,4 km/h (1 Bft) W-NW 298 ° 0 min 0,000 mm 0,0 UV-I 54 W/m² -0,6 °C 5,2 °C 11,3 km/h (2 Bft)
29.03.2018 16:07 6,0 °C 62 % 1006,5 hPa 0,0 mm 10,0 km/h (2 Bft) N-NW 329 ° 0 min 0,000 mm 0,0 UV-I 60 W/m² -0,7 °C 3,9 °C 14,5 km/h (3 Bft)
29.03.2018 16:08 5,8 °C 64 % 1006,5 hPa 0,0 mm 15,0 km/h (3 Bft) W 277 ° 0 min 0,000 mm 0,0 UV-I 60 W/m² -0,5 °C 2,7 °C 22,5 km/h (4 Bft)
29.03.2018 16:09 5,7 °C 64 % 1006,6 hPa 0,0 mm 22,1 km/h (4 Bft) NW 307 ° 0 min 0,000 mm 0,0 UV-I 58 W/m² -0,6 °C 1,7 °C 33,8 km/h (5 Bft)
29.03.2018 16:10 5,4 °C 65 % 1006,8 hPa 0,0 mm 10,5 km/h (2 Bft) W-SW 237 ° 0 min 0,000 mm 0,0 UV-I 62 W/m² -0,6 °C 3,0 °C 16,1 km/h (3 Bft)
29.03.2018 16:11 5,1 °C 67 % 1006,8 hPa 0,0 mm 3,8 km/h (1 Bft) W-SW 251 ° 0 min 0,000 mm 0,5 UV-I 62 W/m² -0,5 °C 5,1 °C 6,4 km/h (2 Bft)
29.03.2018 16:12 4,9 °C 68 % 1006,8 hPa 0,0 mm 5,1 km/h (1 Bft) SW 228 ° 0 min 0,000 mm 0,5 UV-I 67 W/m² -0,5 °C 3,9 °C 6,4 km/h (2 Bft)
29.03.2018 16:13 4,6 °C 69 % 1006,7 hPa 0,0 mm 4,1 km/h (1 Bft) S 172 ° 0 min 0,000 mm 0,5 UV-I 69 W/m² -0,6 °C 4,6 °C 8,0 km/h (2 Bft)
29.03.2018 16:14 4,4 °C 71 % 1006,8 hPa 0,0 mm 6,0 km/h (2 Bft) S-SW 198 ° 0 min 0,000 mm 0,5 UV-I 69 W/m² -0,4 °C 3,0 °C 9,7 km/h (2 Bft)
29.03.2018 16:15 4,3 °C 71 % 1006,8 hPa 0,0 mm 8,0 km/h (2 Bft) W 261 ° 0 min 0,000 mm 0,5 UV-I 67 W/m² -0,5 °C 2,3 °C 14,5 km/h (3 Bft)
29.03.2018 16:16 4,2 °C 73 % 1006,8 hPa 0,0 mm 6,7 km/h (2 Bft) SW 214 ° 0 min 0,000 mm 0,5 UV-I 67 W/m² -0,2 °C 2,6 °C 12,9 km/h (3 Bft)
29.03.2018 16:17 4,1 °C 73 % 1006,8 hPa 0,0 mm 5,8 km/h (2 Bft) S-SW 196 ° 0 min 0,000 mm 0,5 UV-I 67 W/m² -0,3 °C 2,8 °C 9,7 km/h (2 Bft)
29.03.2018 16:18 3,9 °C 74 % 1006,8 hPa 0,0 mm 5,1 km/h (1 Bft) SW 215 ° 0 min 0,000 mm 0,5 UV-I 70 W/m² -0,3 °C 2,8 °C 8,0 km/h (2 Bft)
29.03.2018 16:19 3,9 °C 75 % 1006,8 hPa 0,0 mm 7,7 km/h (2 Bft) SW 236 ° 0 min 0,000 mm 0,5 UV-I 74 W/m² -0,1 °C 1,9 °C 11,3 km/h (2 Bft)
29.03.2018 16:20 3,7 °C 77 % 1006,8 hPa 0,0 mm 6,5 km/h (2 Bft) S 179 ° 0 min 0,000 mm 0,6 UV-I 86 W/m² 0,1 °C 2,1 °C 11,3 km/h (2 Bft)
29.03.2018 16:21 3,6 °C 77 % 1006,7 hPa 0,0 mm 5,7 km/h (1 Bft) S-SW 193 ° 0 min 0,000 mm 0,6 UV-I 91 W/m² -0,0 °C 2,2 °C 8,0 km/h (2 Bft)
29.03.2018 16:22 3,4 °C 77 % 1006,7 hPa 0,0 mm 6,6 km/h (2 Bft) S-SW 209 ° 0 min 0,000 mm 0,6 UV-I 104 W/m² -0,2 °C 1,7 °C 9,7 km/h (2 Bft)
29.03.2018 16:23 3,3 °C 78 % 1006,6 hPa 0,0 mm 1,5 km/h (1 Bft) S-SW 209 ° 0 min 0,000 mm 0,8 UV-I 111 W/m² -0,2 °C 3,3 °C 3,2 km/h (1 Bft)
29.03.2018 16:24 3,3 °C 79 % 1006,6 hPa 0,0 mm 3,9 km/h (1 Bft) S-SW 200 ° 0 min 0,000 mm 0,8 UV-I 113 W/m² 0,0 °C 3,3 °C 4,8 km/h (1 Bft)
29.03.2018 16:25 3,2 °C 80 % 1006,6 hPa 0,0 mm 3,7 km/h (1 Bft) S-SW 200 ° 0 min 0,000 mm 0,8 UV-I 109 W/m² 0,1 °C 3,2 °C 4,8 km/h (1 Bft)
29.03.2018 16:26 3,3 °C 81 % 1006,6 hPa 0,0 mm 3,9 km/h (1 Bft) S-SW 200 ° 0 min 0,000 mm 0,7 UV-I 102 W/m² 0,4 °C 3,3 °C 4,8 km/h (1 Bft)
29.03.2018 16:27 3,3 °C 81 % 1006,7 hPa 0,0 mm 3,4 km/h (1 Bft) S-SW 204 ° 0 min 0,000 mm 0,7 UV-I 97 W/m² 0,4 °C 3,3 °C 6,4 km/h (2 Bft)
29.03.2018 16:28 3,3 °C 81 % 1006,7 hPa 0,0 mm 5,7 km/h (1 Bft) S-SW 196 ° 0 min 0,000 mm 0,6 UV-I 93 W/m² 0,4 °C 1,9 °C 8,0 km/h (2 Bft)
29.03.2018 16:29 3,3 °C 81 % 1006,7 hPa 0,0 mm 4,2 km/h (1 Bft) S-SW 198 ° 0 min 0,000 mm 0,6 UV-I 93 W/m² 0,4 °C 3,3 °C 6,4 km/h (2 Bft)
29.03.2018 16:30 3,3 °C 83 % 1006,7 hPa 0,0 mm 7,0 km/h (2 Bft) W-SW 257 ° 0 min 0,000 mm 0,6 UV-I 86 W/m² 0,7 °C 1,4 °C 11,3 km/h (2 Bft)
29.03.2018 16:31 3,3 °C 84 % 1006,7 hPa 0,0 mm 4,1 km/h (1 Bft) W-NW 292 ° 0 min 0,000 mm 0,6 UV-I 84 W/m² 0,9 °C 3,3 °C 6,4 km/h (2 Bft)
29.03.2018 16:32 3,3 °C 84 % 1006,8 hPa 0,2 mm 4,0 km/h (1 Bft) W-NW 286 ° 0 min 0,000 mm 0,6 UV-I 77 W/m² 0,9 °C 3,3 °C 4,8 km/h (1 Bft)
29.03.2018 16:33 3,3 °C 84 % 1006,7 hPa 0,0 mm 3,8 km/h (1 Bft) W-NW 286 ° 0 min 0,000 mm 0,5 UV-I 74 W/m² 0,9 °C 3,3 °C 4,8 km/h (1 Bft)
29.03.2018 16:34 3,3 °C 84 % 1006,7 hPa 0,0 mm 1,9 km/h (1 Bft) W-NW 286 ° 0 min 0,000 mm 0,5 UV-I 70 W/m² 0,9 °C 3,3 °C 3,2 km/h (1 Bft)
29.03.2018 16:35 3,2 °C 84 % 1006,7 hPa 0,0 mm 3,2 km/h (1 Bft) W 272 ° 0 min 0,000 mm 0,5 UV-I 67 W/m² 0,8 °C 3,2 °C 4,8 km/h (1 Bft)
29.03.2018 16:36 3,2 °C 84 % 1006,7 hPa 0,0 mm 2,7 km/h (1 Bft) W 272 ° 0 min 0,000 mm 0,0 UV-I 63 W/m² 0,8 °C 3,2 °C 4,8 km/h (1 Bft)
29.03.2018 16:37 3,1 °C 83 % 1006,7 hPa 0,0 mm 2,7 km/h (1 Bft) W 272 ° 0 min 0,000 mm 0,0 UV-I 58 W/m² 0,5 °C 3,1 °C 4,8 km/h (1 Bft)
29.03.2018 16:38 3,1 °C 84 % 1006,7 hPa 0,0 mm 2,2 km/h (1 Bft) W 272 ° 0 min 0,000 mm 0,0 UV-I 46 W/m² 0,7 °C 3,1 °C 3,2 km/h (1 Bft)
29.03.2018 16:39 3,1 °C 85 % 1006,7 hPa 0,0 mm 1,3 km/h (1 Bft) W 272 ° 0 min 0,000 mm 0,0 UV-I 40 W/m² 0,8 °C 3,1 °C 3,2 km/h (1 Bft)
29.03.2018 16:40 3,1 °C 85 % 1006,7 hPa 0,0 mm 1,1 km/h (1 Bft) W 272 ° 0 min 0,000 mm 0,0 UV-I 35 W/m² 0,8 °C 3,1 °C 1,6 km/h (1 Bft)
29.03.2018 16:41 3,1 °C 85 % 1006,7 hPa 0,0 mm 0,2 km/h (0 Bft) W 272 ° 0 min 0,000 mm 0,0 UV-I 33 W/m² 0,8 °C 3,1 °C 1,6 km/h (1 Bft)
29.03.2018 16:42 3,1 °C 85 % 1006,8 hPa 0,0 mm 2,5 km/h (1 Bft) W 272 ° 0 min 0,000 mm 0,0 UV-I 32 W/m² 0,8 °C 3,1 °C 4,8 km/h (1 Bft)
29.03.2018 16:43 3,1 °C 85 % 1006,8 hPa 0,0 mm 3,4 km/h (1 Bft) W 269 ° 0 min 0,000 mm 0,0 UV-I 30 W/m² 0,8 °C 3,1 °C 4,8 km/h (1 Bft)
29.03.2018 16:44 3,0 °C 85 % 1006,8 hPa 0,0 mm 3,2 km/h (1 Bft) W 269 ° 0 min 0,000 mm 0,0 UV-I 32 W/m² 0,7 °C 3,0 °C 4,8 km/h (1 Bft)
29.03.2018 16:45 3,0 °C 85 % 1006,8 hPa 0,0 mm 4,6 km/h (1 Bft) W 266 ° 0 min 0,000 mm 0,0 UV-I 32 W/m² 0,7 °C 2,0 °C 6,4 km/h (2 Bft)
29.03.2018 16:46 3,0 °C 85 % 1006,8 hPa 0,0 mm 2,5 km/h (1 Bft) W 266 ° 0 min 0,000 mm 0,0 UV-I 33 W/m² 0,7 °C 3,0 °C 3,2 km/h (1 Bft)
29.03.2018 16:47 3,0 °C 86 % 1006,8 hPa 0,0 mm 1,1 km/h (1 Bft) W-SW 249 ° 0 min 0,000 mm 0,0 UV-I 33 W/m² 0,9 °C 3,0 °C 4,8 km/h (1 Bft)
29.03.2018 16:48 3,0 °C 86 % 1006,7 hPa 0,0 mm 2,4 km/h (1 Bft) W-SW 249 ° 0 min 0,000 mm 0,0 UV-I 42 W/m² 0,9 °C 3,0 °C 4,8 km/h (1 Bft)
29.03.2018 16:49 3,0 °C 86 % 1006,7 hPa 0,0 mm 2,5 km/h (1 Bft) W-SW 249 ° 0 min 0,000 mm 0,0 UV-I 49 W/m² 0,9 °C 3,0 °C 4,8 km/h (1 Bft)
29.03.2018 16:50 3,0 °C 86 % 1006,7 hPa 0,0 mm 2,6 km/h (1 Bft) SW 234 ° 0 min 0,000 mm 0,0 UV-I 65 W/m² 0,9 °C 3,0 °C 4,8 km/h (1 Bft)
29.03.2018 16:51 3,1 °C 86 % 1006,7 hPa 0,0 mm 1,7 km/h (1 Bft) SW 234 ° 0 min 0,000 mm 0,0 UV-I 70 W/m² 1,0 °C 3,1 °C 4,8 km/h (1 Bft)
29.03.2018 16:52 3,1 °C 86 % 1006,7 hPa 0,0 mm 0,9 km/h (0 Bft) SW 234 ° 0 min 0,000 mm 0,0 UV-I 74 W/m² 1,0 °C 3,1 °C 3,2 km/h (1 Bft)
29.03.2018 16:53 3,1 °C 86 % 1006,7 hPa 0,0 mm 0,4 km/h (0 Bft) SW 234 ° 0 min 0,000 mm 0,0 UV-I 77 W/m² 1,0 °C 3,1 °C 1,6 km/h (1 Bft)
29.03.2018 16:54 3,2 °C 86 % 1006,7 hPa 0,0 mm 0,7 km/h (0 Bft) SW 234 ° 0 min 0,000 mm 0,5 UV-I 79 W/m² 1,1 °C 3,2 °C 3,2 km/h (1 Bft)
29.03.2018 16:55 3,2 °C 86 % 1006,8 hPa 0,0 mm 1,2 km/h (1 Bft) SW 234 ° 0 min 0,000 mm 0,5 UV-I 77 W/m² 1,1 °C 3,2 °C 3,2 km/h (1 Bft)
29.03.2018 16:56 3,2 °C 86 % 1006,8 hPa 0,0 mm 0,0 km/h (0 Bft) SW 234 ° 0 min 0,000 mm 0,5 UV-I 77 W/m² 1,1 °C 3,2 °C 0,0 km/h (0 Bft)
29.03.2018 16:57 3,2 °C 86 % 1006,8 hPa 0,0 mm 0,0 km/h (0 Bft) SW 234 ° 0 min 0,000 mm 0,5 UV-I 79 W/m² 1,1 °C 3,2 °C 0,0 km/h (0 Bft)
29.03.2018 16:58 3,3 °C 86 % 1006,8 hPa 0,0 mm 1,2 km/h (1 Bft) SW 234 ° 0 min 0,000 mm 0,5 UV-I 76 W/m² 1,2 °C 3,3 °C 1,6 km/h (1 Bft)
29.03.2018 16:59 3,3 °C 86 % 1006,8 hPa 0,0 mm 1,9 km/h (1 Bft) W-SW 246 ° 0 min 0,000 mm 0,5 UV-I 74 W/m² 1,2 °C 3,3 °C 4,8 km/h (1 Bft)
29.03.2018 17:00 3,3 °C 86 % 1006,8 hPa 0,0 mm 2,7 km/h (1 Bft) W-SW 254 ° 0 min 0,000 mm 0,5 UV-I 70 W/m² 1,2 °C 3,3 °C 4,8 km/h (1 Bft)
29.03.2018 17:01 3,3 °C 86 % 1006,8 hPa 0,0 mm 1,3 km/h (1 Bft) W-SW 255 ° 0 min 0,026 mm 0,5 UV-I 67 W/m² 1,2 °C 3,3 °C 3,2 km/h (1 Bft)
29.03.2018 17:02 3,3 °C 87 % 1006,8 hPa 0,0 mm 6,3 km/h (2 Bft) W 271 ° 0 min 0,000 mm 0,5 UV-I 67 W/m² 1,3 °C 1,7 °C 9,7 km/h (2 Bft)
29.03.2018 17:03 3,3 °C 86 % 1006,8 hPa 0,0 mm 9,9 km/h (2 Bft) S-SW 213 ° 0 min 0,000 mm 0,5 UV-I 69 W/m² 1,2 °C 0,7 °C 14,5 km/h (3 Bft)
29.03.2018 17:04 3,2 °C 86 % 1006,8 hPa 0,0 mm 4,6 km/h (1 Bft) S-SW 198 ° 0 min 0,000 mm 0,5 UV-I 70 W/m² 1,1 °C 2,2 °C 6,4 km/h (2 Bft)
29.03.2018 17:05 3,1 °C 86 % 1006,8 hPa 0,0 mm 4,1 km/h (1 Bft) W 271 ° 0 min 0,000 mm 0,5 UV-I 70 W/m² 1,0 °C 3,1 °C 9,7 km/h (2 Bft)
29.03.2018 17:06 3,0 °C 86 % 1006,8 hPa 0,0 mm 5,4 km/h (1 Bft) W-SW 238 ° 0 min 0,000 mm 0,6 UV-I 83 W/m² 0,9 °C 1,7 °C 6,4 km/h (2 Bft)
29.03.2018 17:07 2,9 °C 86 % 1006,8 hPa 0,0 mm 2,7 km/h (1 Bft) W-SW 243 ° 0 min 0,000 mm 0,6 UV-I 100 W/m² 0,8 °C 2,9 °C 4,8 km/h (1 Bft)
29.03.2018 17:08 2,9 °C 86 % 1006,7 hPa 0,0 mm 3,4 km/h (1 Bft) W-SW 245 ° 0 min 0,000 mm 0,6 UV-I 114 W/m² 0,8 °C 2,9 °C 6,4 km/h (2 Bft)
29.03.2018 17:09 2,8 °C 86 % 1006,7 hPa 0,0 mm 2,3 km/h (1 Bft) W-SW 245 ° 0 min 0,000 mm 0,7 UV-I 132 W/m² 0,7 °C 2,8 °C 4,8 km/h (1 Bft)
29.03.2018 17:10 2,8 °C 87 % 1006,7 hPa 0,0 mm 2,9 km/h (1 Bft) W-SW 246 ° 0 min 0,000 mm 0,7 UV-I 149 W/m² 0,9 °C 2,8 °C 4,8 km/h (1 Bft)
29.03.2018 17:11 2,8 °C 87 % 1006,7 hPa 0,0 mm 1,6 km/h (1 Bft) W-SW 247 ° 0 min 0,000 mm 0,8 UV-I 162 W/m² 0,9 °C 2,8 °C 3,2 km/h (1 Bft)
29.03.2018 17:12 2,8 °C 88 % 1006,7 hPa 0,0 mm 2,9 km/h (1 Bft) W-SW 247 ° 0 min 0,000 mm 0,8 UV-I 169 W/m² 1,0 °C 2,8 °C 4,8 km/h (1 Bft)
29.03.2018 17:13 2,8 °C 88 % 1006,7 hPa 0,0 mm 3,4 km/h (1 Bft) W-SW 247 ° 0 min 0,000 mm 0,8 UV-I 156 W/m² 1,0 °C 2,8 °C 4,8 km/h (1 Bft)
29.03.2018 17:14 2,8 °C 88 % 1006,7 hPa 0,0 mm 0,9 km/h (0 Bft) W-SW 247 ° 0 min 0,000 mm 0,8 UV-I 144 W/m² 1,0 °C 2,8 °C 3,2 km/h (1 Bft)
29.03.2018 17:15 2,8 °C 88 % 1006,7 hPa 0,0 mm 0,7 km/h (0 Bft) W-SW 247 ° 0 min 0,000 mm 0,8 UV-I 135 W/m² 1,0 °C 2,8 °C 3,2 km/h (1 Bft)
29.03.2018 17:16 2,8 °C 88 % 1006,7 hPa 0,2 mm 2,2 km/h (1 Bft) W-SW 248 ° 0 min 0,000 mm 0,8 UV-I 132 W/m² 1,0 °C 2,8 °C 3,2 km/h (1 Bft)
29.03.2018 17:17 2,8 °C 88 % 1006,7 hPa 0,0 mm 2,2 km/h (1 Bft) W-SW 248 ° 0 min 0,000 mm 0,8 UV-I 128 W/m² 1,0 °C 2,8 °C 3,2 km/h (1 Bft)
29.03.2018 17:18 2,8 °C 89 % 1006,7 hPa 0,0 mm 2,6 km/h (1 Bft) W-NW 290 ° 0 min 0,000 mm 0,8 UV-I 125 W/m² 1,2 °C 2,8 °C 4,8 km/h (1 Bft)
29.03.2018 17:19 2,8 °C 89 % 1006,7 hPa 0,0 mm 1,3 km/h (1 Bft) W-NW 290 ° 0 min 0,000 mm 0,8 UV-I 113 W/m² 1,2 °C 2,8 °C 3,2 km/h (1 Bft)
29.03.2018 17:20 2,8 °C 88 % 1006,6 hPa 0,0 mm 1,5 km/h (1 Bft) W 276 ° 0 min 0,000 mm 0,8 UV-I 100 W/m² 1,0 °C 2,8 °C 4,8 km/h (1 Bft)
29.03.2018 17:21 2,8 °C 88 % 1006,7 hPa 0,0 mm 0,0 km/h (0 Bft) W 276 ° 0 min 0,000 mm 0,8 UV-I 88 W/m² 1,0 °C 2,8 °C 0,0 km/h (0 Bft)
29.03.2018 17:22 2,8 °C 88 % 1006,6 hPa 0,0 mm 3,3 km/h (1 Bft) W-SW 242 ° 0 min 0,000 mm 0,7 UV-I 77 W/m² 1,0 °C 2,8 °C 6,4 km/h (2 Bft)
29.03.2018 17:23 2,8 °C 88 % 1006,7 hPa 0,0 mm 2,0 km/h (1 Bft) W-SW 242 ° 0 min 0,000 mm 0,7 UV-I 77 W/m² 1,0 °C 2,8 °C 3,2 km/h (1 Bft)
29.03.2018 17:24 2,8 °C 88 % 1006,8 hPa 0,0 mm 0,7 km/h (0 Bft) W-SW 241 ° 0 min 0,000 mm 0,7 UV-I 65 W/m² 1,0 °C 2,8 °C 3,2 km/h (1 Bft)
29.03.2018 17:25 2,8 °C 87 % 1006,7 hPa 0,0 mm 4,9 km/h (1 Bft) S-SW 197 ° 0 min 0,000 mm 0,7 UV-I 60 W/m² 0,9 °C 1,6 °C 8,0 km/h (2 Bft)
29.03.2018 17:26 2,7 °C 87 % 1006,7 hPa 0,0 mm 5,4 km/h (1 Bft) S-SW 197 ° 0 min 0,000 mm 0,7 UV-I 58 W/m² 0,8 °C 1,3 °C 8,0 km/h (2 Bft)
29.03.2018 17:27 2,7 °C 87 % 1006,7 hPa 0,0 mm 3,8 km/h (1 Bft) S-SW 212 ° 0 min 0,000 mm 0,6 UV-I 56 W/m² 0,8 °C 2,7 °C 4,8 km/h (1 Bft)
29.03.2018 17:28 2,7 °C 87 % 1006,7 hPa 0,0 mm 3,1 km/h (1 Bft) S-SW 211 ° 0 min 0,000 mm 0,6 UV-I 56 W/m² 0,8 °C 2,7 °C 4,8 km/h (1 Bft)
29.03.2018 17:29 2,7 °C 88 % 1006,7 hPa 0,0 mm 2,6 km/h (1 Bft) S-SW 209 ° 0 min 0,000 mm 0,6 UV-I 56 W/m² 0,9 °C 2,7 °C 4,8 km/h (1 Bft)
29.03.2018 17:30 2,7 °C 88 % 1006,7 hPa 0,0 mm 1,6 km/h (1 Bft) S-SW 203 ° 0 min 0,000 mm 0,6 UV-I 56 W/m² 0,9 °C 2,7 °C 3,2 km/h (1 Bft)
29.03.2018 17:31 2,7 °C 88 % 1006,7 hPa 0,0 mm 0,3 km/h (0 Bft) S-SW 203 ° 0 min 0,000 mm 0,6 UV-I 54 W/m² 0,9 °C 2,7 °C 1,6 km/h (1 Bft)
29.03.2018 17:32 2,7 °C 89 % 1006,7 hPa 0,0 mm 1,2 km/h (1 Bft) S-SW 197 ° 0 min 0,000 mm 0,6 UV-I 56 W/m² 1,1 °C 2,7 °C 4,8 km/h (1 Bft)
29.03.2018 17:33 2,7 °C 89 % 1006,8 hPa 0,0 mm 0,2 km/h (0 Bft) S-SW 197 ° 0 min 0,000 mm 0,6 UV-I 56 W/m² 1,1 °C 2,7 °C 1,6 km/h (1 Bft)
29.03.2018 17:34 2,8 °C 89 % 1006,8 hPa 0,0 mm 0,0 km/h (0 Bft) S-SW 197 ° 0 min 0,000 mm 0,5 UV-I 58 W/m² 1,2 °C 2,8 °C 0,0 km/h (0 Bft)
29.03.2018 17:35 2,8 °C 89 % 1006,8 hPa 0,0 mm 0,0 km/h (0 Bft) S-SW 197 ° 0 min 0,000 mm 0,5 UV-I 58 W/m² 1,2 °C 2,8 °C 0,0 km/h (0 Bft)
29.03.2018 17:36 2,7 °C 90 % 1006,8 hPa 0,0 mm 0,1 km/h (0 Bft) S-SW 197 ° 0 min 0,000 mm 0,5 UV-I 58 W/m² 1,2 °C 2,7 °C 1,6 km/h (1 Bft)
29.03.2018 17:37 2,8 °C 90 % 1006,7 hPa 0,0 mm 1,7 km/h (1 Bft) S-SW 197 ° 0 min 0,000 mm 0,5 UV-I 53 W/m² 1,3 °C 2,8 °C 3,2 km/h (1 Bft)
29.03.2018 17:38 2,8 °C 90 % 1006,8 hPa 0,0 mm 0,3 km/h (0 Bft) S-SW 197 ° 0 min 0,000 mm 0,0 UV-I 49 W/m² 1,3 °C 2,8 °C 1,6 km/h (1 Bft)
29.03.2018 17:39 2,8 °C 90 % 1006,7 hPa 0,0 mm 0,0 km/h (0 Bft) S-SW 197 ° 0 min 0,000 mm 0,0 UV-I 46 W/m² 1,3 °C 2,8 °C 0,0 km/h (0 Bft)
29.03.2018 17:40 2,8 °C 90 % 1006,8 hPa 0,0 mm 0,0 km/h (0 Bft) S-SW 197 ° 0 min 0,000 mm 0,0 UV-I 42 W/m² 1,3 °C 2,8 °C 0,0 km/h (0 Bft)
29.03.2018 17:41 2,8 °C 90 % 1006,7 hPa 0,0 mm 0,0 km/h (0 Bft) S-SW 197 ° 0 min 0,000 mm 0,0 UV-I 42 W/m² 1,3 °C 2,8 °C 0,0 km/h (0 Bft)
29.03.2018 17:42 2,8 °C 90 % 1006,6 hPa 0,0 mm 0,1 km/h (0 Bft) S-SW 197 ° 0 min 0,000 mm 0,0 UV-I 28 W/m² 1,3 °C 2,8 °C 1,6 km/h (1 Bft)
29.03.2018 17:43 2,7 °C 90 % 1006,6 hPa 0,0 mm 1,0 km/h (0 Bft) S-SW 197 ° 0 min 0,000 mm 0,0 UV-I 25 W/m² 1,2 °C 2,7 °C 3,2 km/h (1 Bft)
29.03.2018 17:44 2,7 °C 90 % 1006,6 hPa 0,0 mm 0,0 km/h (0 Bft) S-SW 197 ° 0 min 0,000 mm 0,0 UV-I 23 W/m² 1,2 °C 2,7 °C 0,0 km/h (0 Bft)
29.03.2018 17:45 2,7 °C 90 % 1006,5 hPa 0,0 mm 0,0 km/h (0 Bft) S-SW 197 ° 0 min 0,000 mm 0,0 UV-I 21 W/m² 1,2 °C 2,7 °C 0,0 km/h (0 Bft)
29.03.2018 17:46 2,7 °C 90 % 1006,6 hPa 0,0 mm 0,0 km/h (0 Bft) S-SW 197 ° 0 min 0,000 mm 0,0 UV-I 21 W/m² 1,2 °C 2,7 °C 0,0 km/h (0 Bft)
29.03.2018 17:47 2,7 °C 90 % 1006,6 hPa 0,0 mm 0,0 km/h (0 Bft) S-SW 197 ° 0 min 0,000 mm 0,0 UV-I 21 W/m² 1,2 °C 2,7 °C 0,0 km/h (0 Bft)
29.03.2018 17:48 2,7 °C 90 % 1006,6 hPa 0,0 mm 0,0 km/h (0 Bft) S-SW 197 ° 0 min 0,000 mm 0,0 UV-I 21 W/m² 1,2 °C 2,7 °C 0,0 km/h (0 Bft)
29.03.2018 17:49 2,7 °C 91 % 1006,6 hPa 0,0 mm 0,0 km/h (0 Bft) S-SW 197 ° 0 min 0,000 mm 0,0 UV-I 21 W/m² 1,4 °C 2,7 °C 0,0 km/h (0 Bft)
29.03.2018 17:50 2,7 °C 90 % 1006,7 hPa 0,0 mm 0,0 km/h (0 Bft) S-SW 197 ° 0 min 0,000 mm 0,0 UV-I 21 W/m² 1,2 °C 2,7 °C 0,0 km/h (0 Bft)
29.03.2018 17:51 2,7 °C 90 % 1006,7 hPa 0,0 mm 0,0 km/h (0 Bft) S-SW 197 ° 0 min 0,000 mm 0,0 UV-I 23 W/m² 1,2 °C 2,7 °C 0,0 km/h (0 Bft)
29.03.2018 17:52 2,7 °C 90 % 1006,7 hPa 0,0 mm 0,0 km/h (0 Bft) S-SW 197 ° 0 min 0,000 mm 0,0 UV-I 23 W/m² 1,2 °C 2,7 °C 0,0 km/h (0 Bft)
29.03.2018 17:53 2,7 °C 90 % 1006,8 hPa 0,0 mm 0,0 km/h (0 Bft) S-SW 197 ° 0 min 0,000 mm 0,0 UV-I 23 W/m² 1,2 °C 2,7 °C 0,0 km/h (0 Bft)
29.03.2018 17:54 2,6 °C 91 % 1006,7 hPa 0,0 mm 0,0 km/h (0 Bft) S-SW 197 ° 0 min 0,000 mm 0,0 UV-I 23 W/m² 1,3 °C 2,6 °C 0,0 km/h (0 Bft)
29.03.2018 17:55 2,7 °C 91 % 1006,7 hPa 0,0 mm 0,7 km/h (0 Bft) S-SW 197 ° 0 min 0,000 mm 0,0 UV-I 23 W/m² 1,4 °C 2,7 °C 1,6 km/h (1 Bft)
29.03.2018 17:56 2,7 °C 91 % 1006,7 hPa 0,0 mm 0,0 km/h (0 Bft) S-SW 197 ° 0 min 0,000 mm 0,0 UV-I 26 W/m² 1,4 °C 2,7 °C 0,0 km/h (0 Bft)
29.03.2018 17:57 2,7 °C 90 % 1006,7 hPa 0,0 mm 0,0 km/h (0 Bft) S-SW 197 ° 0 min 0,000 mm 0,0 UV-I 30 W/m² 1,2 °C 2,7 °C 0,0 km/h (0 Bft)
29.03.2018 17:58 2,7 °C 91 % 1006,7 hPa 0,0 mm 0,0 km/h (0 Bft) S-SW 197 ° 0 min 0,000 mm 0,0 UV-I 35 W/m² 1,4 °C 2,7 °C 0,0 km/h (0 Bft)
29.03.2018 17:59 2,7 °C 91 % 1006,7 hPa 0,0 mm 0,0 km/h (0 Bft) S-SW 197 ° 0 min 0,000 mm 0,0 UV-I 35 W/m² 1,4 °C 2,7 °C 0,0 km/h (0 Bft)
29.03.2018 18:00 2,7 °C 91 % 1006,7 hPa 0,0 mm 0,0 km/h (0 Bft) S-SW 197 ° 0 min 0,000 mm 0,0 UV-I 44 W/m² 1,4 °C 2,7 °C 0,0 km/h (0 Bft)
29.03.2018 18:01 2,7 °C 91 % 1006,6 hPa 0,0 mm 0,0 km/h (0 Bft) S-SW 197 ° 0 min 0,025 mm 0,0 UV-I 44 W/m² 1,4 °C 2,7 °C 0,0 km/h (0 Bft)
29.03.2018 18:02 2,7 °C 90 % 1006,6 hPa 0,0 mm 0,0 km/h (0 Bft) S-SW 197 ° 0 min 0,000 mm 0,0 UV-I 44 W/m² 1,2 °C 2,7 °C 0,0 km/h (0 Bft)
29.03.2018 18:03 2,7 °C 91 % 1006,7 hPa 0,0 mm 0,0 km/h (0 Bft) S-SW 197 ° 0 min 0,000 mm 0,0 UV-I 42 W/m² 1,4 °C 2,7 °C 0,0 km/h (0 Bft)
29.03.2018 18:04 2,7 °C 91 % 1006,7 hPa 0,0 mm 0,0 km/h (0 Bft) S-SW 197 ° 0 min 0,000 mm 0,0 UV-I 39 W/m² 1,4 °C 2,7 °C 0,0 km/h (0 Bft)
29.03.2018 18:05 2,7 °C 91 % 1006,7 hPa 0,0 mm 0,0 km/h (0 Bft) S-SW 197 ° 0 min 0,000 mm 0,0 UV-I 37 W/m² 1,4 °C 2,7 °C 0,0 km/h (0 Bft)
29.03.2018 18:06 2,8 °C 91 % 1006,6 hPa 0,0 mm 0,7 km/h (0 Bft) S-SW 197 ° 0 min 0,000 mm 0,0 UV-I 32 W/m² 1,5 °C 2,8 °C 1,6 km/h (1 Bft)
29.03.2018 18:07 2,8 °C 91 % 1006,6 hPa 0,0 mm 1,4 km/h (1 Bft) S-SW 197 ° 0 min 0,000 mm 0,0 UV-I 30 W/m² 1,5 °C 2,8 °C 3,2 km/h (1 Bft)
29.03.2018 18:08 2,8 °C 91 % 1006,7 hPa 0,0 mm 0,0 km/h (0 Bft) S-SW 197 ° 0 min 0,000 mm 0,0 UV-I 28 W/m² 1,5 °C 2,8 °C 0,0 km/h (0 Bft)
29.03.2018 18:09 2,8 °C 91 % 1006,7 hPa 0,0 mm 0,0 km/h (0 Bft) S-SW 197 ° 0 min 0,000 mm 0,0 UV-I 28 W/m² 1,5 °C 2,8 °C 0,0 km/h (0 Bft)
29.03.2018 18:10 2,8 °C 91 % 1006,6 hPa 0,0 mm 0,1 km/h (0 Bft) S-SW 197 ° 0 min 0,000 mm 0,0 UV-I 26 W/m² 1,5 °C 2,8 °C 1,6 km/h (1 Bft)
29.03.2018 18:11 2,8 °C 91 % 1006,6 hPa 0,0 mm 1,2 km/h (1 Bft) S-SW 197 ° 0 min 0,000 mm 0,0 UV-I 26 W/m² 1,5 °C 2,8 °C 1,6 km/h (1 Bft)
29.03.2018 18:12 2,8 °C 91 % 1006,6 hPa 0,0 mm 1,8 km/h (1 Bft) S-SW 194 ° 0 min 0,000 mm 0,0 UV-I 25 W/m² 1,5 °C 2,8 °C 3,2 km/h (1 Bft)
29.03.2018 18:13 2,8 °C 91 % 1006,5 hPa 0,0 mm 2,8 km/h (1 Bft) S 176 ° 0 min 0,000 mm 0,0 UV-I 25 W/m² 1,5 °C 2,8 °C 4,8 km/h (1 Bft)
29.03.2018 18:14 2,8 °C 91 % 1006,5 hPa 0,0 mm 0,7 km/h (0 Bft) S 176 ° 0 min 0,000 mm 0,0 UV-I 25 W/m² 1,5 °C 2,8 °C 3,2 km/h (1 Bft)
29.03.2018 18:15 2,8 °C 91 % 1006,5 hPa 0,0 mm 0,0 km/h (0 Bft) S 176 ° 0 min 0,000 mm 0,0 UV-I 25 W/m² 1,5 °C 2,8 °C 0,0 km/h (0 Bft)
29.03.2018 18:16 2,8 °C 91 % 1006,5 hPa 0,0 mm 0,0 km/h (0 Bft) S 176 ° 0 min 0,000 mm 0,0 UV-I 25 W/m² 1,5 °C 2,8 °C 0,0 km/h (0 Bft)
29.03.2018 18:17 2,7 °C 91 % 1006,6 hPa 0,0 mm 1,5 km/h (1 Bft) N-NW 342 ° 0 min 0,000 mm 0,0 UV-I 25 W/m² 1,4 °C 2,7 °C 4,8 km/h (1 Bft)
29.03.2018 18:18 2,8 °C 91 % 1006,6 hPa 0,0 mm 0,0 km/h (0 Bft) N-NW 342 ° 0 min 0,000 mm 0,0 UV-I 28 W/m² 1,5 °C 2,8 °C 0,0 km/h (0 Bft)
29.03.2018 18:19 2,8 °C 91 % 1006,6 hPa 0,0 mm 0,0 km/h (0 Bft) N-NW 342 ° 0 min 0,000 mm 0,0 UV-I 32 W/m² 1,5 °C 2,8 °C 0,0 km/h (0 Bft)
29.03.2018 18:20 2,8 °C 91 % 1006,5 hPa 0,0 mm 0,0 km/h (0 Bft) N-NW 342 ° 0 min 0,000 mm 0,0 UV-I 37 W/m² 1,5 °C 2,8 °C 0,0 km/h (0 Bft)
29.03.2018 18:21 2,8 °C 91 % 1006,6 hPa 0,0 mm 0,6 km/h (0 Bft) N-NW 343 ° 0 min 0,000 mm 0,0 UV-I 44 W/m² 1,5 °C 2,8 °C 3,2 km/h (1 Bft)
29.03.2018 18:22 2,8 °C 91 % 1006,6 hPa 0,0 mm 0,6 km/h (0 Bft) N-NW 343 ° 0 min 0,000 mm 0,0 UV-I 51 W/m² 1,5 °C 2,8 °C 3,2 km/h (1 Bft)
29.03.2018 18:23 2,8 °C 91 % 1006,7 hPa 0,2 mm 0,0 km/h (0 Bft) N-NW 343 ° 0 min 0,000 mm 0,0 UV-I 54 W/m² 1,5 °C 2,8 °C 0,0 km/h (0 Bft)
29.03.2018 18:24 2,7 °C 91 % 1006,7 hPa 0,0 mm 0,7 km/h (0 Bft) N-NW 343 ° 0 min 0,000 mm 0,0 UV-I 51 W/m² 1,4 °C 2,7 °C 1,6 km/h (1 Bft)
29.03.2018 18:25 2,7 °C 91 % 1006,7 hPa 0,0 mm 2,5 km/h (1 Bft) N-NW 348 ° 0 min 0,000 mm 0,0 UV-I 51 W/m² 1,4 °C 2,7 °C 4,8 km/h (1 Bft)
29.03.2018 18:26 2,7 °C 91 % 1006,7 hPa 0,0 mm 0,5 km/h (0 Bft) N-NW 348 ° 0 min 0,000 mm 0,0 UV-I 53 W/m² 1,4 °C 2,7 °C 1,6 km/h (1 Bft)
29.03.2018 18:27 2,7 °C 91 % 1006,7 hPa 0,0 mm 0,4 km/h (0 Bft) N-NW 348 ° 0 min 0,000 mm 0,0 UV-I 53 W/m² 1,4 °C 2,7 °C 1,6 km/h (1 Bft)
29.03.2018 18:28 2,6 °C 91 % 1006,7 hPa 0,0 mm 1,7 km/h (1 Bft) N-NW 348 ° 0 min 0,000 mm 0,0 UV-I 53 W/m² 1,3 °C 2,6 °C 4,8 km/h (1 Bft)
29.03.2018 18:29 2,6 °C 91 % 1006,7 hPa 0,0 mm 0,1 km/h (0 Bft) SW 220 ° 0 min 0,000 mm 0,0 UV-I 54 W/m² 1,3 °C 2,6 °C 1,6 km/h (1 Bft)
29.03.2018 18:30 2,6 °C 91 % 1006,7 hPa 0,0 mm 1,3 km/h (1 Bft) NW 318 ° 0 min 0,000 mm 0,0 UV-I 56 W/m² 1,3 °C 2,6 °C 3,2 km/h (1 Bft)
29.03.2018 18:31 2,5 °C 91 % 1006,7 hPa 0,0 mm 0,0 km/h (0 Bft) NW 318 ° 0 min 0,000 mm 0,0 UV-I 54 W/m² 1,2 °C 2,5 °C 0,0 km/h (0 Bft)
29.03.2018 18:32 2,4 °C 91 % 1006,7 hPa 0,0 mm 0,0 km/h (0 Bft) NW 318 ° 0 min 0,000 mm 0,0 UV-I 53 W/m² 1,1 °C 2,4 °C 0,0 km/h (0 Bft)
29.03.2018 18:33 2,4 °C 91 % 1006,7 hPa 0,0 mm 0,0 km/h (0 Bft) NW 318 ° 0 min 0,000 mm 0,0 UV-I 51 W/m² 1,1 °C 2,4 °C 0,0 km/h (0 Bft)
29.03.2018 18:34 2,3 °C 91 % 1006,7 hPa 0,0 mm 0,0 km/h (0 Bft) NW 318 ° 0 min 0,000 mm 0,0 UV-I 47 W/m² 1,0 °C 2,3 °C 0,0 km/h (0 Bft)
29.03.2018 18:35 2,3 °C 91 % 1006,7 hPa 0,0 mm 0,0 km/h (0 Bft) NW 318 ° 0 min 0,000 mm 0,0 UV-I 47 W/m² 1,0 °C 2,3 °C 0,0 km/h (0 Bft)
29.03.2018 18:36 2,3 °C 91 % 1006,7 hPa 0,0 mm 0,0 km/h (0 Bft) NW 318 ° 0 min 0,000 mm 0,0 UV-I 40 W/m² 1,0 °C 2,3 °C 0,0 km/h (0 Bft)
29.03.2018 18:37 2,3 °C 91 % 1006,7 hPa 0,0 mm 0,0 km/h (0 Bft) NW 318 ° 0 min 0,000 mm 0,0 UV-I 39 W/m² 1,0 °C 2,3 °C 0,0 km/h (0 Bft)
29.03.2018 18:38 2,3 °C 91 % 1006,7 hPa 0,0 mm 0,0 km/h (0 Bft) NW 318 ° 0 min 0,000 mm 0,0 UV-I 37 W/m² 1,0 °C 2,3 °C 0,0 km/h (0 Bft)
29.03.2018 18:39 2,4 °C 91 % 1006,7 hPa 0,0 mm 0,0 km/h (0 Bft) NW 318 ° 0 min 0,000 mm 0,0 UV-I 35 W/m² 1,1 °C 2,4 °C 0,0 km/h (0 Bft)
29.03.2018 18:40 2,4 °C 92 % 1006,7 hPa 0,2 mm 0,5 km/h (0 Bft) NW 318 ° 0 min 0,000 mm 0,0 UV-I 33 W/m² 1,2 °C 2,4 °C 1,6 km/h (1 Bft)
29.03.2018 18:41 2,4 °C 92 % 1006,8 hPa 0,0 mm 0,4 km/h (0 Bft) NW 316 ° 0 min 0,000 mm 0,0 UV-I 30 W/m² 1,2 °C 2,4 °C 1,6 km/h (1 Bft)
29.03.2018 18:42 2,4 °C 92 % 1006,8 hPa 0,0 mm 1,9 km/h (1 Bft) NW 307 ° 0 min 0,000 mm 0,0 UV-I 28 W/m² 1,2 °C 2,4 °C 3,2 km/h (1 Bft)
29.03.2018 18:43 2,4 °C 91 % 1006,8 hPa 0,0 mm 2,9 km/h (1 Bft) W-SW 244 ° 0 min 0,000 mm 0,0 UV-I 26 W/m² 1,1 °C 2,4 °C 4,8 km/h (1 Bft)
29.03.2018 18:44 2,4 °C 91 % 1006,8 hPa 0,0 mm 2,0 km/h (1 Bft) W-SW 244 ° 0 min 0,000 mm 0,0 UV-I 25 W/m² 1,1 °C 2,4 °C 4,8 km/h (1 Bft)
29.03.2018 18:45 2,4 °C 91 % 1006,8 hPa 0,0 mm 4,8 km/h (1 Bft) S-SW 209 ° 0 min 0,000 mm 0,0 UV-I 25 W/m² 1,1 °C 1,2 °C 8,0 km/h (2 Bft)
29.03.2018 18:46 2,4 °C 91 % 1006,8 hPa 0,0 mm 2,6 km/h (1 Bft) SW 233 ° 0 min 0,000 mm 0,0 UV-I 23 W/m² 1,1 °C 2,4 °C 4,8 km/h (1 Bft)
29.03.2018 18:47 2,4 °C 91 % 1006,9 hPa 0,0 mm 3,1 km/h (1 Bft) W-SW 241 ° 0 min 0,000 mm 0,0 UV-I 21 W/m² 1,1 °C 2,4 °C 4,8 km/h (1 Bft)
29.03.2018 18:48 2,4 °C 91 % 1006,9 hPa 0,0 mm 3,0 km/h (1 Bft) W 265 ° 0 min 0,000 mm 0,0 UV-I 19 W/m² 1,1 °C 2,4 °C 4,8 km/h (1 Bft)
29.03.2018 18:49 2,4 °C 91 % 1006,9 hPa 0,0 mm 3,3 km/h (1 Bft) W-SW 242 ° 0 min 0,000 mm 0,0 UV-I 18 W/m² 1,1 °C 2,4 °C 6,4 km/h (2 Bft)
29.03.2018 18:50 2,4 °C 91 % 1006,9 hPa 0,0 mm 3,4 km/h (1 Bft) SW 218 ° 0 min 0,000 mm 0,0 UV-I 16 W/m² 1,1 °C 2,4 °C 6,4 km/h (2 Bft)
29.03.2018 18:51 2,4 °C 91 % 1006,9 hPa 0,0 mm 2,1 km/h (1 Bft) SW 218 ° 0 min 0,000 mm 0,0 UV-I 16 W/m² 1,1 °C 2,4 °C 3,2 km/h (1 Bft)
29.03.2018 18:52 2,4 °C 91 % 1006,9 hPa 0,0 mm 4,1 km/h (1 Bft) SW 220 ° 0 min 0,000 mm 0,0 UV-I 16 W/m² 1,1 °C 2,4 °C 6,4 km/h (2 Bft)
29.03.2018 18:53 2,4 °C 91 % 1006,9 hPa 0,0 mm 4,4 km/h (1 Bft) S-SW 210 ° 0 min 0,000 mm 0,0 UV-I 18 W/m² 1,1 °C 2,4 °C 8,0 km/h (2 Bft)
29.03.2018 18:54 2,4 °C 91 % 1006,9 hPa 0,0 mm 3,5 km/h (1 Bft) SW 215 ° 0 min 0,000 mm 0,0 UV-I 19 W/m² 1,1 °C 2,4 °C 8,0 km/h (2 Bft)
29.03.2018 18:55 2,4 °C 91 % 1006,9 hPa 0,0 mm 2,9 km/h (1 Bft) S-SW 211 ° 0 min 0,000 mm 0,0 UV-I 21 W/m² 1,1 °C 2,4 °C 4,8 km/h (1 Bft)
29.03.2018 18:56 2,4 °C 91 % 1006,9 hPa 0,0 mm 0,9 km/h (0 Bft) S-SW 211 ° 0 min 0,000 mm 0,0 UV-I 23 W/m² 1,1 °C 2,4 °C 1,6 km/h (1 Bft)
29.03.2018 18:57 2,4 °C 91 % 1006,9 hPa 0,0 mm 0,0 km/h (0 Bft) S-SW 211 ° 0 min 0,000 mm 0,0 UV-I 25 W/m² 1,1 °C 2,4 °C 0,0 km/h (0 Bft)
29.03.2018 18:58 2,4 °C 91 % 1006,9 hPa 0,0 mm 0,0 km/h (0 Bft) S-SW 211 ° 0 min 0,000 mm 0,0 UV-I 25 W/m² 1,1 °C 2,4 °C 0,0 km/h (0 Bft)
29.03.2018 18:59 2,4 °C 91 % 1006,9 hPa 0,0 mm 0,0 km/h (0 Bft) S-SW 211 ° 0 min 0,000 mm 0,0 UV-I 21 W/m² 1,1 °C 2,4 °C 0,0 km/h (0 Bft)
29.03.2018 19:00 2,4 °C 91 % 1006,9 hPa 0,0 mm 1,9 km/h (1 Bft) S-SW 211 ° 0 min 0,025 mm 0,0 UV-I 19 W/m² 1,1 °C 2,4 °C 3,2 km/h (1 Bft)
29.03.2018 19:01 2,4 °C 91 % 1006,9 hPa 0,0 mm 1,4 km/h (1 Bft) S-SW 211 ° 0 min 0,000 mm 0,0 UV-I 18 W/m² 1,1 °C 2,4 °C 3,2 km/h (1 Bft)
29.03.2018 19:02 2,4 °C 91 % 1006,9 hPa 0,0 mm 1,5 km/h (1 Bft) S-SW 211 ° 0 min 0,000 mm 0,0 UV-I 18 W/m² 1,1 °C 2,4 °C 3,2 km/h (1 Bft)
29.03.2018 19:03 2,4 °C 91 % 1006,9 hPa 0,0 mm 0,0 km/h (0 Bft) S-SW 211 ° 0 min 0,000 mm 0,0 UV-I 18 W/m² 1,1 °C 2,4 °C 0,0 km/h (0 Bft)
29.03.2018 19:04 2,4 °C 91 % 1007,0 hPa 0,0 mm 0,9 km/h (0 Bft) SW 229 ° 0 min 0,000 mm 0,0 UV-I 18 W/m² 1,1 °C 2,4 °C 4,8 km/h (1 Bft)
29.03.2018 19:05 2,4 °C 91 % 1007,0 hPa 0,0 mm 2,7 km/h (1 Bft) SW 224 ° 0 min 0,000 mm 0,0 UV-I 18 W/m² 1,1 °C 2,4 °C 4,8 km/h (1 Bft)
29.03.2018 19:06 2,4 °C 91 % 1007,1 hPa 0,0 mm 0,9 km/h (0 Bft) SW 224 ° 0 min 0,000 mm 0,0 UV-I 18 W/m² 1,1 °C 2,4 °C 3,2 km/h (1 Bft)
29.03.2018 19:07 2,4 °C 91 % 1007,0 hPa 0,0 mm 0,7 km/h (0 Bft) SW 224 ° 0 min 0,000 mm 0,0 UV-I 19 W/m² 1,1 °C 2,4 °C 1,6 km/h (1 Bft)
29.03.2018 19:08 2,5 °C 91 % 1007,1 hPa 0,0 mm 0,1 km/h (0 Bft) SW 224 ° 0 min 0,000 mm 0,0 UV-I 19 W/m² 1,2 °C 2,5 °C 1,6 km/h (1 Bft)
29.03.2018 19:09 2,6 °C 91 % 1007,1 hPa 0,0 mm 0,0 km/h (0 Bft) SW 224 ° 0 min 0,000 mm 0,0 UV-I 21 W/m² 1,3 °C 2,6 °C 0,0 km/h (0 Bft)
29.03.2018 19:10 2,5 °C 91 % 1007,1 hPa 0,0 mm 0,0 km/h (0 Bft) SW 224 ° 0 min 0,000 mm 0,0 UV-I 21 W/m² 1,2 °C 2,5 °C 0,0 km/h (0 Bft)
29.03.2018 19:11 2,6 °C 91 % 1007,1 hPa 0,0 mm 0,0 km/h (0 Bft) SW 224 ° 0 min 0,000 mm 0,0 UV-I 19 W/m² 1,3 °C 2,6 °C 0,0 km/h (0 Bft)
29.03.2018 19:12 2,6 °C 91 % 1007,1 hPa 0,0 mm 0,8 km/h (0 Bft) SW 224 ° 0 min 0,000 mm 0,0 UV-I 19 W/m² 1,3 °C 2,6 °C 1,6 km/h (1 Bft)
29.03.2018 19:13 2,6 °C 91 % 1007,1 hPa 0,0 mm 1,1 km/h (1 Bft) SW 224 ° 0 min 0,000 mm 0,0 UV-I 18 W/m² 1,3 °C 2,6 °C 1,6 km/h (1 Bft)
29.03.2018 19:14 2,6 °C 91 % 1007,1 hPa 0,0 mm 0,6 km/h (0 Bft) SW 224 ° 0 min 0,000 mm 0,0 UV-I 16 W/m² 1,3 °C 2,6 °C 1,6 km/h (1 Bft)
29.03.2018 19:15 2,6 °C 91 % 1007,1 hPa 0,0 mm 0,0 km/h (0 Bft) SW 224 ° 0 min 0,000 mm 0,0 UV-I 14 W/m² 1,3 °C 2,6 °C 0,0 km/h (0 Bft)
29.03.2018 19:16 2,5 °C 91 % 1007,1 hPa 0,0 mm 0,0 km/h (0 Bft) SW 224 ° 0 min 0,000 mm 0,0 UV-I 12 W/m² 1,2 °C 2,5 °C 0,0 km/h (0 Bft)
29.03.2018 19:17 2,5 °C 91 % 1007,1 hPa 0,0 mm 0,0 km/h (0 Bft) SW 224 ° 0 min 0,000 mm 0,0 UV-I 11 W/m² 1,2 °C 2,5 °C 0,0 km/h (0 Bft)
29.03.2018 19:18 2,4 °C 91 % 1007,1 hPa 0,0 mm 1,3 km/h (1 Bft) SW 224 ° 0 min 0,000 mm 0,0 UV-I 9 W/m² 1,1 °C 2,4 °C 3,2 km/h (1 Bft)
29.03.2018 19:19 2,4 °C 91 % 1007,1 hPa 0,0 mm 1,1 km/h (1 Bft) SW 224 ° 0 min 0,000 mm 0,0 UV-I 7 W/m² 1,1 °C 2,4 °C 1,6 km/h (1 Bft)
29.03.2018 19:20 2,4 °C 91 % 1007,1 hPa 0,0 mm 0,0 km/h (0 Bft) SW 224 ° 0 min 0,000 mm 0,0 UV-I 7 W/m² 1,1 °C 2,4 °C 0,0 km/h (0 Bft)
29.03.2018 19:21 2,4 °C 91 % 1007,1 hPa 0,0 mm 0,0 km/h (0 Bft) SW 224 ° 0 min 0,000 mm 0,0 UV-I 7 W/m² 1,1 °C 2,4 °C 0,0 km/h (0 Bft)
29.03.2018 19:22 2,4 °C 92 % 1007,1 hPa 0,0 mm 0,0 km/h (0 Bft) SW 224 ° 0 min 0,000 mm 0,0 UV-I 5 W/m² 1,2 °C 2,4 °C 0,0 km/h (0 Bft)
29.03.2018 19:23 2,4 °C 92 % 1007,1 hPa 0,0 mm 0,0 km/h (0 Bft) SW 224 ° 0 min 0,000 mm 0,0 UV-I 5 W/m² 1,2 °C 2,4 °C 0,0 km/h (0 Bft)
29.03.2018 19:24 2,4 °C 92 % 1007,1 hPa 0,0 mm 0,0 km/h (0 Bft) SW 224 ° 0 min 0,000 mm 0,0 UV-I 5 W/m² 1,2 °C 2,4 °C 0,0 km/h (0 Bft)
29.03.2018 19:25 2,4 °C 92 % 1007,1 hPa 0,0 mm 0,0 km/h (0 Bft) SW 224 ° 0 min 0,000 mm 0,0 UV-I 5 W/m² 1,2 °C 2,4 °C 0,0 km/h (0 Bft)
29.03.2018 19:26 2,4 °C 92 % 1007,1 hPa 0,0 mm 0,0 km/h (0 Bft) SW 224 ° 0 min 0,000 mm 0,0 UV-I 5 W/m² 1,2 °C 2,4 °C 0,0 km/h (0 Bft)
29.03.2018 19:27 2,4 °C 92 % 1007,1 hPa 0,0 mm 0,0 km/h (0 Bft) SW 224 ° 0 min 0,000 mm 0,0 UV-I 5 W/m² 1,2 °C 2,4 °C 0,0 km/h (0 Bft)
29.03.2018 19:28 2,4 °C 92 % 1007,2 hPa 0,0 mm 0,0 km/h (0 Bft) SW 224 ° 0 min 0,000 mm 0,0 UV-I 0 W/m² 1,2 °C 2,4 °C 0,0 km/h (0 Bft)
29.03.2018 19:29 2,4 °C 92 % 1007,3 hPa 0,0 mm 0,0 km/h (0 Bft) SW 224 ° 0 min 0,000 mm 0,0 UV-I 0 W/m² 1,2 °C 2,4 °C 0,0 km/h (0 Bft)
29.03.2018 19:30 2,4 °C 92 % 1007,3 hPa 0,0 mm 3,7 km/h (1 Bft) W-SW 251 ° 0 min 0,000 mm 0,0 UV-I 0 W/m² 1,2 °C 2,4 °C 6,4 km/h (2 Bft)
29.03.2018 19:31 2,4 °C 92 % 1007,4 hPa 0,0 mm 0,9 km/h (0 Bft) W-SW 251 ° 0 min 0,000 mm 0,0 UV-I 0 W/m² 1,2 °C 2,4 °C 3,2 km/h (1 Bft)
29.03.2018 19:32 2,4 °C 92 % 1007,4 hPa 0,0 mm 0,4 km/h (0 Bft) W-SW 251 ° 0 min 0,000 mm 0,0 UV-I 0 W/m² 1,2 °C 2,4 °C 3,2 km/h (1 Bft)
29.03.2018 19:33 2,4 °C 92 % 1007,4 hPa 0,0 mm 0,8 km/h (0 Bft) W-SW 251 ° 0 min 0,000 mm 0,0 UV-I 0 W/m² 1,2 °C 2,4 °C 3,2 km/h (1 Bft)
29.03.2018 19:34 2,4 °C 92 % 1007,4 hPa 0,0 mm 0,4 km/h (0 Bft) W-SW 251 ° 0 min 0,000 mm 0,0 UV-I 0 W/m² 1,2 °C 2,4 °C 1,6 km/h (1 Bft)
29.03.2018 19:35 2,4 °C 92 % 1007,5 hPa 0,0 mm 0,0 km/h (0 Bft) W-SW 251 ° 0 min 0,000 mm 0,0 UV-I 0 W/m² 1,2 °C 2,4 °C 0,0 km/h (0 Bft)
29.03.2018 19:36 2,4 °C 92 % 1007,5 hPa 0,0 mm 0,0 km/h (0 Bft) W-SW 251 ° 0 min 0,000 mm 0,0 UV-I 0 W/m² 1,2 °C 2,4 °C 0,0 km/h (0 Bft)
29.03.2018 19:37 2,4 °C 92 % 1007,5 hPa 0,0 mm 0,1 km/h (0 Bft) W-SW 251 ° 0 min 0,000 mm 0,0 UV-I 0 W/m² 1,2 °C 2,4 °C 1,6 km/h (1 Bft)
29.03.2018 19:38 2,4 °C 92 % 1007,5 hPa 0,0 mm 3,4 km/h (1 Bft) W-SW 251 ° 0 min 0,000 mm 0,0 UV-I 0 W/m² 1,2 °C 2,4 °C 4,8 km/h (1 Bft)
29.03.2018 19:39 2,4 °C 92 % 1007,5 hPa 0,0 mm 2,0 km/h (1 Bft) W-SW 239 ° 0 min 0,000 mm 0,0 UV-I 0 W/m² 1,2 °C 2,4 °C 3,2 km/h (1 Bft)
29.03.2018 19:40 2,4 °C 92 % 1007,5 hPa 0,0 mm 0,6 km/h (0 Bft) W-SW 242 ° 0 min 0,000 mm 0,0 UV-I 0 W/m² 1,2 °C 2,4 °C 3,2 km/h (1 Bft)
29.03.2018 19:41 2,4 °C 92 % 1007,5 hPa 0,0 mm 0,0 km/h (0 Bft) W-SW 242 ° 0 min 0,000 mm 0,0 UV-I 0 W/m² 1,2 °C 2,4 °C 0,0 km/h (0 Bft)
29.03.2018 19:42 2,4 °C 92 % 1007,5 hPa 0,0 mm 0,0 km/h (0 Bft) W-SW 242 ° 0 min 0,000 mm 0,0 UV-I 0 W/m² 1,2 °C 2,4 °C 0,0 km/h (0 Bft)
29.03.2018 19:43 2,4 °C 92 % 1007,5 hPa 0,0 mm 0,0 km/h (0 Bft) W-SW 242 ° 0 min 0,000 mm 0,0 UV-I 0 W/m² 1,2 °C 2,4 °C 0,0 km/h (0 Bft)
29.03.2018 19:44 2,4 °C 92 % 1007,5 hPa 0,0 mm 0,1 km/h (0 Bft) W-SW 242 ° 0 min 0,000 mm 0,0 UV-I 0 W/m² 1,2 °C 2,4 °C 1,6 km/h (1 Bft)
29.03.2018 19:45 2,4 °C 92 % 1007,6 hPa 0,0 mm 1,0 km/h (0 Bft) W-SW 242 ° 0 min 0,000 mm 0,0 UV-I 0 W/m² 1,2 °C 2,4 °C 3,2 km/h (1 Bft)
29.03.2018 19:46 2,4 °C 92 % 1007,6 hPa 0,0 mm 0,0 km/h (0 Bft) W-SW 242 ° 0 min 0,000 mm 0,0 UV-I 0 W/m² 1,2 °C 2,4 °C 0,0 km/h (0 Bft)
29.03.2018 19:47 2,3 °C 92 % 1007,6 hPa 0,0 mm 0,0 km/h (0 Bft) W-SW 242 ° 0 min 0,000 mm 0,0 UV-I 0 W/m² 1,1 °C 2,3 °C 0,0 km/h (0 Bft)
29.03.2018 19:48 2,4 °C 92 % 1007,6 hPa 0,0 mm 0,0 km/h (0 Bft) W-SW 242 ° 0 min 0,000 mm 0,0 UV-I 0 W/m² 1,2 °C 2,4 °C 0,0 km/h (0 Bft)
29.03.2018 19:49 2,3 °C 92 % 1007,6 hPa 0,0 mm 0,0 km/h (0 Bft) W-SW 242 ° 0 min 0,000 mm 0,0 UV-I 0 W/m² 1,1 °C 2,3 °C 0,0 km/h (0 Bft)
29.03.2018 19:50 2,4 °C 92 % 1007,6 hPa 0,0 mm 0,0 km/h (0 Bft) W-SW 242 ° 0 min 0,000 mm 0,0 UV-I 0 W/m² 1,2 °C 2,4 °C 0,0 km/h (0 Bft)
29.03.2018 19:51 2,4 °C 92 % 1007,7 hPa 0,0 mm 0,0 km/h (0 Bft) W-SW 242 ° 0 min 0,000 mm 0,0 UV-I 0 W/m² 1,2 °C 2,4 °C 0,0 km/h (0 Bft)
29.03.2018 19:52 2,4 °C 92 % 1007,7 hPa 0,0 mm 0,0 km/h (0 Bft) W-SW 242 ° 0 min 0,000 mm 0,0 UV-I 0 W/m² 1,2 °C 2,4 °C 0,0 km/h (0 Bft)
29.03.2018 19:53 2,4 °C 92 % 1007,7 hPa 0,0 mm 0,0 km/h (0 Bft) W-SW 242 ° 0 min 0,000 mm 0,0 UV-I 0 W/m² 1,2 °C 2,4 °C 0,0 km/h (0 Bft)
29.03.2018 19:54 2,4 °C 92 % 1007,7 hPa 0,0 mm 0,0 km/h (0 Bft) W-SW 242 ° 0 min 0,000 mm 0,0 UV-I 0 W/m² 1,2 °C 2,4 °C 0,0 km/h (0 Bft)
29.03.2018 19:55 2,4 °C 92 % 1007,7 hPa 0,0 mm 0,0 km/h (0 Bft) W-SW 242 ° 0 min 0,000 mm 0,0 UV-I 0 W/m² 1,2 °C 2,4 °C 0,0 km/h (0 Bft)
29.03.2018 19:56 2,4 °C 92 % 1007,8 hPa 0,0 mm 0,0 km/h (0 Bft) W-SW 242 ° 0 min 0,000 mm 0,0 UV-I 0 W/m² 1,2 °C 2,4 °C 0,0 km/h (0 Bft)
29.03.2018 19:57 2,4 °C 92 % 1007,8 hPa 0,0 mm 0,0 km/h (0 Bft) W-SW 242 ° 0 min 0,000 mm 0,0 UV-I 0 W/m² 1,2 °C 2,4 °C 0,0 km/h (0 Bft)
29.03.2018 19:58 2,4 °C 92 % 1007,8 hPa 0,0 mm 0,1 km/h (0 Bft) W-SW 242 ° 0 min 0,000 mm 0,0 UV-I 0 W/m² 1,2 °C 2,4 °C 1,6 km/h (1 Bft)
29.03.2018 19:59 2,4 °C 92 % 1007,9 hPa 0,0 mm 0,0 km/h (0 Bft) W-SW 242 ° 0 min 0,000 mm 0,0 UV-I 0 W/m² 1,2 °C 2,4 °C 0,0 km/h (0 Bft)
29.03.2018 20:00 2,4 °C 92 % 1007,8 hPa 0,0 mm 0,0 km/h (0 Bft) W-SW 242 ° 0 min 0,000 mm 0,0 UV-I 0 W/m² 1,2 °C 2,4 °C 0,0 km/h (0 Bft)
29.03.2018 20:01 2,4 °C 92 % 1007,9 hPa 0,0 mm 0,0 km/h (0 Bft) W-SW 242 ° 0 min 0,000 mm 0,0 UV-I 0 W/m² 1,2 °C 2,4 °C 0,0 km/h (0 Bft)
29.03.2018 20:02 2,4 °C 92 % 1007,9 hPa 0,0 mm 0,0 km/h (0 Bft) W-SW 242 ° 0 min 0,000 mm 0,0 UV-I 0 W/m² 1,2 °C 2,4 °C 0,0 km/h (0 Bft)
29.03.2018 20:03 2,4 °C 92 % 1007,9 hPa 0,0 mm 0,0 km/h (0 Bft) W-SW 242 ° 0 min 0,000 mm 0,0 UV-I 0 W/m² 1,2 °C 2,4 °C 0,0 km/h (0 Bft)
29.03.2018 20:04 2,4 °C 92 % 1007,9 hPa 0,0 mm 0,0 km/h (0 Bft) W-SW 242 ° 0 min 0,000 mm 0,0 UV-I 0 W/m² 1,2 °C 2,4 °C 0,0 km/h (0 Bft)
29.03.2018 20:05 2,4 °C 92 % 1008,0 hPa 0,0 mm 0,0 km/h (0 Bft) W-SW 242 ° 0 min 0,000 mm 0,0 UV-I 0 W/m² 1,2 °C 2,4 °C 0,0 km/h (0 Bft)
29.03.2018 20:06 2,3 °C 92 % 1008,0 hPa 0,0 mm 0,0 km/h (0 Bft) W-SW 242 ° 0 min 0,000 mm 0,0 UV-I 0 W/m² 1,1 °C 2,3 °C 0,0 km/h (0 Bft)
29.03.2018 20:07 2,3 °C 92 % 1008,0 hPa 0,0 mm 0,0 km/h (0 Bft) W-SW 242 ° 0 min 0,000 mm 0,0 UV-I 0 W/m² 1,1 °C 2,3 °C 0,0 km/h (0 Bft)
29.03.2018 20:08 2,3 °C 92 % 1008,0 hPa 0,0 mm 0,0 km/h (0 Bft) W-SW 242 ° 0 min 0,000 mm 0,0 UV-I 0 W/m² 1,1 °C 2,3 °C 0,0 km/h (0 Bft)
29.03.2018 20:09 2,3 °C 92 % 1008,1 hPa 0,0 mm 0,0 km/h (0 Bft) W-SW 242 ° 0 min 0,000 mm 0,0 UV-I 0 W/m² 1,1 °C 2,3 °C 0,0 km/h (0 Bft)
29.03.2018 20:10 2,3 °C 92 % 1008,1 hPa 0,0 mm 0,0 km/h (0 Bft) W-SW 242 ° 0 min 0,000 mm 0,0 UV-I 0 W/m² 1,1 °C 2,3 °C 0,0 km/h (0 Bft)
29.03.2018 20:11 2,3 °C 92 % 1008,0 hPa 0,0 mm 0,0 km/h (0 Bft) W-SW 242 ° 0 min 0,000 mm 0,0 UV-I 0 W/m² 1,1 °C 2,3 °C 0,0 km/h (0 Bft)
29.03.2018 20:12 2,3 °C 93 % 1008,0 hPa 0,0 mm 0,0 km/h (0 Bft) W-SW 242 ° 0 min 0,000 mm 0,0 UV-I 0 W/m² 1,3 °C 2,3 °C 0,0 km/h (0 Bft)
29.03.2018 20:13 2,3 °C 93 % 1008,0 hPa 0,0 mm 0,0 km/h (0 Bft) W-SW 242 ° 0 min 0,000 mm 0,0 UV-I 0 W/m² 1,3 °C 2,3 °C 0,0 km/h (0 Bft)
29.03.2018 20:14 2,3 °C 93 % 1008,0 hPa 0,0 mm 0,0 km/h (0 Bft) W-SW 242 ° 0 min 0,000 mm 0,0 UV-I 0 W/m² 1,3 °C 2,3 °C 0,0 km/h (0 Bft)
29.03.2018 20:15 2,3 °C 93 % 1008,1 hPa 0,0 mm 0,0 km/h (0 Bft) W-SW 242 ° 0 min 0,000 mm 0,0 UV-I 0 W/m² 1,3 °C 2,3 °C 0,0 km/h (0 Bft)
29.03.2018 20:16 2,3 °C 93 % 1008,1 hPa 0,0 mm 0,0 km/h (0 Bft) W-SW 242 ° 0 min 0,000 mm 0,0 UV-I 0 W/m² 1,3 °C 2,3 °C 0,0 km/h (0 Bft)
29.03.2018 20:17 2,3 °C 93 % 1008,2 hPa 0,0 mm 0,0 km/h (0 Bft) W-SW 242 ° 0 min 0,000 mm 0,0 UV-I 0 W/m² 1,3 °C 2,3 °C 0,0 km/h (0 Bft)
29.03.2018 20:18 2,3 °C 93 % 1008,2 hPa 0,0 mm 0,0 km/h (0 Bft) W-SW 242 ° 0 min 0,000 mm 0,0 UV-I 0 W/m² 1,3 °C 2,3 °C 0,0 km/h (0 Bft)
29.03.2018 20:19 2,3 °C 93 % 1008,2 hPa 0,0 mm 0,0 km/h (0 Bft) W-SW 242 ° 0 min 0,000 mm 0,0 UV-I 0 W/m² 1,3 °C 2,3 °C 0,0 km/h (0 Bft)
29.03.2018 20:20 2,3 °C 93 % 1008,3 hPa 0,0 mm 0,0 km/h (0 Bft) W-SW 242 ° 0 min 0,000 mm 0,0 UV-I 0 W/m² 1,3 °C 2,3 °C 0,0 km/h (0 Bft)
29.03.2018 20:21 2,4 °C 93 % 1008,2 hPa 0,0 mm 0,0 km/h (0 Bft) W-SW 242 ° 0 min 0,000 mm 0,0 UV-I 0 W/m² 1,4 °C 2,4 °C 0,0 km/h (0 Bft)
29.03.2018 20:22 2,4 °C 93 % 1008,2 hPa 0,0 mm 0,0 km/h (0 Bft) W-SW 242 ° 0 min 0,000 mm 0,0 UV-I 0 W/m² 1,4 °C 2,4 °C 0,0 km/h (0 Bft)
29.03.2018 20:23 2,4 °C 93 % 1008,2 hPa 0,0 mm 0,0 km/h (0 Bft) W-SW 242 ° 0 min 0,000 mm 0,0 UV-I 0 W/m² 1,4 °C 2,4 °C 0,0 km/h (0 Bft)
29.03.2018 20:24 2,4 °C 93 % 1008,2 hPa 0,0 mm 0,0 km/h (0 Bft) W-SW 242 ° 0 min 0,000 mm 0,0 UV-I 0 W/m² 1,4 °C 2,4 °C 0,0 km/h (0 Bft)
29.03.2018 20:25 2,4 °C 93 % 1008,3 hPa 0,0 mm 0,0 km/h (0 Bft) W-SW 242 ° 0 min 0,000 mm 0,0 UV-I 0 W/m² 1,4 °C 2,4 °C 0,0 km/h (0 Bft)
29.03.2018 20:26 2,4 °C 93 % 1008,2 hPa 0,0 mm 0,3 km/h (0 Bft) W-SW 242 ° 0 min 0,000 mm 0,0 UV-I 0 W/m² 1,4 °C 2,4 °C 1,6 km/h (1 Bft)
29.03.2018 20:27 2,4 °C 93 % 1008,3 hPa 0,0 mm 0,7 km/h (0 Bft) NW 323 ° 0 min 0,000 mm 0,0 UV-I 0 W/m² 1,4 °C 2,4 °C 3,2 km/h (1 Bft)
29.03.2018 20:28 2,4 °C 93 % 1008,3 hPa 0,0 mm 0,0 km/h (0 Bft) NW 323 ° 0 min 0,000 mm 0,0 UV-I 0 W/m² 1,4 °C 2,4 °C 0,0 km/h (0 Bft)
29.03.2018 20:29 2,4 °C 93 % 1008,3 hPa 0,0 mm 0,0 km/h (0 Bft) NW 323 ° 0 min 0,000 mm 0,0 UV-I 0 W/m² 1,4 °C 2,4 °C 0,0 km/h (0 Bft)
29.03.2018 20:30 2,4 °C 93 % 1008,3 hPa 0,0 mm 0,0 km/h (0 Bft) NW 323 ° 0 min 0,000 mm 0,0 UV-I 0 W/m² 1,4 °C 2,4 °C 0,0 km/h (0 Bft)
29.03.2018 20:31 2,4 °C 93 % 1008,3 hPa 0,0 mm 0,0 km/h (0 Bft) NW 323 ° 0 min 0,000 mm 0,0 UV-I 0 W/m² 1,4 °C 2,4 °C 0,0 km/h (0 Bft)
29.03.2018 20:32 2,5 °C 93 % 1008,3 hPa 0,0 mm 0,3 km/h (0 Bft) NW 323 ° 0 min 0,000 mm 0,0 UV-I 0 W/m² 1,5 °C 2,5 °C 1,6 km/h (1 Bft)
29.03.2018 20:33 2,5 °C 93 % 1008,2 hPa 0,0 mm 0,7 km/h (0 Bft) NW 323 ° 0 min 0,000 mm 0,0 UV-I 0 W/m² 1,5 °C 2,5 °C 3,2 km/h (1 Bft)
29.03.2018 20:34 2,5 °C 93 % 1008,2 hPa 0,0 mm 1,5 km/h (1 Bft) NW 323 ° 0 min 0,000 mm 0,0 UV-I 0 W/m² 1,5 °C 2,5 °C 3,2 km/h (1 Bft)
29.03.2018 20:35 2,5 °C 93 % 1008,2 hPa 0,0 mm 1,4 km/h (1 Bft) NW 323 ° 0 min 0,000 mm 0,0 UV-I 0 W/m² 1,5 °C 2,5 °C 3,2 km/h (1 Bft)
29.03.2018 20:36 2,6 °C 92 % 1008,2 hPa 0,0 mm 1,0 km/h (0 Bft) NW 325 ° 0 min 0,000 mm 0,0 UV-I 0 W/m² 1,4 °C 2,6 °C 3,2 km/h (1 Bft)
29.03.2018 20:37 2,6 °C 92 % 1008,2 hPa 0,0 mm 0,0 km/h (0 Bft) NW 325 ° 0 min 0,000 mm 0,0 UV-I 0 W/m² 1,4 °C 2,6 °C 0,0 km/h (0 Bft)
29.03.2018 20:38 2,6 °C 92 % 1008,2 hPa 0,0 mm 1,5 km/h (1 Bft) NW 325 ° 0 min 0,000 mm 0,0 UV-I 0 W/m² 1,4 °C 2,6 °C 3,2 km/h (1 Bft)
29.03.2018 20:39 2,5 °C 92 % 1008,2 hPa 0,0 mm 1,4 km/h (1 Bft) NW 325 ° 0 min 0,000 mm 0,0 UV-I 0 W/m² 1,3 °C 2,5 °C 3,2 km/h (1 Bft)
29.03.2018 20:40 2,5 °C 92 % 1008,3 hPa 0,0 mm 0,2 km/h (0 Bft) NW 325 ° 0 min 0,000 mm 0,0 UV-I 0 W/m² 1,3 °C 2,5 °C 1,6 km/h (1 Bft)
29.03.2018 20:41 2,6 °C 93 % 1008,3 hPa 0,0 mm 0,1 km/h (0 Bft) NW 325 ° 0 min 0,000 mm 0,0 UV-I 0 W/m² 1,6 °C 2,6 °C 1,6 km/h (1 Bft)
29.03.2018 20:42 2,5 °C 92 % 1008,3 hPa 0,0 mm 1,5 km/h (1 Bft) NW 325 ° 0 min 0,000 mm 0,0 UV-I 0 W/m² 1,3 °C 2,5 °C 3,2 km/h (1 Bft)
29.03.2018 20:43 2,5 °C 92 % 1008,3 hPa 0,0 mm 0,3 km/h (0 Bft) NW 325 ° 0 min 0,000 mm 0,0 UV-I 0 W/m² 1,3 °C 2,5 °C 1,6 km/h (1 Bft)
29.03.2018 20:44 2,5 °C 92 % 1008,4 hPa 0,0 mm 0,0 km/h (0 Bft) NW 325 ° 0 min 0,000 mm 0,0 UV-I 0 W/m² 1,3 °C 2,5 °C 0,0 km/h (0 Bft)
29.03.2018 20:45 2,4 °C 92 % 1008,3 hPa 0,0 mm 0,0 km/h (0 Bft) NW 325 ° 0 min 0,000 mm 0,0 UV-I 0 W/m² 1,2 °C 2,4 °C 0,0 km/h (0 Bft)
29.03.2018 20:46 2,4 °C 92 % 1008,4 hPa 0,0 mm 0,0 km/h (0 Bft) NW 325 ° 0 min 0,000 mm 0,0 UV-I 0 W/m² 1,2 °C 2,4 °C 0,0 km/h (0 Bft)
29.03.2018 20:47 2,4 °C 92 % 1008,4 hPa 0,0 mm 0,0 km/h (0 Bft) NW 325 ° 0 min 0,000 mm 0,0 UV-I 0 W/m² 1,2 °C 2,4 °C 0,0 km/h (0 Bft)
29.03.2018 20:48 2,4 °C 92 % 1008,4 hPa 0,0 mm 0,0 km/h (0 Bft) NW 325 ° 0 min 0,000 mm 0,0 UV-I 0 W/m² 1,2 °C 2,4 °C 0,0 km/h (0 Bft)
29.03.2018 20:49 2,4 °C 92 % 1008,5 hPa 0,0 mm 0,0 km/h (0 Bft) NW 325 ° 0 min 0,000 mm 0,0 UV-I 0 W/m² 1,2 °C 2,4 °C 0,0 km/h (0 Bft)
29.03.2018 20:50 2,3 °C 92 % 1008,5 hPa 0,0 mm 0,0 km/h (0 Bft) NW 325 ° 0 min 0,000 mm 0,0 UV-I 0 W/m² 1,1 °C 2,3 °C 0,0 km/h (0 Bft)
29.03.2018 20:51 2,3 °C 92 % 1008,5 hPa 0,0 mm 0,0 km/h (0 Bft) NW 325 ° 0 min 0,000 mm 0,0 UV-I 0 W/m² 1,1 °C 2,3 °C 0,0 km/h (0 Bft)
29.03.2018 20:52 2,3 °C 92 % 1008,5 hPa 0,0 mm 0,0 km/h (0 Bft) NW 325 ° 0 min 0,000 mm 0,0 UV-I 0 W/m² 1,1 °C 2,3 °C 0,0 km/h (0 Bft)
29.03.2018 20:53 2,3 °C 92 % 1008,6 hPa 0,0 mm 0,0 km/h (0 Bft) NW 325 ° 0 min 0,000 mm 0,0 UV-I 0 W/m² 1,1 °C 2,3 °C 0,0 km/h (0 Bft)
29.03.2018 20:54 2,3 °C 92 % 1008,6 hPa 0,0 mm 0,0 km/h (0 Bft) NW 325 ° 0 min 0,000 mm 0,0 UV-I 0 W/m² 1,1 °C 2,3 °C 0,0 km/h (0 Bft)
29.03.2018 20:55 2,3 °C 93 % 1008,5 hPa 0,0 mm 0,0 km/h (0 Bft) NW 325 ° 0 min 0,000 mm 0,0 UV-I 0 W/m² 1,3 °C 2,3 °C 0,0 km/h (0 Bft)
29.03.2018 20:56 2,3 °C 92 % 1008,5 hPa 0,0 mm 0,8 km/h (0 Bft) NW 325 ° 0 min 0,000 mm 0,0 UV-I 0 W/m² 1,1 °C 2,3 °C 3,2 km/h (1 Bft)
29.03.2018 20:57 2,2 °C 93 % 1008,5 hPa 0,0 mm 0,0 km/h (0 Bft) NW 325 ° 0 min 0,000 mm 0,0 UV-I 0 W/m² 1,2 °C 2,2 °C 0,0 km/h (0 Bft)
29.03.2018 20:58 2,2 °C 92 % 1008,5 hPa 0,0 mm 0,0 km/h (0 Bft) NW 325 ° 0 min 0,000 mm 0,0 UV-I 0 W/m² 1,0 °C 2,2 °C 0,0 km/h (0 Bft)
29.03.2018 20:59 2,2 °C 92 % 1008,5 hPa 0,0 mm 0,1 km/h (0 Bft) NW 325 ° 0 min 0,000 mm 0,0 UV-I 0 W/m² 1,0 °C 2,2 °C 1,6 km/h (1 Bft)
29.03.2018 21:00 2,2 °C 93 % 1008,5 hPa 0,0 mm 0,9 km/h (0 Bft) N-NW 331 ° 0 min 0,000 mm 0,0 UV-I 0 W/m² 1,2 °C 2,2 °C 3,2 km/h (1 Bft)
29.03.2018 21:01 2,2 °C 92 % 1008,6 hPa 0,0 mm 0,5 km/h (0 Bft) N-NW 331 ° 0 min 0,000 mm 0,0 UV-I 0 W/m² 1,0 °C 2,2 °C 1,6 km/h (1 Bft)
29.03.2018 21:02 2,2 °C 92 % 1008,6 hPa 0,0 mm 0,0 km/h (0 Bft) N-NW 331 ° 0 min 0,000 mm 0,0 UV-I 0 W/m² 1,0 °C 2,2 °C 0,0 km/h (0 Bft)
29.03.2018 21:03 2,2 °C 92 % 1008,6 hPa 0,0 mm 1,2 km/h (1 Bft) N-NW 331 ° 0 min 0,000 mm 0,0 UV-I 0 W/m² 1,0 °C 2,2 °C 4,8 km/h (1 Bft)
29.03.2018 21:04 2,2 °C 92 % 1008,6 hPa 0,0 mm 0,0 km/h (0 Bft) N-NW 331 ° 0 min 0,000 mm 0,0 UV-I 0 W/m² 1,0 °C 2,2 °C 0,0 km/h (0 Bft)
29.03.2018 21:05 2,1 °C 93 % 1008,6 hPa 0,0 mm 0,0 km/h (0 Bft) N-NW 331 ° 0 min 0,000 mm 0,0 UV-I 0 W/m² 1,1 °C 2,1 °C 0,0 km/h (0 Bft)
29.03.2018 21:06 2,2 °C 93 % 1008,6 hPa 0,0 mm 0,0 km/h (0 Bft) N-NW 331 ° 0 min 0,000 mm 0,0 UV-I 0 W/m² 1,2 °C 2,2 °C 0,0 km/h (0 Bft)
29.03.2018 21:07 2,2 °C 93 % 1008,6 hPa 0,0 mm 0,0 km/h (0 Bft) N-NW 331 ° 0 min 0,000 mm 0,0 UV-I 0 W/m² 1,2 °C 2,2 °C 0,0 km/h (0 Bft)
29.03.2018 21:08 2,1 °C 93 % 1008,6 hPa 0,0 mm 0,0 km/h (0 Bft) N-NW 331 ° 0 min 0,000 mm 0,0 UV-I 0 W/m² 1,1 °C 2,1 °C 0,0 km/h (0 Bft)
29.03.2018 21:09 2,1 °C 93 % 1008,6 hPa 0,0 mm 1,5 km/h (1 Bft) S 180 ° 0 min 0,000 mm 0,0 UV-I 0 W/m² 1,1 °C 2,1 °C 3,2 km/h (1 Bft)
29.03.2018 21:10 2,1 °C 92 % 1008,6 hPa 0,0 mm 0,0 km/h (0 Bft) S 180 ° 0 min 0,000 mm 0,0 UV-I 0 W/m² 0,9 °C 2,1 °C 0,0 km/h (0 Bft)
29.03.2018 21:11 2,1 °C 93 % 1008,6 hPa 0,0 mm 2,3 km/h (1 Bft) SO 140 ° 0 min 0,000 mm 0,0 UV-I 0 W/m² 1,1 °C 2,1 °C 4,8 km/h (1 Bft)
29.03.2018 21:12 2,1 °C 93 % 1008,5 hPa 0,0 mm 1,0 km/h (0 Bft) SO 137 ° 0 min 0,000 mm 0,0 UV-I 0 W/m² 1,1 °C 2,1 °C 3,2 km/h (1 Bft)
29.03.2018 21:13 2,1 °C 93 % 1008,6 hPa 0,0 mm 0,1 km/h (0 Bft) SO 137 ° 0 min 0,000 mm 0,0 UV-I 0 W/m² 1,1 °C 2,1 °C 1,6 km/h (1 Bft)
29.03.2018 21:14 2,1 °C 93 % 1008,6 hPa 0,0 mm 0,0 km/h (0 Bft) SO 137 ° 0 min 0,000 mm 0,0 UV-I 0 W/m² 1,1 °C 2,1 °C 0,0 km/h (0 Bft)
29.03.2018 21:15 2,2 °C 93 % 1008,6 hPa 0,0 mm 0,0 km/h (0 Bft) SO 137 ° 0 min 0,000 mm 0,0 UV-I 0 W/m² 1,2 °C 2,2 °C 0,0 km/h (0 Bft)
29.03.2018 21:16 2,1 °C 93 % 1008,6 hPa 0,0 mm 0,0 km/h (0 Bft) SO 137 ° 0 min 0,000 mm 0,0 UV-I 0 W/m² 1,1 °C 2,1 °C 0,0 km/h (0 Bft)
29.03.2018 21:17 2,1 °C 92 % 1008,6 hPa 0,0 mm 0,1 km/h (0 Bft) SO 137 ° 0 min 0,000 mm 0,0 UV-I 0 W/m² 0,9 °C 2,1 °C 1,6 km/h (1 Bft)
29.03.2018 21:18 2,1 °C 93 % 1008,7 hPa 0,0 mm 0,5 km/h (0 Bft) S-SW 200 ° 0 min 0,000 mm 0,0 UV-I 0 W/m² 1,1 °C 2,1 °C 3,2 km/h (1 Bft)
29.03.2018 21:19 2,1 °C 93 % 1008,7 hPa 0,0 mm 0,3 km/h (0 Bft) S-SW 200 ° 0 min 0,000 mm 0,0 UV-I 0 W/m² 1,1 °C 2,1 °C 3,2 km/h (1 Bft)
29.03.2018 21:20 2,1 °C 93 % 1008,7 hPa 0,0 mm 0,0 km/h (0 Bft) S-SW 200 ° 0 min 0,000 mm 0,0 UV-I 0 W/m² 1,1 °C 2,1 °C 0,0 km/h (0 Bft)
29.03.2018 21:21 2,1 °C 93 % 1008,7 hPa 0,0 mm 0,0 km/h (0 Bft) S-SW 200 ° 0 min 0,000 mm 0,0 UV-I 0 W/m² 1,1 °C 2,1 °C 0,0 km/h (0 Bft)
29.03.2018 21:22 2,0 °C 93 % 1008,7 hPa 0,0 mm 0,0 km/h (0 Bft) S-SW 200 ° 0 min 0,000 mm 0,0 UV-I 0 W/m² 1,0 °C 2,0 °C 0,0 km/h (0 Bft)
29.03.2018 21:23 2,0 °C 93 % 1008,6 hPa 0,0 mm 0,0 km/h (0 Bft) S-SW 200 ° 0 min 0,000 mm 0,0 UV-I 0 W/m² 1,0 °C 2,0 °C 0,0 km/h (0 Bft)
29.03.2018 21:24 1,9 °C 93 % 1008,7 hPa 0,0 mm 0,0 km/h (0 Bft) S-SW 200 ° 0 min 0,000 mm 0,0 UV-I 0 W/m² 0,9 °C 1,9 °C 0,0 km/h (0 Bft)
29.03.2018 21:25 1,9 °C 93 % 1008,7 hPa 0,0 mm 0,0 km/h (0 Bft) S-SW 200 ° 0 min 0,000 mm 0,0 UV-I 0 W/m² 0,9 °C 1,9 °C 0,0 km/h (0 Bft)
29.03.2018 21:26 1,9 °C 93 % 1008,7 hPa 0,0 mm 0,0 km/h (0 Bft) S-SW 200 ° 0 min 0,000 mm 0,0 UV-I 0 W/m² 0,9 °C 1,9 °C 0,0 km/h (0 Bft)
29.03.2018 21:27 1,9 °C 93 % 1008,7 hPa 0,0 mm 0,0 km/h (0 Bft) S-SW 200 ° 0 min 0,000 mm 0,0 UV-I 0 W/m² 0,9 °C 1,9 °C 0,0 km/h (0 Bft)
29.03.2018 21:28 1,9 °C 92 % 1008,7 hPa 0,0 mm 0,0 km/h (0 Bft) S-SW 200 ° 0 min 0,000 mm 0,0 UV-I 0 W/m² 0,7 °C 1,9 °C 0,0 km/h (0 Bft)
29.03.2018 21:29 1,8 °C 92 % 1008,7 hPa 0,0 mm 0,0 km/h (0 Bft) S-SW 200 ° 0 min 0,000 mm 0,0 UV-I 0 W/m² 0,6 °C 1,8 °C 0,0 km/h (0 Bft)
29.03.2018 21:30 1,8 °C 92 % 1008,7 hPa 0,0 mm 0,0 km/h (0 Bft) S-SW 200 ° 0 min 0,000 mm 0,0 UV-I 0 W/m² 0,6 °C 1,8 °C 0,0 km/h (0 Bft)
29.03.2018 21:31 1,8 °C 92 % 1008,7 hPa 0,0 mm 0,0 km/h (0 Bft) S-SW 200 ° 0 min 0,000 mm 0,0 UV-I 0 W/m² 0,6 °C 1,8 °C 0,0 km/h (0 Bft)
29.03.2018 21:32 1,8 °C 92 % 1008,7 hPa 0,0 mm 0,4 km/h (0 Bft) S-SW 200 ° 0 min 0,000 mm 0,0 UV-I 0 W/m² 0,6 °C 1,8 °C 3,2 km/h (1 Bft)
29.03.2018 21:33 1,8 °C 92 % 1008,7 hPa 0,0 mm 0,4 km/h (0 Bft) S-SW 200 ° 0 min 0,000 mm 0,0 UV-I 0 W/m² 0,6 °C 1,8 °C 1,6 km/h (1 Bft)
29.03.2018 21:34 1,8 °C 92 % 1008,8 hPa 0,0 mm 0,0 km/h (0 Bft) S-SW 200 ° 0 min 0,000 mm 0,0 UV-I 0 W/m² 0,6 °C 1,8 °C 0,0 km/h (0 Bft)
29.03.2018 21:35 1,8 °C 92 % 1008,7 hPa 0,0 mm 0,1 km/h (0 Bft) S-SW 200 ° 0 min 0,000 mm 0,0 UV-I 0 W/m² 0,6 °C 1,8 °C 1,6 km/h (1 Bft)
29.03.2018 21:36 1,8 °C 92 % 1008,7 hPa 0,0 mm 0,0 km/h (0 Bft) S-SW 200 ° 0 min 0,000 mm 0,0 UV-I 0 W/m² 0,6 °C 1,8 °C 0,0 km/h (0 Bft)
29.03.2018 21:37 1,7 °C 92 % 1008,7 hPa 0,0 mm 0,0 km/h (0 Bft) S-SW 200 ° 0 min 0,000 mm 0,0 UV-I 0 W/m² 0,5 °C 1,7 °C 0,0 km/h (0 Bft)
29.03.2018 21:38 1,7 °C 92 % 1008,7 hPa 0,0 mm 0,0 km/h (0 Bft) S-SW 200 ° 0 min 0,000 mm 0,0 UV-I 0 W/m² 0,5 °C 1,7 °C 0,0 km/h (0 Bft)
29.03.2018 21:39 1,6 °C 93 % 1008,7 hPa 0,0 mm 0,0 km/h (0 Bft) S-SW 200 ° 0 min 0,000 mm 0,0 UV-I 0 W/m² 0,6 °C 1,6 °C 0,0 km/h (0 Bft)
29.03.2018 21:40 1,6 °C 93 % 1008,7 hPa 0,0 mm 0,0 km/h (0 Bft) S-SW 200 ° 0 min 0,000 mm 0,0 UV-I 0 W/m² 0,6 °C 1,6 °C 0,0 km/h (0 Bft)
29.03.2018 21:41 1,6 °C 93 % 1008,7 hPa 0,0 mm 0,0 km/h (0 Bft) S-SW 200 ° 0 min 0,000 mm 0,0 UV-I 0 W/m² 0,6 °C 1,6 °C 0,0 km/h (0 Bft)
29.03.2018 21:42 1,6 °C 92 % 1008,7 hPa 0,0 mm 0,0 km/h (0 Bft) S-SW 200 ° 0 min 0,000 mm 0,0 UV-I 0 W/m² 0,4 °C 1,6 °C 0,0 km/h (0 Bft)
29.03.2018 21:43 1,6 °C 93 % 1008,8 hPa 0,0 mm 0,0 km/h (0 Bft) S-SW 200 ° 0 min 0,000 mm 0,0 UV-I 0 W/m² 0,6 °C 1,6 °C 0,0 km/h (0 Bft)
29.03.2018 21:44 1,5 °C 93 % 1008,7 hPa 0,0 mm 0,0 km/h (0 Bft) S-SW 200 ° 0 min 0,000 mm 0,0 UV-I 0 W/m² 0,5 °C 1,5 °C 0,0 km/h (0 Bft)
29.03.2018 21:45 1,4 °C 92 % 1008,7 hPa 0,0 mm 0,0 km/h (0 Bft) S-SW 200 ° 0 min 0,000 mm 0,0 UV-I 0 W/m² 0,2 °C 1,4 °C 0,0 km/h (0 Bft)
29.03.2018 21:46 1,5 °C 93 % 1008,8 hPa 0,0 mm 0,0 km/h (0 Bft) S-SW 200 ° 0 min 0,000 mm 0,0 UV-I 0 W/m² 0,5 °C 1,5 °C 0,0 km/h (0 Bft)
29.03.2018 21:47 1,5 °C 93 % 1008,8 hPa 0,0 mm 0,0 km/h (0 Bft) S-SW 200 ° 0 min 0,000 mm 0,0 UV-I 0 W/m² 0,5 °C 1,5 °C 0,0 km/h (0 Bft)
29.03.2018 21:48 1,5 °C 93 % 1008,7 hPa 0,0 mm 0,0 km/h (0 Bft) S-SW 200 ° 0 min 0,000 mm 0,0 UV-I 0 W/m² 0,5 °C 1,5 °C 0,0 km/h (0 Bft)
29.03.2018 21:49 1,4 °C 93 % 1008,8 hPa 0,0 mm 0,0 km/h (0 Bft) S-SW 200 ° 0 min 0,000 mm 0,0 UV-I 0 W/m² 0,4 °C 1,4 °C 0,0 km/h (0 Bft)
29.03.2018 21:50 1,4 °C 93 % 1008,8 hPa 0,0 mm 0,0 km/h (0 Bft) S-SW 200 ° 0 min 0,000 mm 0,0 UV-I 0 W/m² 0,4 °C 1,4 °C 0,0 km/h (0 Bft)
29.03.2018 21:51 1,5 °C 93 % 1008,7 hPa 0,0 mm 0,0 km/h (0 Bft) S-SW 200 ° 0 min 0,000 mm 0,0 UV-I 0 W/m² 0,5 °C 1,5 °C 0,0 km/h (0 Bft)
29.03.2018 21:52 1,4 °C 93 % 1008,7 hPa 0,0 mm 0,0 km/h (0 Bft) S-SW 200 ° 0 min 0,000 mm 0,0 UV-I 0 W/m² 0,4 °C 1,4 °C 0,0 km/h (0 Bft)
29.03.2018 21:53 1,4 °C 93 % 1008,7 hPa 0,0 mm 0,0 km/h (0 Bft) S-SW 200 ° 0 min 0,000 mm 0,0 UV-I 0 W/m² 0,4 °C 1,4 °C 0,0 km/h (0 Bft)
29.03.2018 21:54 1,3 °C 92 % 1008,7 hPa 0,0 mm 0,0 km/h (0 Bft) S-SW 200 ° 0 min 0,000 mm 0,0 UV-I 0 W/m² 0,1 °C 1,3 °C 0,0 km/h (0 Bft)
29.03.2018 21:55 1,3 °C 92 % 1008,7 hPa 0,0 mm 0,0 km/h (0 Bft) S-SW 200 ° 0 min 0,000 mm 0,0 UV-I 0 W/m² 0,1 °C 1,3 °C 0,0 km/h (0 Bft)
29.03.2018 21:56 1,3 °C 93 % 1008,7 hPa 0,0 mm 0,0 km/h (0 Bft) S-SW 200 ° 0 min 0,000 mm 0,0 UV-I 0 W/m² 0,3 °C 1,3 °C 0,0 km/h (0 Bft)
29.03.2018 21:57 1,2 °C 93 % 1008,7 hPa 0,0 mm 0,0 km/h (0 Bft) S-SW 200 ° 0 min 0,000 mm 0,0 UV-I 0 W/m² 0,2 °C 1,2 °C 0,0 km/h (0 Bft)
29.03.2018 21:58 1,2 °C 93 % 1008,6 hPa 0,0 mm 0,0 km/h (0 Bft) S-SW 200 ° 0 min 0,000 mm 0,0 UV-I 0 W/m² 0,2 °C 1,2 °C 0,0 km/h (0 Bft)
29.03.2018 21:59 1,2 °C 93 % 1008,6 hPa 0,0 mm 0,0 km/h (0 Bft) S-SW 200 ° 0 min 0,000 mm 0,0 UV-I 0 W/m² 0,2 °C 1,2 °C 0,0 km/h (0 Bft)
29.03.2018 22:00 1,2 °C 93 % 1008,6 hPa 0,0 mm 0,0 km/h (0 Bft) S-SW 200 ° 0 min 0,000 mm 0,0 UV-I 0 W/m² 0,2 °C 1,2 °C 0,0 km/h (0 Bft)
29.03.2018 22:01 1,1 °C 93 % 1008,6 hPa 0,0 mm 0,0 km/h (0 Bft) S-SW 200 ° 0 min 0,000 mm 0,0 UV-I 0 W/m² 0,1 °C 1,1 °C 0,0 km/h (0 Bft)
29.03.2018 22:02 1,1 °C 93 % 1008,6 hPa 0,0 mm 0,0 km/h (0 Bft) S-SW 200 ° 0 min 0,000 mm 0,0 UV-I 0 W/m² 0,1 °C 1,1 °C 0,0 km/h (0 Bft)
29.03.2018 22:03 1,1 °C 93 % 1008,6 hPa 0,0 mm 0,0 km/h (0 Bft) S-SW 200 ° 0 min 0,000 mm 0,0 UV-I 0 W/m² 0,1 °C 1,1 °C 0,0 km/h (0 Bft)
29.03.2018 22:04 1,1 °C 93 % 1008,7 hPa 0,0 mm 0,0 km/h (0 Bft) S-SW 200 ° 0 min 0,000 mm 0,0 UV-I 0 W/m² 0,1 °C 1,1 °C 0,0 km/h (0 Bft)
29.03.2018 22:05 1,1 °C 93 % 1008,7 hPa 0,0 mm 0,0 km/h (0 Bft) S-SW 200 ° 0 min 0,000 mm 0,0 UV-I 0 W/m² 0,1 °C 1,1 °C 0,0 km/h (0 Bft)
29.03.2018 22:06 1,1 °C 93 % 1008,7 hPa 0,0 mm 0,0 km/h (0 Bft) S-SW 200 ° 0 min 0,000 mm 0,0 UV-I 0 W/m² 0,1 °C 1,1 °C 0,0 km/h (0 Bft)
29.03.2018 22:07 1,1 °C 93 % 1008,7 hPa 0,0 mm 0,0 km/h (0 Bft) S-SW 200 ° 0 min 0,000 mm 0,0 UV-I 0 W/m² 0,1 °C 1,1 °C 0,0 km/h (0 Bft)
29.03.2018 22:08 1,1 °C 93 % 1008,7 hPa 0,0 mm 0,0 km/h (0 Bft) S-SW 200 ° 0 min 0,000 mm 0,0 UV-I 0 W/m² 0,1 °C 1,1 °C 0,0 km/h (0 Bft)
29.03.2018 22:09 1,0 °C 93 % 1008,7 hPa 0,0 mm 0,0 km/h (0 Bft) S-SW 200 ° 0 min 0,000 mm 0,0 UV-I 0 W/m² -0,0 °C 1,0 °C 0,0 km/h (0 Bft)
29.03.2018 22:10 1,0 °C 93 % 1008,7 hPa 0,0 mm 0,0 km/h (0 Bft) S-SW 200 ° 0 min 0,000 mm 0,0 UV-I 0 W/m² -0,0 °C 1,0 °C 0,0 km/h (0 Bft)
29.03.2018 22:11 1,0 °C 93 % 1008,7 hPa 0,0 mm 0,0 km/h (0 Bft) S-SW 200 ° 0 min 0,000 mm 0,0 UV-I 0 W/m² -0,0 °C 1,0 °C 0,0 km/h (0 Bft)
29.03.2018 22:12 1,0 °C 93 % 1008,6 hPa 0,0 mm 0,0 km/h (0 Bft) S-SW 200 ° 0 min 0,000 mm 0,0 UV-I 0 W/m² -0,0 °C 1,0 °C 0,0 km/h (0 Bft)
29.03.2018 22:13 1,0 °C 93 % 1008,6 hPa 0,0 mm 0,0 km/h (0 Bft) S-SW 200 ° 0 min 0,000 mm 0,0 UV-I 0 W/m² -0,0 °C 1,0 °C 0,0 km/h (0 Bft)
29.03.2018 22:14 1,1 °C 93 % 1008,6 hPa 0,0 mm 0,0 km/h (0 Bft) S-SW 200 ° 0 min 0,000 mm 0,0 UV-I 0 W/m² 0,1 °C 1,1 °C 0,0 km/h (0 Bft)
29.03.2018 22:15 1,1 °C 93 % 1008,6 hPa 0,0 mm 0,0 km/h (0 Bft) S-SW 200 ° 0 min 0,000 mm 0,0 UV-I 0 W/m² 0,1 °C 1,1 °C 0,0 km/h (0 Bft)
29.03.2018 22:16 1,1 °C 93 % 1008,5 hPa 0,0 mm 0,2 km/h (0 Bft) S-SW 200 ° 0 min 0,000 mm 0,0 UV-I 0 W/m² 0,1 °C 1,1 °C 1,6 km/h (1 Bft)
29.03.2018 22:17 1,1 °C 93 % 1008,5 hPa 0,0 mm 0,0 km/h (0 Bft) S-SW 200 ° 0 min 0,000 mm 0,0 UV-I 0 W/m² 0,1 °C 1,1 °C 0,0 km/h (0 Bft)
29.03.2018 22:18 1,1 °C 93 % 1008,5 hPa 0,0 mm 0,0 km/h (0 Bft) S-SW 200 ° 0 min 0,000 mm 0,0 UV-I 0 W/m² 0,1 °C 1,1 °C 0,0 km/h (0 Bft)
29.03.2018 22:19 1,1 °C 93 % 1008,5 hPa 0,0 mm 0,0 km/h (0 Bft) S-SW 200 ° 0 min 0,000 mm 0,0 UV-I 0 W/m² 0,1 °C 1,1 °C 0,0 km/h (0 Bft)
29.03.2018 22:20 1,1 °C 93 % 1008,5 hPa 0,0 mm 0,5 km/h (0 Bft) SW 228 ° 0 min 0,000 mm 0,0 UV-I 0 W/m² 0,1 °C 1,1 °C 1,6 km/h (1 Bft)
29.03.2018 22:21 1,2 °C 93 % 1008,5 hPa 0,0 mm 0,3 km/h (0 Bft) SW 228 ° 0 min 0,000 mm 0,0 UV-I 0 W/m² 0,2 °C 1,2 °C 1,6 km/h (1 Bft)
29.03.2018 22:22 1,1 °C 93 % 1008,5 hPa 0,0 mm 0,0 km/h (0 Bft) SW 228 ° 0 min 0,000 mm 0,0 UV-I 0 W/m² 0,1 °C 1,1 °C 0,0 km/h (0 Bft)
29.03.2018 22:23 1,1 °C 93 % 1008,4 hPa 0,0 mm 0,0 km/h (0 Bft) SW 228 ° 0 min 0,000 mm 0,0 UV-I 0 W/m² 0,1 °C 1,1 °C 0,0 km/h (0 Bft)
29.03.2018 22:24 1,1 °C 93 % 1008,5 hPa 0,0 mm 0,0 km/h (0 Bft) SW 228 ° 0 min 0,000 mm 0,0 UV-I 0 W/m² 0,1 °C 1,1 °C 0,0 km/h (0 Bft)
29.03.2018 22:25 1,1 °C 93 % 1008,5 hPa 0,0 mm 0,0 km/h (0 Bft) SW 228 ° 0 min 0,000 mm 0,0 UV-I 0 W/m² 0,1 °C 1,1 °C 0,0 km/h (0 Bft)
29.03.2018 22:26 1,1 °C 93 % 1008,5 hPa 0,0 mm 0,0 km/h (0 Bft) SW 228 ° 0 min 0,000 mm 0,0 UV-I 0 W/m² 0,1 °C 1,1 °C 0,0 km/h (0 Bft)
29.03.2018 22:27 1,1 °C 93 % 1008,4 hPa 0,0 mm 0,0 km/h (0 Bft) SW 228 ° 0 min 0,000 mm 0,0 UV-I 0 W/m² 0,1 °C 1,1 °C 0,0 km/h (0 Bft)
29.03.2018 22:28 1,0 °C 93 % 1008,5 hPa 0,0 mm 0,0 km/h (0 Bft) SW 228 ° 0 min 0,000 mm 0,0 UV-I 0 W/m² -0,0 °C 1,0 °C 0,0 km/h (0 Bft)
29.03.2018 22:29 1,0 °C 93 % 1008,5 hPa 0,0 mm 0,0 km/h (0 Bft) SW 228 ° 0 min 0,000 mm 0,0 UV-I 0 W/m² -0,0 °C 1,0 °C 0,0 km/h (0 Bft)
29.03.2018 22:30 1,0 °C 93 % 1008,5 hPa 0,0 mm 0,0 km/h (0 Bft) SW 228 ° 0 min 0,000 mm 0,0 UV-I 0 W/m² -0,0 °C 1,0 °C 0,0 km/h (0 Bft)
29.03.2018 22:31 0,9 °C 93 % 1008,5 hPa 0,0 mm 0,0 km/h (0 Bft) SW 228 ° 0 min 0,000 mm 0,0 UV-I 0 W/m² -0,1 °C 0,9 °C 0,0 km/h (0 Bft)
29.03.2018 22:32 0,9 °C 93 % 1008,5 hPa 0,0 mm 0,0 km/h (0 Bft) SW 228 ° 0 min 0,000 mm 0,0 UV-I 0 W/m² -0,1 °C 0,9 °C 0,0 km/h (0 Bft)
29.03.2018 22:33 0,9 °C 93 % 1008,4 hPa 0,0 mm 0,0 km/h (0 Bft) SW 228 ° 0 min 0,000 mm 0,0 UV-I 0 W/m² -0,1 °C 0,9 °C 0,0 km/h (0 Bft)
29.03.2018 22:34 1,0 °C 93 % 1008,5 hPa 0,0 mm 0,0 km/h (0 Bft) SW 228 ° 0 min 0,000 mm 0,0 UV-I 0 W/m² -0,0 °C 1,0 °C 0,0 km/h (0 Bft)
29.03.2018 22:35 1,0 °C 93 % 1008,5 hPa 0,0 mm 0,0 km/h (0 Bft) SW 228 ° 0 min 0,000 mm 0,0 UV-I 0 W/m² -0,0 °C 1,0 °C 0,0 km/h (0 Bft)
29.03.2018 22:36 1,1 °C 93 % 1008,4 hPa 0,0 mm 0,0 km/h (0 Bft) SW 228 ° 0 min 0,000 mm 0,0 UV-I 0 W/m² 0,1 °C 1,1 °C 0,0 km/h (0 Bft)
29.03.2018 22:37 1,0 °C 93 % 1008,5 hPa 0,0 mm 0,0 km/h (0 Bft) SW 228 ° 0 min 0,000 mm 0,0 UV-I 0 W/m² -0,0 °C 1,0 °C 0,0 km/h (0 Bft)
29.03.2018 22:38 1,0 °C 93 % 1008,5 hPa 0,0 mm 0,0 km/h (0 Bft) SW 228 ° 0 min 0,000 mm 0,0 UV-I 0 W/m² -0,0 °C 1,0 °C 0,0 km/h (0 Bft)
29.03.2018 22:39 1,0 °C 93 % 1008,5 hPa 0,0 mm 0,0 km/h (0 Bft) SW 228 ° 0 min 0,000 mm 0,0 UV-I 0 W/m² -0,0 °C 1,0 °C 0,0 km/h (0 Bft)
29.03.2018 22:40 1,0 °C 93 % 1008,5 hPa 0,0 mm 0,0 km/h (0 Bft) SW 228 ° 0 min 0,000 mm 0,0 UV-I 0 W/m² -0,0 °C 1,0 °C 0,0 km/h (0 Bft)
29.03.2018 22:41 1,0 °C 93 % 1008,5 hPa 0,0 mm 0,0 km/h (0 Bft) SW 228 ° 0 min 0,000 mm 0,0 UV-I 0 W/m² -0,0 °C 1,0 °C 0,0 km/h (0 Bft)
29.03.2018 22:42 1,0 °C 93 % 1008,5 hPa 0,0 mm 0,0 km/h (0 Bft) SW 228 ° 0 min 0,000 mm 0,0 UV-I 0 W/m² -0,0 °C 1,0 °C 0,0 km/h (0 Bft)
29.03.2018 22:43 1,0 °C 93 % 1008,5 hPa 0,0 mm 0,0 km/h (0 Bft) SW 228 ° 0 min 0,000 mm 0,0 UV-I 0 W/m² -0,0 °C 1,0 °C 0,0 km/h (0 Bft)
29.03.2018 22:44 0,9 °C 93 % 1008,5 hPa 0,0 mm 0,0 km/h (0 Bft) SW 228 ° 0 min 0,000 mm 0,0 UV-I 0 W/m² -0,1 °C 0,9 °C 0,0 km/h (0 Bft)
29.03.2018 22:45 0,9 °C 93 % 1008,5 hPa 0,0 mm 0,0 km/h (0 Bft) SW 228 ° 0 min 0,000 mm 0,0 UV-I 0 W/m² -0,1 °C 0,9 °C 0,0 km/h (0 Bft)
29.03.2018 22:46 0,8 °C 93 % 1008,5 hPa 0,0 mm 0,0 km/h (0 Bft) SW 228 ° 0 min 0,000 mm 0,0 UV-I 0 W/m² -0,2 °C 0,8 °C 0,0 km/h (0 Bft)
29.03.2018 22:47 0,8 °C 93 % 1008,5 hPa 0,0 mm 0,0 km/h (0 Bft) SW 228 ° 0 min 0,000 mm 0,0 UV-I 0 W/m² -0,2 °C 0,8 °C 0,0 km/h (0 Bft)
29.03.2018 22:48 0,8 °C 93 % 1008,5 hPa 0,0 mm 0,0 km/h (0 Bft) SW 228 ° 0 min 0,000 mm 0,0 UV-I 0 W/m² -0,2 °C 0,8 °C 0,0 km/h (0 Bft)
29.03.2018 22:49 0,8 °C 93 % 1008,5 hPa 0,0 mm 0,0 km/h (0 Bft) SW 228 ° 0 min 0,000 mm 0,0 UV-I 0 W/m² -0,2 °C 0,8 °C 0,0 km/h (0 Bft)
29.03.2018 22:50 0,9 °C 93 % 1008,5 hPa 0,0 mm 0,0 km/h (0 Bft) SW 228 ° 0 min 0,000 mm 0,0 UV-I 0 W/m² -0,1 °C 0,9 °C 0,0 km/h (0 Bft)
29.03.2018 22:51 0,9 °C 93 % 1008,5 hPa 0,0 mm 0,0 km/h (0 Bft) SW 228 ° 0 min 0,000 mm 0,0 UV-I 0 W/m² -0,1 °C 0,9 °C 0,0 km/h (0 Bft)
29.03.2018 22:52 0,9 °C 93 % 1008,5 hPa 0,0 mm 0,0 km/h (0 Bft) SW 228 ° 0 min 0,000 mm 0,0 UV-I 0 W/m² -0,1 °C 0,9 °C 0,0 km/h (0 Bft)
29.03.2018 22:53 0,9 °C 94 % 1008,5 hPa 0,0 mm 0,0 km/h (0 Bft) SW 228 ° 0 min 0,000 mm 0,0 UV-I 0 W/m² 0,0 °C 0,9 °C 0,0 km/h (0 Bft)
29.03.2018 22:54 0,9 °C 93 % 1008,5 hPa 0,0 mm 0,0 km/h (0 Bft) SW 228 ° 0 min 0,000 mm 0,0 UV-I 0 W/m² -0,1 °C 0,9 °C 0,0 km/h (0 Bft)
29.03.2018 22:55 0,9 °C 93 % 1008,5 hPa 0,0 mm 0,0 km/h (0 Bft) SW 228 ° 0 min 0,000 mm 0,0 UV-I 0 W/m² -0,1 °C 0,9 °C 0,0 km/h (0 Bft)
29.03.2018 22:56 0,9 °C 93 % 1008,5 hPa 0,0 mm 0,0 km/h (0 Bft) SW 228 ° 0 min 0,000 mm 0,0 UV-I 0 W/m² -0,1 °C 0,9 °C 0,0 km/h (0 Bft)
29.03.2018 22:57 0,9 °C 93 % 1008,5 hPa 0,0 mm 0,0 km/h (0 Bft) SW 228 ° 0 min 0,000 mm 0,0 UV-I 0 W/m² -0,1 °C 0,9 °C 0,0 km/h (0 Bft)
29.03.2018 22:58 0,9 °C 93 % 1008,4 hPa 0,0 mm 0,0 km/h (0 Bft) SW 228 ° 0 min 0,000 mm 0,0 UV-I 0 W/m² -0,1 °C 0,9 °C 0,0 km/h (0 Bft)
29.03.2018 22:59 0,9 °C 93 % 1008,5 hPa 0,0 mm 0,0 km/h (0 Bft) SW 228 ° 0 min 0,000 mm 0,0 UV-I 0 W/m² -0,1 °C 0,9 °C 0,0 km/h (0 Bft)
29.03.2018 23:00 0,8 °C 93 % 1008,5 hPa 0,0 mm 0,0 km/h (0 Bft) SW 228 ° 0 min 0,000 mm 0,0 UV-I 0 W/m² -0,2 °C 0,8 °C 0,0 km/h (0 Bft)
29.03.2018 23:01 0,8 °C 93 % 1008,5 hPa 0,0 mm 0,0 km/h (0 Bft) SW 228 ° 0 min 0,000 mm 0,0 UV-I 0 W/m² -0,2 °C 0,8 °C 0,0 km/h (0 Bft)
29.03.2018 23:02 0,8 °C 93 % 1008,5 hPa 0,0 mm 0,0 km/h (0 Bft) SW 228 ° 0 min 0,000 mm 0,0 UV-I 0 W/m² -0,2 °C 0,8 °C 0,0 km/h (0 Bft)
29.03.2018 23:03 0,8 °C 93 % 1008,5 hPa 0,0 mm 0,0 km/h (0 Bft) SW 228 ° 0 min 0,000 mm 0,0 UV-I 0 W/m² -0,2 °C 0,8 °C 0,0 km/h (0 Bft)
29.03.2018 23:04 0,8 °C 93 % 1008,5 hPa 0,0 mm 0,0 km/h (0 Bft) SW 228 ° 0 min 0,000 mm 0,0 UV-I 0 W/m² -0,2 °C 0,8 °C 0,0 km/h (0 Bft)
29.03.2018 23:05 0,8 °C 93 % 1008,5 hPa 0,0 mm 0,0 km/h (0 Bft) SW 228 ° 0 min 0,000 mm 0,0 UV-I 0 W/m² -0,2 °C 0,8 °C 0,0 km/h (0 Bft)
29.03.2018 23:06 0,7 °C 93 % 1008,4 hPa 0,0 mm 0,0 km/h (0 Bft) SW 228 ° 0 min 0,000 mm 0,0 UV-I 0 W/m² -0,3 °C 0,7 °C 0,0 km/h (0 Bft)
29.03.2018 23:07 0,7 °C 93 % 1008,5 hPa 0,0 mm 0,0 km/h (0 Bft) SW 228 ° 0 min 0,000 mm 0,0 UV-I 0 W/m² -0,3 °C 0,7 °C 0,0 km/h (0 Bft)
29.03.2018 23:08 0,8 °C 93 % 1008,4 hPa 0,0 mm 0,0 km/h (0 Bft) SW 228 ° 0 min 0,000 mm 0,0 UV-I 0 W/m² -0,2 °C 0,8 °C 0,0 km/h (0 Bft)
29.03.2018 23:09 0,7 °C 93 % 1008,5 hPa 0,0 mm 0,0 km/h (0 Bft) SW 228 ° 0 min 0,000 mm 0,0 UV-I 0 W/m² -0,3 °C 0,7 °C 0,0 km/h (0 Bft)
29.03.2018 23:10 0,7 °C 93 % 1008,5 hPa 0,0 mm 0,0 km/h (0 Bft) SW 228 ° 0 min 0,000 mm 0,0 UV-I 0 W/m² -0,3 °C 0,7 °C 0,0 km/h (0 Bft)
29.03.2018 23:11 0,7 °C 93 % 1008,5 hPa 0,0 mm 0,0 km/h (0 Bft) SW 228 ° 0 min 0,000 mm 0,0 UV-I 0 W/m² -0,3 °C 0,7 °C 0,0 km/h (0 Bft)
29.03.2018 23:12 0,7 °C 93 % 1008,5 hPa 0,0 mm 0,0 km/h (0 Bft) SW 228 ° 0 min 0,000 mm 0,0 UV-I 0 W/m² -0,3 °C 0,7 °C 0,0 km/h (0 Bft)
29.03.2018 23:13 0,7 °C 93 % 1008,5 hPa 0,0 mm 0,0 km/h (0 Bft) SW 228 ° 0 min 0,000 mm 0,0 UV-I 0 W/m² -0,3 °C 0,7 °C 0,0 km/h (0 Bft)
29.03.2018 23:14 0,7 °C 93 % 1008,4 hPa 0,0 mm 0,0 km/h (0 Bft) SW 228 ° 0 min 0,000 mm 0,0 UV-I 0 W/m² -0,3 °C 0,7 °C 0,0 km/h (0 Bft)
29.03.2018 23:15 0,7 °C 93 % 1008,4 hPa 0,0 mm 0,0 km/h (0 Bft) SW 228 ° 0 min 0,000 mm 0,0 UV-I 0 W/m² -0,3 °C 0,7 °C 0,0 km/h (0 Bft)
29.03.2018 23:16 0,7 °C 93 % 1008,5 hPa 0,0 mm 0,0 km/h (0 Bft) SW 228 ° 0 min 0,000 mm 0,0 UV-I 0 W/m² -0,3 °C 0,7 °C 0,0 km/h (0 Bft)
29.03.2018 23:17 0,7 °C 93 % 1008,4 hPa 0,0 mm 0,0 km/h (0 Bft) SW 228 ° 0 min 0,000 mm 0,0 UV-I 0 W/m² -0,3 °C 0,7 °C 0,0 km/h (0 Bft)
29.03.2018 23:18 0,7 °C 93 % 1008,4 hPa 0,0 mm 0,0 km/h (0 Bft) SW 228 ° 0 min 0,000 mm 0,0 UV-I 0 W/m² -0,3 °C 0,7 °C 0,0 km/h (0 Bft)
29.03.2018 23:19 0,7 °C 93 % 1008,4 hPa 0,0 mm 0,4 km/h (0 Bft) SW 228 ° 0 min 0,000 mm 0,0 UV-I 0 W/m² -0,3 °C 0,7 °C 3,2 km/h (1 Bft)
29.03.2018 23:20 0,7 °C 93 % 1008,4 hPa 0,0 mm 0,0 km/h (0 Bft) SW 228 ° 0 min 0,000 mm 0,0 UV-I 0 W/m² -0,3 °C 0,7 °C 0,0 km/h (0 Bft)
29.03.2018 23:21 0,7 °C 93 % 1008,4 hPa 0,0 mm 0,0 km/h (0 Bft) SW 228 ° 0 min 0,000 mm 0,0 UV-I 0 W/m² -0,3 °C 0,7 °C 0,0 km/h (0 Bft)
29.03.2018 23:22 0,7 °C 93 % 1008,5 hPa 0,0 mm 0,0 km/h (0 Bft) SW 228 ° 0 min 0,000 mm 0,0 UV-I 0 W/m² -0,3 °C 0,7 °C 0,0 km/h (0 Bft)
29.03.2018 23:23 0,6 °C 93 % 1008,4 hPa 0,0 mm 0,0 km/h (0 Bft) SW 228 ° 0 min 0,000 mm 0,0 UV-I 0 W/m² -0,4 °C 0,6 °C 0,0 km/h (0 Bft)
29.03.2018 23:24 0,7 °C 93 % 1008,5 hPa 0,0 mm 0,0 km/h (0 Bft) SW 228 ° 0 min 0,000 mm 0,0 UV-I 0 W/m² -0,3 °C 0,7 °C 0,0 km/h (0 Bft)
29.03.2018 23:25 0,7 °C 93 % 1008,4 hPa 0,0 mm 0,0 km/h (0 Bft) SW 228 ° 0 min 0,000 mm 0,0 UV-I 0 W/m² -0,3 °C 0,7 °C 0,0 km/h (0 Bft)
29.03.2018 23:26 0,6 °C 93 % 1008,4 hPa 0,0 mm 0,0 km/h (0 Bft) SW 228 ° 0 min 0,000 mm 0,0 UV-I 0 W/m² -0,4 °C 0,6 °C 0,0 km/h (0 Bft)
29.03.2018 23:27 0,6 °C 93 % 1008,4 hPa 0,0 mm 0,0 km/h (0 Bft) SW 228 ° 0 min 0,000 mm 0,0 UV-I 0 W/m² -0,4 °C 0,6 °C 0,0 km/h (0 Bft)
29.03.2018 23:28 0,6 °C 93 % 1008,4 hPa 0,0 mm 0,0 km/h (0 Bft) SW 228 ° 0 min 0,000 mm 0,0 UV-I 0 W/m² -0,4 °C 0,6 °C 0,0 km/h (0 Bft)
29.03.2018 23:29 0,6 °C 93 % 1008,4 hPa 0,0 mm 0,0 km/h (0 Bft) SW 228 ° 0 min 0,000 mm 0,0 UV-I 0 W/m² -0,4 °C 0,6 °C 0,0 km/h (0 Bft)
29.03.2018 23:30 0,6 °C 93 % 1008,4 hPa 0,0 mm 0,0 km/h (0 Bft) SW 228 ° 0 min 0,000 mm 0,0 UV-I 0 W/m² -0,4 °C 0,6 °C 0,0 km/h (0 Bft)
29.03.2018 23:31 0,6 °C 93 % 1008,4 hPa 0,0 mm 0,0 km/h (0 Bft) SW 228 ° 0 min 0,000 mm 0,0 UV-I 0 W/m² -0,4 °C 0,6 °C 0,0 km/h (0 Bft)
29.03.2018 23:32 0,6 °C 93 % 1008,4 hPa 0,0 mm 0,2 km/h (0 Bft) SW 228 ° 0 min 0,000 mm 0,0 UV-I 0 W/m² -0,4 °C 0,6 °C 1,6 km/h (1 Bft)
29.03.2018 23:33 0,7 °C 93 % 1008,3 hPa 0,0 mm 1,1 km/h (1 Bft) W 280 ° 0 min 0,000 mm 0,0 UV-I 0 W/m² -0,3 °C 0,7 °C 4,8 km/h (1 Bft)
29.03.2018 23:34 0,6 °C 93 % 1008,3 hPa 0,0 mm 0,5 km/h (0 Bft) W 280 ° 0 min 0,000 mm 0,0 UV-I 0 W/m² -0,4 °C 0,6 °C 3,2 km/h (1 Bft)
29.03.2018 23:35 0,5 °C 93 % 1008,4 hPa 0,0 mm 0,0 km/h (0 Bft) W 280 ° 0 min 0,000 mm 0,0 UV-I 0 W/m² -0,5 °C 0,5 °C 0,0 km/h (0 Bft)
29.03.2018 23:36 0,5 °C 93 % 1008,3 hPa 0,0 mm 0,0 km/h (0 Bft) W 280 ° 0 min 0,000 mm 0,0 UV-I 0 W/m² -0,5 °C 0,5 °C 0,0 km/h (0 Bft)
29.03.2018 23:37 0,6 °C 93 % 1008,3 hPa 0,0 mm 0,0 km/h (0 Bft) W 280 ° 0 min 0,000 mm 0,0 UV-I 0 W/m² -0,4 °C 0,6 °C 0,0 km/h (0 Bft)
29.03.2018 23:38 0,6 °C 93 % 1008,3 hPa 0,0 mm 0,0 km/h (0 Bft) W 280 ° 0 min 0,000 mm 0,0 UV-I 0 W/m² -0,4 °C 0,6 °C 0,0 km/h (0 Bft)
29.03.2018 23:39 0,5 °C 93 % 1008,3 hPa 0,0 mm 0,0 km/h (0 Bft) W 280 ° 0 min 0,000 mm 0,0 UV-I 0 W/m² -0,5 °C 0,5 °C 0,0 km/h (0 Bft)
29.03.2018 23:40 0,5 °C 93 % 1008,3 hPa 0,0 mm 0,0 km/h (0 Bft) W 280 ° 0 min 0,000 mm 0,0 UV-I 0 W/m² -0,5 °C 0,5 °C 0,0 km/h (0 Bft)
29.03.2018 23:41 0,5 °C 93 % 1008,4 hPa 0,0 mm 1,0 km/h (0 Bft) S-SO 147 ° 0 min 0,000 mm 0,0 UV-I 0 W/m² -0,5 °C 0,5 °C 3,2 km/h (1 Bft)
29.03.2018 23:42 0,6 °C 93 % 1008,4 hPa 0,0 mm 0,0 km/h (0 Bft) S-SO 147 ° 0 min 0,000 mm 0,0 UV-I 0 W/m² -0,4 °C 0,6 °C 0,0 km/h (0 Bft)
29.03.2018 23:43 0,6 °C 94 % 1008,3 hPa 0,0 mm 0,0 km/h (0 Bft) S-SO 147 ° 0 min 0,000 mm 0,0 UV-I 0 W/m² -0,3 °C 0,6 °C 0,0 km/h (0 Bft)
29.03.2018 23:44 0,6 °C 93 % 1008,3 hPa 0,0 mm 0,0 km/h (0 Bft) S-SO 147 ° 0 min 0,000 mm 0,0 UV-I 0 W/m² -0,4 °C 0,6 °C 0,0 km/h (0 Bft)
29.03.2018 23:45 0,7 °C 93 % 1008,4 hPa 0,0 mm 0,0 km/h (0 Bft) S-SO 147 ° 0 min 0,000 mm 0,0 UV-I 0 W/m² -0,3 °C 0,7 °C 0,0 km/h (0 Bft)
29.03.2018 23:46 0,7 °C 94 % 1008,4 hPa 0,0 mm 0,0 km/h (0 Bft) S-SO 147 ° 0 min 0,000 mm 0,0 UV-I 0 W/m² -0,2 °C 0,7 °C 0,0 km/h (0 Bft)
29.03.2018 23:47 0,8 °C 93 % 1008,4 hPa 0,0 mm 0,0 km/h (0 Bft) S-SO 147 ° 0 min 0,000 mm 0,0 UV-I 0 W/m² -0,2 °C 0,8 °C 0,0 km/h (0 Bft)
29.03.2018 23:48 0,8 °C 94 % 1008,4 hPa 0,0 mm 0,0 km/h (0 Bft) S-SO 147 ° 0 min 0,000 mm 0,0 UV-I 0 W/m² -0,1 °C 0,8 °C 0,0 km/h (0 Bft)
29.03.2018 23:49 0,9 °C 94 % 1008,4 hPa 0,0 mm 0,0 km/h (0 Bft) S-SO 147 ° 0 min 0,000 mm 0,0 UV-I 0 W/m² 0,0 °C 0,9 °C 0,0 km/h (0 Bft)
29.03.2018 23:50 0,8 °C 93 % 1008,3 hPa 0,0 mm 0,0 km/h (0 Bft) S-SO 147 ° 0 min 0,000 mm 0,0 UV-I 0 W/m² -0,2 °C 0,8 °C 0,0 km/h (0 Bft)
29.03.2018 23:51 0,8 °C 93 % 1008,3 hPa 0,0 mm 0,0 km/h (0 Bft) S-SO 147 ° 0 min 0,000 mm 0,0 UV-I 0 W/m² -0,2 °C 0,8 °C 0,0 km/h (0 Bft)
29.03.2018 23:52 0,8 °C 93 % 1008,3 hPa 0,0 mm 0,0 km/h (0 Bft) S-SO 147 ° 0 min 0,000 mm 0,0 UV-I 0 W/m² -0,2 °C 0,8 °C 0,0 km/h (0 Bft)
29.03.2018 23:53 0,7 °C 93 % 1008,3 hPa 0,0 mm 0,0 km/h (0 Bft) S-SO 147 ° 0 min 0,000 mm 0,0 UV-I 0 W/m² -0,3 °C 0,7 °C 0,0 km/h (0 Bft)
29.03.2018 23:54 0,6 °C 93 % 1008,3 hPa 0,0 mm 0,0 km/h (0 Bft) S-SO 152 ° 0 min 0,000 mm 0,0 UV-I 0 W/m² -0,4 °C 0,6 °C 0,0 km/h (0 Bft)
29.03.2018 23:55 0,5 °C 93 % 1008,3 hPa 0,0 mm 0,2 km/h (0 Bft) S-SO 152 ° 0 min 0,000 mm 0,0 UV-I 0 W/m² -0,5 °C 0,5 °C 1,6 km/h (1 Bft)
29.03.2018 23:56 0,5 °C 93 % 1008,2 hPa 0,0 mm 0,0 km/h (0 Bft) S-SO 152 ° 0 min 0,000 mm 0,0 UV-I 0 W/m² -0,5 °C 0,5 °C 0,0 km/h (0 Bft)
29.03.2018 23:57 0,4 °C 93 % 1008,2 hPa 0,0 mm 0,0 km/h (0 Bft) S-SO 152 ° 0 min 0,000 mm 0,0 UV-I 0 W/m² -0,6 °C 0,4 °C 0,0 km/h (0 Bft)
29.03.2018 23:58 0,4 °C 93 % 1008,2 hPa 0,0 mm 0,0 km/h (0 Bft) S-SO 152 ° 0 min 0,000 mm 0,0 UV-I 0 W/m² -0,6 °C 0,4 °C 0,0 km/h (0 Bft)
29.03.2018 23:59 0,4 °C 93 % 1008,2 hPa 0,0 mm 0,0 km/h (0 Bft) S-SO 152 ° 0 min 0,000 mm 0,0 UV-I 0 W/m² -0,6 °C 0,4 °C 0,0 km/h (0 Bft)
_ Min-Zeit 23:59 14:39 00:27 - 23:59 - - - - - - 14:39 04:28 23:59
Minimum _ 0,4 °C 44 % 1003,0 hPa - 0,0 km/h (0 Bft) - - - - - - -3,8 °C -0,9 °C 0,0 km/h (0 Bft)
_ Max-Zeit 13:18 23:49 21:50 18:40 03:38 - - 14:45 14:00 13:15 13:16 00:00 14:18 02:00
Maximum _ 8,6 °C 94 % 1008,8 hPa 0,2 mm 23,9 km/h
W (4 Bft)
- - 1 min 0,228 mm 5,4 UV-I 997 W/m² 5,2 °C 8,2 °C 38,6 km/h
W (5 Bft)
Durchschnitt _ 3,9 °C 85 % 1006,3 hPa #7,8 mm 5,5 km/h (1 Bft) W - #2:29 h #1,041 mm 1,7 UV-I 84 W/m² 1,5 °C 2,9 °C 8,7 km/h (2 Bft)